<?xml version="1.0" encoding="UTF-8" standalone="no" ?>
<gpx xmlns="http://www.topografix.com/GPX/1/1" xmlns:xsi="http://www.w3.org/2001/XMLSchema-instance" xsi:schemaLocation="http://www.topografix.com/GPX/1/1 http://www.topografix.com/GPX/1/1/gpx.xsd" version="1.1" creator="VisuGPX - https://www.visugpx.com">
  <metadata>
    <name>La Dent du Chat</name>
    <desc><![CDATA[Rando au départ du Col du Chat , boucle par Dent du Chat , Bourdeau , La Chapelle du Mont du Chat]]></desc>
  </metadata>
  <trk>
    <name><![CDATA[27-AVR-14 08:24:28]]></name>
    <trkseg>
      <trkpt lat="45.69" lon="5.84834">
        <ele>722.57</ele>
        <time>2014-04-26T08:06:52Z</time>
      </trkpt>
      <trkpt lat="45.69001" lon="5.84832">
        <ele>722.57</ele>
        <time>2014-04-26T08:06:53Z</time>
      </trkpt>
      <trkpt lat="45.69" lon="5.84831">
        <ele>722.57</ele>
        <time>2014-04-26T08:07:17Z</time>
      </trkpt>
      <trkpt lat="45.68999" lon="5.8483">
        <ele>723.05</ele>
        <time>2014-04-26T08:07:24Z</time>
      </trkpt>
      <trkpt lat="45.69" lon="5.84825">
        <ele>724.01</ele>
        <time>2014-04-26T08:07:27Z</time>
      </trkpt>
      <trkpt lat="45.69001" lon="5.8481">
        <ele>727.86</ele>
        <time>2014-04-26T08:07:40Z</time>
      </trkpt>
      <trkpt lat="45.69003" lon="5.84812">
        <ele>731.22</ele>
        <time>2014-04-26T08:07:53Z</time>
      </trkpt>
      <trkpt lat="45.69006" lon="5.84808">
        <ele>734.1</ele>
        <time>2014-04-26T08:08:07Z</time>
      </trkpt>
      <trkpt lat="45.68999" lon="5.84806">
        <ele>737.47</ele>
        <time>2014-04-26T08:08:17Z</time>
      </trkpt>
      <trkpt lat="45.68999" lon="5.84806">
        <ele>737.47</ele>
        <time>2014-04-26T08:08:19Z</time>
      </trkpt>
      <trkpt lat="45.68997" lon="5.84802">
        <ele>739.39</ele>
        <time>2014-04-26T08:08:25Z</time>
      </trkpt>
      <trkpt lat="45.68994" lon="5.84807">
        <ele>740.83</ele>
        <time>2014-04-26T08:08:29Z</time>
      </trkpt>
      <trkpt lat="45.68986" lon="5.84805">
        <ele>743.72</ele>
        <time>2014-04-26T08:08:38Z</time>
      </trkpt>
      <trkpt lat="45.68986" lon="5.84805">
        <ele>744.2</ele>
        <time>2014-04-26T08:08:41Z</time>
      </trkpt>
      <trkpt lat="45.68983" lon="5.84806">
        <ele>744.68</ele>
        <time>2014-04-26T08:08:44Z</time>
      </trkpt>
      <trkpt lat="45.68977" lon="5.84806">
        <ele>745.16</ele>
        <time>2014-04-26T08:08:48Z</time>
      </trkpt>
      <trkpt lat="45.68971" lon="5.84804">
        <ele>746.12</ele>
        <time>2014-04-26T08:08:53Z</time>
      </trkpt>
      <trkpt lat="45.68968" lon="5.84803">
        <ele>749.49</ele>
        <time>2014-04-26T08:09:01Z</time>
      </trkpt>
      <trkpt lat="45.68964" lon="5.84801">
        <ele>752.37</ele>
        <time>2014-04-26T08:09:14Z</time>
      </trkpt>
      <trkpt lat="45.68959" lon="5.84807">
        <ele>752.37</ele>
        <time>2014-04-26T08:09:30Z</time>
      </trkpt>
      <trkpt lat="45.68958" lon="5.84807">
        <ele>751.89</ele>
        <time>2014-04-26T08:10:04Z</time>
      </trkpt>
      <trkpt lat="45.68957" lon="5.8481">
        <ele>751.89</ele>
        <time>2014-04-26T08:10:32Z</time>
      </trkpt>
      <trkpt lat="45.68957" lon="5.84815">
        <ele>751.89</ele>
        <time>2014-04-26T08:11:01Z</time>
      </trkpt>
      <trkpt lat="45.68954" lon="5.84807">
        <ele>751.89</ele>
        <time>2014-04-26T08:11:10Z</time>
      </trkpt>
      <trkpt lat="45.68943" lon="5.84796">
        <ele>755.73</ele>
        <time>2014-04-26T08:11:19Z</time>
      </trkpt>
      <trkpt lat="45.68942" lon="5.84793">
        <ele>755.73</ele>
        <time>2014-04-26T08:11:20Z</time>
      </trkpt>
      <trkpt lat="45.68937" lon="5.84784">
        <ele>758.62</ele>
        <time>2014-04-26T08:11:26Z</time>
      </trkpt>
      <trkpt lat="45.68936" lon="5.84779">
        <ele>759.1</ele>
        <time>2014-04-26T08:11:28Z</time>
      </trkpt>
      <trkpt lat="45.68934" lon="5.84771">
        <ele>761.02</ele>
        <time>2014-04-26T08:11:31Z</time>
      </trkpt>
      <trkpt lat="45.68934" lon="5.84761">
        <ele>762.94</ele>
        <time>2014-04-26T08:11:35Z</time>
      </trkpt>
      <trkpt lat="45.68932" lon="5.84752">
        <ele>764.39</ele>
        <time>2014-04-26T08:11:38Z</time>
      </trkpt>
      <trkpt lat="45.68934" lon="5.8472">
        <ele>767.27</ele>
        <time>2014-04-26T08:11:47Z</time>
      </trkpt>
      <trkpt lat="45.68929" lon="5.84704">
        <ele>770.63</ele>
        <time>2014-04-26T08:11:57Z</time>
      </trkpt>
      <trkpt lat="45.68926" lon="5.84701">
        <ele>774</ele>
        <time>2014-04-26T08:12:08Z</time>
      </trkpt>
      <trkpt lat="45.68929" lon="5.84697">
        <ele>776.88</ele>
        <time>2014-04-26T08:12:18Z</time>
      </trkpt>
      <trkpt lat="45.68939" lon="5.84683">
        <ele>780.25</ele>
        <time>2014-04-26T08:12:28Z</time>
      </trkpt>
      <trkpt lat="45.68939" lon="5.84679">
        <ele>783.61</ele>
        <time>2014-04-26T08:12:41Z</time>
      </trkpt>
      <trkpt lat="45.68938" lon="5.84662">
        <ele>786.5</ele>
        <time>2014-04-26T08:12:54Z</time>
      </trkpt>
      <trkpt lat="45.68937" lon="5.84661">
        <ele>787.46</ele>
        <time>2014-04-26T08:12:56Z</time>
      </trkpt>
      <trkpt lat="45.68935" lon="5.84656">
        <ele>790.34</ele>
        <time>2014-04-26T08:13:10Z</time>
      </trkpt>
      <trkpt lat="45.68941" lon="5.84643">
        <ele>794.19</ele>
        <time>2014-04-26T08:13:25Z</time>
      </trkpt>
      <trkpt lat="45.68955" lon="5.84619">
        <ele>797.07</ele>
        <time>2014-04-26T08:13:44Z</time>
      </trkpt>
      <trkpt lat="45.68949" lon="5.84613">
        <ele>799.95</ele>
        <time>2014-04-26T08:14:02Z</time>
      </trkpt>
      <trkpt lat="45.68937" lon="5.84611">
        <ele>801.88</ele>
        <time>2014-04-26T08:14:16Z</time>
      </trkpt>
      <trkpt lat="45.6892" lon="5.84604">
        <ele>803.8</ele>
        <time>2014-04-26T08:14:32Z</time>
      </trkpt>
      <trkpt lat="45.68913" lon="5.84598">
        <ele>806.2</ele>
        <time>2014-04-26T08:14:48Z</time>
      </trkpt>
      <trkpt lat="45.68903" lon="5.84604">
        <ele>806.68</ele>
        <time>2014-04-26T08:15:05Z</time>
      </trkpt>
      <trkpt lat="45.689" lon="5.8461">
        <ele>806.2</ele>
        <time>2014-04-26T08:15:20Z</time>
      </trkpt>
      <trkpt lat="45.68899" lon="5.8461">
        <ele>806.2</ele>
        <time>2014-04-26T08:15:39Z</time>
      </trkpt>
      <trkpt lat="45.68887" lon="5.84592">
        <ele>803.8</ele>
        <time>2014-04-26T08:15:55Z</time>
      </trkpt>
      <trkpt lat="45.68875" lon="5.84583">
        <ele>802.36</ele>
        <time>2014-04-26T08:16:07Z</time>
      </trkpt>
      <trkpt lat="45.68859" lon="5.84562">
        <ele>803.8</ele>
        <time>2014-04-26T08:16:24Z</time>
      </trkpt>
      <trkpt lat="45.68852" lon="5.84556">
        <ele>806.2</ele>
        <time>2014-04-26T08:16:42Z</time>
      </trkpt>
      <trkpt lat="45.68838" lon="5.84544">
        <ele>809.09</ele>
        <time>2014-04-26T08:16:57Z</time>
      </trkpt>
      <trkpt lat="45.68833" lon="5.84546">
        <ele>812.45</ele>
        <time>2014-04-26T08:17:12Z</time>
      </trkpt>
      <trkpt lat="45.68828" lon="5.84543">
        <ele>815.34</ele>
        <time>2014-04-26T08:17:27Z</time>
      </trkpt>
      <trkpt lat="45.68822" lon="5.84536">
        <ele>818.7</ele>
        <time>2014-04-26T08:17:44Z</time>
      </trkpt>
      <trkpt lat="45.68816" lon="5.84529">
        <ele>822.06</ele>
        <time>2014-04-26T08:18:00Z</time>
      </trkpt>
      <trkpt lat="45.68814" lon="5.84525">
        <ele>824.95</ele>
        <time>2014-04-26T08:18:16Z</time>
      </trkpt>
      <trkpt lat="45.68798" lon="5.84532">
        <ele>827.83</ele>
        <time>2014-04-26T08:18:30Z</time>
      </trkpt>
      <trkpt lat="45.68786" lon="5.84532">
        <ele>830.72</ele>
        <time>2014-04-26T08:18:45Z</time>
      </trkpt>
      <trkpt lat="45.68774" lon="5.84532">
        <ele>833.12</ele>
        <time>2014-04-26T08:19:02Z</time>
      </trkpt>
      <trkpt lat="45.68767" lon="5.84526">
        <ele>836</ele>
        <time>2014-04-26T08:19:15Z</time>
      </trkpt>
      <trkpt lat="45.68758" lon="5.84521">
        <ele>839.37</ele>
        <time>2014-04-26T08:19:31Z</time>
      </trkpt>
      <trkpt lat="45.6875" lon="5.84513">
        <ele>841.77</ele>
        <time>2014-04-26T08:19:47Z</time>
      </trkpt>
      <trkpt lat="45.68737" lon="5.84501">
        <ele>840.33</ele>
        <time>2014-04-26T08:20:01Z</time>
      </trkpt>
      <trkpt lat="45.68728" lon="5.8449">
        <ele>842.73</ele>
        <time>2014-04-26T08:20:16Z</time>
      </trkpt>
      <trkpt lat="45.68718" lon="5.84483">
        <ele>843.69</ele>
        <time>2014-04-26T08:20:32Z</time>
      </trkpt>
      <trkpt lat="45.68706" lon="5.8448">
        <ele>845.14</ele>
        <time>2014-04-26T08:20:47Z</time>
      </trkpt>
      <trkpt lat="45.68696" lon="5.84456">
        <ele>848.5</ele>
        <time>2014-04-26T08:21:03Z</time>
      </trkpt>
      <trkpt lat="45.68694" lon="5.84457">
        <ele>851.87</ele>
        <time>2014-04-26T08:21:19Z</time>
      </trkpt>
      <trkpt lat="45.68691" lon="5.84446">
        <ele>855.23</ele>
        <time>2014-04-26T08:21:37Z</time>
      </trkpt>
      <trkpt lat="45.68683" lon="5.84445">
        <ele>857.15</ele>
        <time>2014-04-26T08:21:52Z</time>
      </trkpt>
      <trkpt lat="45.6868" lon="5.84432">
        <ele>860.52</ele>
        <time>2014-04-26T08:22:05Z</time>
      </trkpt>
      <trkpt lat="45.68675" lon="5.8442">
        <ele>863.4</ele>
        <time>2014-04-26T08:22:21Z</time>
      </trkpt>
      <trkpt lat="45.6868" lon="5.84417">
        <ele>866.77</ele>
        <time>2014-04-26T08:22:39Z</time>
      </trkpt>
      <trkpt lat="45.68679" lon="5.84411">
        <ele>869.17</ele>
        <time>2014-04-26T08:22:54Z</time>
      </trkpt>
      <trkpt lat="45.68671" lon="5.84416">
        <ele>872.05</ele>
        <time>2014-04-26T08:23:10Z</time>
      </trkpt>
      <trkpt lat="45.68667" lon="5.8441">
        <ele>874.46</ele>
        <time>2014-04-26T08:23:26Z</time>
      </trkpt>
      <trkpt lat="45.68664" lon="5.84409">
        <ele>877.34</ele>
        <time>2014-04-26T08:23:42Z</time>
      </trkpt>
      <trkpt lat="45.68659" lon="5.84404">
        <ele>880.71</ele>
        <time>2014-04-26T08:23:56Z</time>
      </trkpt>
      <trkpt lat="45.68653" lon="5.84408">
        <ele>881.67</ele>
        <time>2014-04-26T08:24:11Z</time>
      </trkpt>
      <trkpt lat="45.6865" lon="5.84403">
        <ele>882.63</ele>
        <time>2014-04-26T08:24:26Z</time>
      </trkpt>
      <trkpt lat="45.68647" lon="5.84399">
        <ele>885.51</ele>
        <time>2014-04-26T08:24:37Z</time>
      </trkpt>
      <trkpt lat="45.68645" lon="5.84395">
        <ele>888.4</ele>
        <time>2014-04-26T08:24:52Z</time>
      </trkpt>
      <trkpt lat="45.68645" lon="5.84396">
        <ele>888.4</ele>
        <time>2014-04-26T08:24:53Z</time>
      </trkpt>
      <trkpt lat="45.68644" lon="5.84397">
        <ele>888.88</ele>
        <time>2014-04-26T08:24:55Z</time>
      </trkpt>
      <trkpt lat="45.68643" lon="5.84401">
        <ele>887.91</ele>
        <time>2014-04-26T08:25:00Z</time>
      </trkpt>
      <trkpt lat="45.68635" lon="5.84415">
        <ele>887.91</ele>
        <time>2014-04-26T08:25:16Z</time>
      </trkpt>
      <trkpt lat="45.6863" lon="5.84416">
        <ele>888.4</ele>
        <time>2014-04-26T08:25:21Z</time>
      </trkpt>
      <trkpt lat="45.68616" lon="5.84426">
        <ele>891.28</ele>
        <time>2014-04-26T08:25:35Z</time>
      </trkpt>
      <trkpt lat="45.68607" lon="5.84431">
        <ele>892.24</ele>
        <time>2014-04-26T08:25:44Z</time>
      </trkpt>
      <trkpt lat="45.68598" lon="5.84427">
        <ele>895.61</ele>
        <time>2014-04-26T08:25:57Z</time>
      </trkpt>
      <trkpt lat="45.68596" lon="5.84403">
        <ele>898.01</ele>
        <time>2014-04-26T08:26:14Z</time>
      </trkpt>
      <trkpt lat="45.68596" lon="5.84386">
        <ele>900.89</ele>
        <time>2014-04-26T08:26:30Z</time>
      </trkpt>
      <trkpt lat="45.68598" lon="5.84371">
        <ele>903.3</ele>
        <time>2014-04-26T08:26:46Z</time>
      </trkpt>
      <trkpt lat="45.6859" lon="5.84364">
        <ele>906.66</ele>
        <time>2014-04-26T08:27:02Z</time>
      </trkpt>
      <trkpt lat="45.68586" lon="5.84362">
        <ele>907.62</ele>
        <time>2014-04-26T08:27:10Z</time>
      </trkpt>
      <trkpt lat="45.68577" lon="5.84372">
        <ele>909.54</ele>
        <time>2014-04-26T08:27:26Z</time>
      </trkpt>
      <trkpt lat="45.68567" lon="5.84377">
        <ele>912.43</ele>
        <time>2014-04-26T08:27:44Z</time>
      </trkpt>
      <trkpt lat="45.68555" lon="5.84381">
        <ele>914.83</ele>
        <time>2014-04-26T08:28:00Z</time>
      </trkpt>
      <trkpt lat="45.6855" lon="5.84381">
        <ele>918.2</ele>
        <time>2014-04-26T08:28:16Z</time>
      </trkpt>
      <trkpt lat="45.68546" lon="5.84382">
        <ele>918.68</ele>
        <time>2014-04-26T08:28:22Z</time>
      </trkpt>
      <trkpt lat="45.68533" lon="5.84389">
        <ele>921.08</ele>
        <time>2014-04-26T08:28:37Z</time>
      </trkpt>
      <trkpt lat="45.68528" lon="5.84388">
        <ele>923</ele>
        <time>2014-04-26T08:28:54Z</time>
      </trkpt>
      <trkpt lat="45.6852" lon="5.84387">
        <ele>926.37</ele>
        <time>2014-04-26T08:29:11Z</time>
      </trkpt>
      <trkpt lat="45.68519" lon="5.84369">
        <ele>929.25</ele>
        <time>2014-04-26T08:29:31Z</time>
      </trkpt>
      <trkpt lat="45.68521" lon="5.84353">
        <ele>923.48</ele>
        <time>2014-04-26T08:29:43Z</time>
      </trkpt>
      <trkpt lat="45.68521" lon="5.84352">
        <ele>933.1</ele>
        <time>2014-04-26T08:29:44Z</time>
      </trkpt>
      <trkpt lat="45.68521" lon="5.8435">
        <ele>929.73</ele>
        <time>2014-04-26T08:29:45Z</time>
      </trkpt>
      <trkpt lat="45.68521" lon="5.8435">
        <ele>929.25</ele>
        <time>2014-04-26T08:29:46Z</time>
      </trkpt>
      <trkpt lat="45.6852" lon="5.84347">
        <ele>932.62</ele>
        <time>2014-04-26T08:29:47Z</time>
      </trkpt>
      <trkpt lat="45.6852" lon="5.84346">
        <ele>931.65</ele>
        <time>2014-04-26T08:29:48Z</time>
      </trkpt>
      <trkpt lat="45.68516" lon="5.84341">
        <ele>934.06</ele>
        <time>2014-04-26T08:30:04Z</time>
      </trkpt>
      <trkpt lat="45.68503" lon="5.84336">
        <ele>936.46</ele>
        <time>2014-04-26T08:30:24Z</time>
      </trkpt>
      <trkpt lat="45.68499" lon="5.84328">
        <ele>939.35</ele>
        <time>2014-04-26T08:30:39Z</time>
      </trkpt>
      <trkpt lat="45.68499" lon="5.84325">
        <ele>942.71</ele>
        <time>2014-04-26T08:30:56Z</time>
      </trkpt>
      <trkpt lat="45.68505" lon="5.843">
        <ele>946.07</ele>
        <time>2014-04-26T08:31:11Z</time>
      </trkpt>
      <trkpt lat="45.68501" lon="5.84296">
        <ele>947.52</ele>
        <time>2014-04-26T08:31:29Z</time>
      </trkpt>
      <trkpt lat="45.68492" lon="5.84303">
        <ele>950.4</ele>
        <time>2014-04-26T08:31:45Z</time>
      </trkpt>
      <trkpt lat="45.68483" lon="5.84302">
        <ele>953.77</ele>
        <time>2014-04-26T08:32:00Z</time>
      </trkpt>
      <trkpt lat="45.68466" lon="5.8431">
        <ele>956.17</ele>
        <time>2014-04-26T08:32:21Z</time>
      </trkpt>
      <trkpt lat="45.68458" lon="5.84309">
        <ele>958.57</ele>
        <time>2014-04-26T08:32:35Z</time>
      </trkpt>
      <trkpt lat="45.68453" lon="5.84309">
        <ele>960.49</ele>
        <time>2014-04-26T08:32:48Z</time>
      </trkpt>
      <trkpt lat="45.68439" lon="5.84307">
        <ele>959.53</ele>
        <time>2014-04-26T08:33:04Z</time>
      </trkpt>
      <trkpt lat="45.68436" lon="5.84301">
        <ele>960.49</ele>
        <time>2014-04-26T08:33:18Z</time>
      </trkpt>
      <trkpt lat="45.68427" lon="5.84284">
        <ele>961.46</ele>
        <time>2014-04-26T08:33:36Z</time>
      </trkpt>
      <trkpt lat="45.68417" lon="5.84274">
        <ele>961.94</ele>
        <time>2014-04-26T08:33:53Z</time>
      </trkpt>
      <trkpt lat="45.68409" lon="5.84264">
        <ele>960.98</ele>
        <time>2014-04-26T08:34:09Z</time>
      </trkpt>
      <trkpt lat="45.68406" lon="5.84238">
        <ele>958.57</ele>
        <time>2014-04-26T08:34:23Z</time>
      </trkpt>
      <trkpt lat="45.68393" lon="5.84224">
        <ele>958.09</ele>
        <time>2014-04-26T08:34:38Z</time>
      </trkpt>
      <trkpt lat="45.68385" lon="5.84199">
        <ele>955.21</ele>
        <time>2014-04-26T08:34:52Z</time>
      </trkpt>
      <trkpt lat="45.68371" lon="5.84195">
        <ele>954.73</ele>
        <time>2014-04-26T08:35:09Z</time>
      </trkpt>
      <trkpt lat="45.68369" lon="5.84203">
        <ele>958.09</ele>
        <time>2014-04-26T08:35:26Z</time>
      </trkpt>
      <trkpt lat="45.68367" lon="5.84208">
        <ele>960.98</ele>
        <time>2014-04-26T08:35:44Z</time>
      </trkpt>
      <trkpt lat="45.68365" lon="5.84209">
        <ele>963.38</ele>
        <time>2014-04-26T08:36:01Z</time>
      </trkpt>
      <trkpt lat="45.68356" lon="5.84215">
        <ele>965.78</ele>
        <time>2014-04-26T08:36:16Z</time>
      </trkpt>
      <trkpt lat="45.68354" lon="5.84217">
        <ele>969.15</ele>
        <time>2014-04-26T08:36:30Z</time>
      </trkpt>
      <trkpt lat="45.68347" lon="5.84219">
        <ele>972.03</ele>
        <time>2014-04-26T08:36:50Z</time>
      </trkpt>
      <trkpt lat="45.68346" lon="5.8422">
        <ele>975.39</ele>
        <time>2014-04-26T08:37:09Z</time>
      </trkpt>
      <trkpt lat="45.68336" lon="5.84206">
        <ele>978.76</ele>
        <time>2014-04-26T08:37:28Z</time>
      </trkpt>
      <trkpt lat="45.68334" lon="5.84202">
        <ele>981.16</ele>
        <time>2014-04-26T08:37:47Z</time>
      </trkpt>
      <trkpt lat="45.68331" lon="5.84199">
        <ele>983.57</ele>
        <time>2014-04-26T08:38:00Z</time>
      </trkpt>
      <trkpt lat="45.68329" lon="5.84199">
        <ele>985.01</ele>
        <time>2014-04-26T08:38:03Z</time>
      </trkpt>
      <trkpt lat="45.68325" lon="5.84203">
        <ele>987.41</ele>
        <time>2014-04-26T08:38:21Z</time>
      </trkpt>
      <trkpt lat="45.68325" lon="5.84194">
        <ele>989.33</ele>
        <time>2014-04-26T08:38:31Z</time>
      </trkpt>
      <trkpt lat="45.68323" lon="5.84176">
        <ele>992.22</ele>
        <time>2014-04-26T08:38:49Z</time>
      </trkpt>
      <trkpt lat="45.68319" lon="5.84168">
        <ele>994.62</ele>
        <time>2014-04-26T08:39:06Z</time>
      </trkpt>
      <trkpt lat="45.68319" lon="5.84165">
        <ele>996.54</ele>
        <time>2014-04-26T08:39:24Z</time>
      </trkpt>
      <trkpt lat="45.6832" lon="5.8416">
        <ele>999.43</ele>
        <time>2014-04-26T08:39:44Z</time>
      </trkpt>
      <trkpt lat="45.68318" lon="5.8416">
        <ele>1000.87</ele>
        <time>2014-04-26T08:40:04Z</time>
      </trkpt>
      <trkpt lat="45.68317" lon="5.84152">
        <ele>1003.75</ele>
        <time>2014-04-26T08:40:21Z</time>
      </trkpt>
      <trkpt lat="45.68319" lon="5.84147">
        <ele>1007.12</ele>
        <time>2014-04-26T08:40:38Z</time>
      </trkpt>
      <trkpt lat="45.68318" lon="5.84147">
        <ele>1008.56</ele>
        <time>2014-04-26T08:40:53Z</time>
      </trkpt>
      <trkpt lat="45.68316" lon="5.84144">
        <ele>1011.93</ele>
        <time>2014-04-26T08:41:10Z</time>
      </trkpt>
      <trkpt lat="45.68317" lon="5.84141">
        <ele>1014.33</ele>
        <time>2014-04-26T08:41:22Z</time>
      </trkpt>
      <trkpt lat="45.68313" lon="5.84147">
        <ele>1016.73</ele>
        <time>2014-04-26T08:41:36Z</time>
      </trkpt>
      <trkpt lat="45.6831" lon="5.84146">
        <ele>1019.13</ele>
        <time>2014-04-26T08:41:49Z</time>
      </trkpt>
      <trkpt lat="45.68309" lon="5.84142">
        <ele>1021.06</ele>
        <time>2014-04-26T08:42:06Z</time>
      </trkpt>
      <trkpt lat="45.68307" lon="5.8414">
        <ele>1029.71</ele>
        <time>2014-04-26T08:42:21Z</time>
      </trkpt>
      <trkpt lat="45.68307" lon="5.8414">
        <ele>1019.62</ele>
        <time>2014-04-26T08:42:22Z</time>
      </trkpt>
      <trkpt lat="45.68306" lon="5.8414">
        <ele>1032.59</ele>
        <time>2014-04-26T08:42:24Z</time>
      </trkpt>
      <trkpt lat="45.68305" lon="5.8414">
        <ele>1020.1</ele>
        <time>2014-04-26T08:42:25Z</time>
      </trkpt>
      <trkpt lat="45.68301" lon="5.8414">
        <ele>1020.58</ele>
        <time>2014-04-26T08:42:39Z</time>
      </trkpt>
      <trkpt lat="45.68303" lon="5.84143">
        <ele>1020.1</ele>
        <time>2014-04-26T08:42:59Z</time>
      </trkpt>
      <trkpt lat="45.68304" lon="5.84145">
        <ele>1020.1</ele>
        <time>2014-04-26T08:43:26Z</time>
      </trkpt>
      <trkpt lat="45.68303" lon="5.84146">
        <ele>1019.62</ele>
        <time>2014-04-26T08:43:48Z</time>
      </trkpt>
      <trkpt lat="45.68301" lon="5.84145">
        <ele>1020.1</ele>
        <time>2014-04-26T08:44:15Z</time>
      </trkpt>
      <trkpt lat="45.68302" lon="5.84145">
        <ele>1020.1</ele>
        <time>2014-04-26T08:44:39Z</time>
      </trkpt>
      <trkpt lat="45.68303" lon="5.84143">
        <ele>1020.1</ele>
        <time>2014-04-26T08:45:08Z</time>
      </trkpt>
      <trkpt lat="45.68302" lon="5.84142">
        <ele>1019.62</ele>
        <time>2014-04-26T08:45:37Z</time>
      </trkpt>
      <trkpt lat="45.68302" lon="5.84142">
        <ele>1019.62</ele>
        <time>2014-04-26T08:46:08Z</time>
      </trkpt>
      <trkpt lat="45.68301" lon="5.84143">
        <ele>1020.1</ele>
        <time>2014-04-26T08:46:33Z</time>
      </trkpt>
      <trkpt lat="45.68302" lon="5.84142">
        <ele>1019.62</ele>
        <time>2014-04-26T08:47:03Z</time>
      </trkpt>
      <trkpt lat="45.68301" lon="5.84142">
        <ele>1019.62</ele>
        <time>2014-04-26T08:47:22Z</time>
      </trkpt>
      <trkpt lat="45.68302" lon="5.84142">
        <ele>1019.62</ele>
        <time>2014-04-26T08:47:45Z</time>
      </trkpt>
      <trkpt lat="45.68302" lon="5.84142">
        <ele>1019.13</ele>
        <time>2014-04-26T08:48:12Z</time>
      </trkpt>
      <trkpt lat="45.68303" lon="5.84141">
        <ele>1019.62</ele>
        <time>2014-04-26T08:48:35Z</time>
      </trkpt>
      <trkpt lat="45.68304" lon="5.84142">
        <ele>1019.62</ele>
        <time>2014-04-26T08:49:00Z</time>
      </trkpt>
      <trkpt lat="45.68304" lon="5.84141">
        <ele>1019.13</ele>
        <time>2014-04-26T08:49:26Z</time>
      </trkpt>
      <trkpt lat="45.68302" lon="5.84131">
        <ele>1019.62</ele>
        <time>2014-04-26T08:49:39Z</time>
      </trkpt>
      <trkpt lat="45.68299" lon="5.8412">
        <ele>1022.5</ele>
        <time>2014-04-26T08:49:52Z</time>
      </trkpt>
      <trkpt lat="45.68297" lon="5.84113">
        <ele>1024.42</ele>
        <time>2014-04-26T08:50:06Z</time>
      </trkpt>
      <trkpt lat="45.68296" lon="5.84099">
        <ele>1026.34</ele>
        <time>2014-04-26T08:50:20Z</time>
      </trkpt>
      <trkpt lat="45.68291" lon="5.84078">
        <ele>1027.31</ele>
        <time>2014-04-26T08:50:36Z</time>
      </trkpt>
      <trkpt lat="45.6829" lon="5.84073">
        <ele>1028.75</ele>
        <time>2014-04-26T08:50:42Z</time>
      </trkpt>
      <trkpt lat="45.68283" lon="5.84065">
        <ele>1032.11</ele>
        <time>2014-04-26T08:50:55Z</time>
      </trkpt>
      <trkpt lat="45.68283" lon="5.84063">
        <ele>1032.59</ele>
        <time>2014-04-26T08:50:56Z</time>
      </trkpt>
      <trkpt lat="45.68274" lon="5.8405">
        <ele>1034.04</ele>
        <time>2014-04-26T08:51:08Z</time>
      </trkpt>
      <trkpt lat="45.68269" lon="5.8404">
        <ele>1037.4</ele>
        <time>2014-04-26T08:51:22Z</time>
      </trkpt>
      <trkpt lat="45.6827" lon="5.8403">
        <ele>1040.76</ele>
        <time>2014-04-26T08:51:35Z</time>
      </trkpt>
      <trkpt lat="45.68273" lon="5.84015">
        <ele>1043.65</ele>
        <time>2014-04-26T08:51:52Z</time>
      </trkpt>
      <trkpt lat="45.68274" lon="5.84005">
        <ele>1047.01</ele>
        <time>2014-04-26T08:52:06Z</time>
      </trkpt>
      <trkpt lat="45.68268" lon="5.83997">
        <ele>1049.42</ele>
        <time>2014-04-26T08:52:19Z</time>
      </trkpt>
      <trkpt lat="45.68259" lon="5.83987">
        <ele>1052.3</ele>
        <time>2014-04-26T08:52:34Z</time>
      </trkpt>
      <trkpt lat="45.68249" lon="5.83979">
        <ele>1054.22</ele>
        <time>2014-04-26T08:52:45Z</time>
      </trkpt>
      <trkpt lat="45.68241" lon="5.83972">
        <ele>1056.15</ele>
        <time>2014-04-26T08:52:57Z</time>
      </trkpt>
      <trkpt lat="45.68228" lon="5.83962">
        <ele>1056.63</ele>
        <time>2014-04-26T08:53:11Z</time>
      </trkpt>
      <trkpt lat="45.68217" lon="5.83951">
        <ele>1057.59</ele>
        <time>2014-04-26T08:53:28Z</time>
      </trkpt>
      <trkpt lat="45.68205" lon="5.83942">
        <ele>1059.99</ele>
        <time>2014-04-26T08:53:42Z</time>
      </trkpt>
      <trkpt lat="45.68197" lon="5.83937">
        <ele>1062.39</ele>
        <time>2014-04-26T08:53:53Z</time>
      </trkpt>
      <trkpt lat="45.68186" lon="5.83929">
        <ele>1063.36</ele>
        <time>2014-04-26T08:54:07Z</time>
      </trkpt>
      <trkpt lat="45.6818" lon="5.83907">
        <ele>1064.8</ele>
        <time>2014-04-26T08:54:23Z</time>
      </trkpt>
      <trkpt lat="45.68173" lon="5.83906">
        <ele>1067.68</ele>
        <time>2014-04-26T08:54:37Z</time>
      </trkpt>
      <trkpt lat="45.6817" lon="5.8391">
        <ele>1070.57</ele>
        <time>2014-04-26T08:54:49Z</time>
      </trkpt>
      <trkpt lat="45.68169" lon="5.83911">
        <ele>1073.93</ele>
        <time>2014-04-26T08:55:01Z</time>
      </trkpt>
      <trkpt lat="45.68167" lon="5.83918">
        <ele>1076.81</ele>
        <time>2014-04-26T08:55:17Z</time>
      </trkpt>
      <trkpt lat="45.68161" lon="5.83921">
        <ele>1078.74</ele>
        <time>2014-04-26T08:55:29Z</time>
      </trkpt>
      <trkpt lat="45.68152" lon="5.83916">
        <ele>1081.62</ele>
        <time>2014-04-26T08:55:42Z</time>
      </trkpt>
      <trkpt lat="45.68146" lon="5.83913">
        <ele>1084.5</ele>
        <time>2014-04-26T08:55:48Z</time>
      </trkpt>
      <trkpt lat="45.68144" lon="5.83911">
        <ele>1079.7</ele>
        <time>2014-04-26T08:55:52Z</time>
      </trkpt>
      <trkpt lat="45.68143" lon="5.8391">
        <ele>1084.02</ele>
        <time>2014-04-26T08:55:53Z</time>
      </trkpt>
      <trkpt lat="45.68141" lon="5.83903">
        <ele>1084.5</ele>
        <time>2014-04-26T08:56:04Z</time>
      </trkpt>
      <trkpt lat="45.68139" lon="5.83887">
        <ele>1084.02</ele>
        <time>2014-04-26T08:56:19Z</time>
      </trkpt>
      <trkpt lat="45.68132" lon="5.8387">
        <ele>1080.66</ele>
        <time>2014-04-26T08:56:35Z</time>
      </trkpt>
      <trkpt lat="45.68119" lon="5.83868">
        <ele>1078.74</ele>
        <time>2014-04-26T08:56:50Z</time>
      </trkpt>
      <trkpt lat="45.68105" lon="5.8388">
        <ele>1075.37</ele>
        <time>2014-04-26T08:57:05Z</time>
      </trkpt>
      <trkpt lat="45.681" lon="5.83883">
        <ele>1074.89</ele>
        <time>2014-04-26T08:57:10Z</time>
      </trkpt>
      <trkpt lat="45.68096" lon="5.83881">
        <ele>1078.26</ele>
        <time>2014-04-26T08:57:13Z</time>
      </trkpt>
      <trkpt lat="45.68089" lon="5.83881">
        <ele>1074.89</ele>
        <time>2014-04-26T08:57:21Z</time>
      </trkpt>
      <trkpt lat="45.68076" lon="5.83882">
        <ele>1072.97</ele>
        <time>2014-04-26T08:57:36Z</time>
      </trkpt>
      <trkpt lat="45.68069" lon="5.83884">
        <ele>1071.05</ele>
        <time>2014-04-26T08:57:48Z</time>
      </trkpt>
      <trkpt lat="45.68061" lon="5.83886">
        <ele>1072.01</ele>
        <time>2014-04-26T08:57:58Z</time>
      </trkpt>
      <trkpt lat="45.68056" lon="5.83887">
        <ele>1073.93</ele>
        <time>2014-04-26T08:58:13Z</time>
      </trkpt>
      <trkpt lat="45.68054" lon="5.83885">
        <ele>1072.97</ele>
        <time>2014-04-26T08:58:31Z</time>
      </trkpt>
      <trkpt lat="45.6805" lon="5.83882">
        <ele>1069.6</ele>
        <time>2014-04-26T08:58:43Z</time>
      </trkpt>
      <trkpt lat="45.68045" lon="5.83877">
        <ele>1068.16</ele>
        <time>2014-04-26T08:58:57Z</time>
      </trkpt>
      <trkpt lat="45.68044" lon="5.83876">
        <ele>1068.16</ele>
        <time>2014-04-26T08:59:20Z</time>
      </trkpt>
      <trkpt lat="45.68043" lon="5.83874">
        <ele>1067.68</ele>
        <time>2014-04-26T08:59:45Z</time>
      </trkpt>
      <trkpt lat="45.68037" lon="5.83868">
        <ele>1068.64</ele>
        <time>2014-04-26T09:00:00Z</time>
      </trkpt>
      <trkpt lat="45.68037" lon="5.83862">
        <ele>1066.72</ele>
        <time>2014-04-26T09:00:15Z</time>
      </trkpt>
      <trkpt lat="45.68038" lon="5.83844">
        <ele>1063.84</ele>
        <time>2014-04-26T09:00:29Z</time>
      </trkpt>
      <trkpt lat="45.68036" lon="5.83841">
        <ele>1061.43</ele>
        <time>2014-04-26T09:00:38Z</time>
      </trkpt>
      <trkpt lat="45.68024" lon="5.8385">
        <ele>1058.55</ele>
        <time>2014-04-26T09:00:53Z</time>
      </trkpt>
      <trkpt lat="45.68021" lon="5.83849">
        <ele>1055.67</ele>
        <time>2014-04-26T09:01:04Z</time>
      </trkpt>
      <trkpt lat="45.68012" lon="5.83852">
        <ele>1053.26</ele>
        <time>2014-04-26T09:01:11Z</time>
      </trkpt>
      <trkpt lat="45.68011" lon="5.83853">
        <ele>1052.3</ele>
        <time>2014-04-26T09:01:14Z</time>
      </trkpt>
      <trkpt lat="45.68004" lon="5.83851">
        <ele>1051.34</ele>
        <time>2014-04-26T09:01:33Z</time>
      </trkpt>
      <trkpt lat="45.67999" lon="5.83852">
        <ele>1052.3</ele>
        <time>2014-04-26T09:01:53Z</time>
      </trkpt>
      <trkpt lat="45.67988" lon="5.83856">
        <ele>1054.7</ele>
        <time>2014-04-26T09:02:09Z</time>
      </trkpt>
      <trkpt lat="45.67987" lon="5.83855">
        <ele>1054.22</ele>
        <time>2014-04-26T09:02:22Z</time>
      </trkpt>
      <trkpt lat="45.67984" lon="5.83855">
        <ele>1054.7</ele>
        <time>2014-04-26T09:02:38Z</time>
      </trkpt>
      <trkpt lat="45.67977" lon="5.83853">
        <ele>1055.67</ele>
        <time>2014-04-26T09:02:57Z</time>
      </trkpt>
      <trkpt lat="45.67976" lon="5.83858">
        <ele>1055.18</ele>
        <time>2014-04-26T09:03:12Z</time>
      </trkpt>
      <trkpt lat="45.67966" lon="5.83856">
        <ele>1057.11</ele>
        <time>2014-04-26T09:03:31Z</time>
      </trkpt>
      <trkpt lat="45.67962" lon="5.83861">
        <ele>1057.11</ele>
        <time>2014-04-26T09:03:35Z</time>
      </trkpt>
      <trkpt lat="45.67955" lon="5.83865">
        <ele>1059.51</ele>
        <time>2014-04-26T09:03:44Z</time>
      </trkpt>
      <trkpt lat="45.67955" lon="5.83867">
        <ele>1062.87</ele>
        <time>2014-04-26T09:03:55Z</time>
      </trkpt>
      <trkpt lat="45.67945" lon="5.8387">
        <ele>1063.84</ele>
        <time>2014-04-26T09:04:08Z</time>
      </trkpt>
      <trkpt lat="45.67937" lon="5.83879">
        <ele>1065.28</ele>
        <time>2014-04-26T09:04:13Z</time>
      </trkpt>
      <trkpt lat="45.67926" lon="5.83896">
        <ele>1067.2</ele>
        <time>2014-04-26T09:04:24Z</time>
      </trkpt>
      <trkpt lat="45.67914" lon="5.83901">
        <ele>1069.6</ele>
        <time>2014-04-26T09:04:36Z</time>
      </trkpt>
      <trkpt lat="45.67911" lon="5.83905">
        <ele>1072.49</ele>
        <time>2014-04-26T09:04:50Z</time>
      </trkpt>
      <trkpt lat="45.6791" lon="5.8391">
        <ele>1074.41</ele>
        <time>2014-04-26T09:05:06Z</time>
      </trkpt>
      <trkpt lat="45.67908" lon="5.83911">
        <ele>1077.78</ele>
        <time>2014-04-26T09:05:21Z</time>
      </trkpt>
      <trkpt lat="45.67899" lon="5.83912">
        <ele>1079.22</ele>
        <time>2014-04-26T09:05:35Z</time>
      </trkpt>
      <trkpt lat="45.67894" lon="5.83912">
        <ele>1082.58</ele>
        <time>2014-04-26T09:05:55Z</time>
      </trkpt>
      <trkpt lat="45.67887" lon="5.83914">
        <ele>1085.47</ele>
        <time>2014-04-26T09:06:11Z</time>
      </trkpt>
      <trkpt lat="45.67888" lon="5.83903">
        <ele>1088.35</ele>
        <time>2014-04-26T09:06:27Z</time>
      </trkpt>
      <trkpt lat="45.67888" lon="5.83896">
        <ele>1091.71</ele>
        <time>2014-04-26T09:06:42Z</time>
      </trkpt>
      <trkpt lat="45.6789" lon="5.83886">
        <ele>1094.12</ele>
        <time>2014-04-26T09:06:58Z</time>
      </trkpt>
      <trkpt lat="45.67893" lon="5.83882">
        <ele>1095.08</ele>
        <time>2014-04-26T09:07:15Z</time>
      </trkpt>
      <trkpt lat="45.67892" lon="5.83879">
        <ele>1096.52</ele>
        <time>2014-04-26T09:07:19Z</time>
      </trkpt>
      <trkpt lat="45.67889" lon="5.83873">
        <ele>1099.4</ele>
        <time>2014-04-26T09:07:37Z</time>
      </trkpt>
      <trkpt lat="45.6789" lon="5.8387">
        <ele>1102.29</ele>
        <time>2014-04-26T09:07:51Z</time>
      </trkpt>
      <trkpt lat="45.6789" lon="5.8386">
        <ele>1104.21</ele>
        <time>2014-04-26T09:08:07Z</time>
      </trkpt>
      <trkpt lat="45.67894" lon="5.83843">
        <ele>1106.61</ele>
        <time>2014-04-26T09:08:20Z</time>
      </trkpt>
      <trkpt lat="45.67898" lon="5.83829">
        <ele>1108.54</ele>
        <time>2014-04-26T09:08:34Z</time>
      </trkpt>
      <trkpt lat="45.67899" lon="5.83821">
        <ele>1110.46</ele>
        <time>2014-04-26T09:08:50Z</time>
      </trkpt>
      <trkpt lat="45.679" lon="5.83815">
        <ele>1112.86</ele>
        <time>2014-04-26T09:09:05Z</time>
      </trkpt>
      <trkpt lat="45.67901" lon="5.83813">
        <ele>1114.79</ele>
        <time>2014-04-26T09:09:17Z</time>
      </trkpt>
      <trkpt lat="45.67898" lon="5.83814">
        <ele>1117.19</ele>
        <time>2014-04-26T09:09:38Z</time>
      </trkpt>
      <trkpt lat="45.67897" lon="5.83815">
        <ele>1120.07</ele>
        <time>2014-04-26T09:09:54Z</time>
      </trkpt>
      <trkpt lat="45.67896" lon="5.8381">
        <ele>1122</ele>
        <time>2014-04-26T09:10:09Z</time>
      </trkpt>
      <trkpt lat="45.67895" lon="5.83808">
        <ele>1123.92</ele>
        <time>2014-04-26T09:10:28Z</time>
      </trkpt>
      <trkpt lat="45.67893" lon="5.83798">
        <ele>1126.32</ele>
        <time>2014-04-26T09:10:44Z</time>
      </trkpt>
      <trkpt lat="45.67893" lon="5.8379">
        <ele>1128.73</ele>
        <time>2014-04-26T09:11:03Z</time>
      </trkpt>
      <trkpt lat="45.67894" lon="5.83787">
        <ele>1130.17</ele>
        <time>2014-04-26T09:11:06Z</time>
      </trkpt>
      <trkpt lat="45.67894" lon="5.83776">
        <ele>1132.09</ele>
        <time>2014-04-26T09:11:22Z</time>
      </trkpt>
      <trkpt lat="45.67896" lon="5.83769">
        <ele>1134.97</ele>
        <time>2014-04-26T09:11:36Z</time>
      </trkpt>
      <trkpt lat="45.67897" lon="5.83757">
        <ele>1137.86</ele>
        <time>2014-04-26T09:11:56Z</time>
      </trkpt>
      <trkpt lat="45.67896" lon="5.83748">
        <ele>1140.74</ele>
        <time>2014-04-26T09:12:13Z</time>
      </trkpt>
      <trkpt lat="45.67897" lon="5.83741">
        <ele>1143.14</ele>
        <time>2014-04-26T09:12:32Z</time>
      </trkpt>
      <trkpt lat="45.67895" lon="5.83738">
        <ele>1145.07</ele>
        <time>2014-04-26T09:12:44Z</time>
      </trkpt>
      <trkpt lat="45.6789" lon="5.8373">
        <ele>1146.99</ele>
        <time>2014-04-26T09:12:55Z</time>
      </trkpt>
      <trkpt lat="45.67888" lon="5.83728">
        <ele>1147.95</ele>
        <time>2014-04-26T09:12:59Z</time>
      </trkpt>
      <trkpt lat="45.6788" lon="5.83726">
        <ele>1149.39</ele>
        <time>2014-04-26T09:13:11Z</time>
      </trkpt>
      <trkpt lat="45.6788" lon="5.83727">
        <ele>1152.76</ele>
        <time>2014-04-26T09:13:20Z</time>
      </trkpt>
      <trkpt lat="45.67881" lon="5.83727">
        <ele>1148.91</ele>
        <time>2014-04-26T09:13:22Z</time>
      </trkpt>
      <trkpt lat="45.67883" lon="5.83726">
        <ele>1149.87</ele>
        <time>2014-04-26T09:13:27Z</time>
      </trkpt>
      <trkpt lat="45.67884" lon="5.83725">
        <ele>1149.39</ele>
        <time>2014-04-26T09:13:42Z</time>
      </trkpt>
      <trkpt lat="45.67884" lon="5.83725">
        <ele>1144.59</ele>
        <time>2014-04-26T09:13:48Z</time>
      </trkpt>
      <trkpt lat="45.67884" lon="5.83725">
        <ele>1152.76</ele>
        <time>2014-04-26T09:13:49Z</time>
      </trkpt>
      <trkpt lat="45.67884" lon="5.83725">
        <ele>1149.39</ele>
        <time>2014-04-26T09:13:51Z</time>
      </trkpt>
      <trkpt lat="45.67885" lon="5.83725">
        <ele>1149.87</ele>
        <time>2014-04-26T09:14:19Z</time>
      </trkpt>
      <trkpt lat="45.67885" lon="5.83724">
        <ele>1149.87</ele>
        <time>2014-04-26T09:14:47Z</time>
      </trkpt>
      <trkpt lat="45.67885" lon="5.83724">
        <ele>1149.87</ele>
        <time>2014-04-26T09:15:07Z</time>
      </trkpt>
      <trkpt lat="45.67886" lon="5.83722">
        <ele>1150.35</ele>
        <time>2014-04-26T09:15:38Z</time>
      </trkpt>
      <trkpt lat="45.67886" lon="5.83722">
        <ele>1150.35</ele>
        <time>2014-04-26T09:15:54Z</time>
      </trkpt>
      <trkpt lat="45.67886" lon="5.83722">
        <ele>1150.35</ele>
        <time>2014-04-26T09:16:23Z</time>
      </trkpt>
      <trkpt lat="45.67876" lon="5.83717">
        <ele>1152.28</ele>
        <time>2014-04-26T09:16:38Z</time>
      </trkpt>
      <trkpt lat="45.67863" lon="5.83715">
        <ele>1153.24</ele>
        <time>2014-04-26T09:16:55Z</time>
      </trkpt>
      <trkpt lat="45.6785" lon="5.83712">
        <ele>1154.68</ele>
        <time>2014-04-26T09:17:11Z</time>
      </trkpt>
      <trkpt lat="45.67841" lon="5.8371">
        <ele>1155.64</ele>
        <time>2014-04-26T09:17:25Z</time>
      </trkpt>
      <trkpt lat="45.67829" lon="5.83706">
        <ele>1153.72</ele>
        <time>2014-04-26T09:17:39Z</time>
      </trkpt>
      <trkpt lat="45.67824" lon="5.83695">
        <ele>1151.8</ele>
        <time>2014-04-26T09:17:55Z</time>
      </trkpt>
      <trkpt lat="45.67821" lon="5.83688">
        <ele>1149.87</ele>
        <time>2014-04-26T09:18:05Z</time>
      </trkpt>
      <trkpt lat="45.67808" lon="5.83675">
        <ele>1150.84</ele>
        <time>2014-04-26T09:18:18Z</time>
      </trkpt>
      <trkpt lat="45.67802" lon="5.8367">
        <ele>1154.2</ele>
        <time>2014-04-26T09:18:36Z</time>
      </trkpt>
      <trkpt lat="45.67786" lon="5.83656">
        <ele>1157.08</ele>
        <time>2014-04-26T09:18:51Z</time>
      </trkpt>
      <trkpt lat="45.67785" lon="5.83631">
        <ele>1156.12</ele>
        <time>2014-04-26T09:19:09Z</time>
      </trkpt>
      <trkpt lat="45.67785" lon="5.83623">
        <ele>1157.56</ele>
        <time>2014-04-26T09:19:22Z</time>
      </trkpt>
      <trkpt lat="45.67782" lon="5.83617">
        <ele>1160.93</ele>
        <time>2014-04-26T09:19:37Z</time>
      </trkpt>
      <trkpt lat="45.67776" lon="5.83609">
        <ele>1163.81</ele>
        <time>2014-04-26T09:19:53Z</time>
      </trkpt>
      <trkpt lat="45.6777" lon="5.83604">
        <ele>1166.22</ele>
        <time>2014-04-26T09:20:09Z</time>
      </trkpt>
      <trkpt lat="45.67762" lon="5.83597">
        <ele>1169.1</ele>
        <time>2014-04-26T09:20:25Z</time>
      </trkpt>
      <trkpt lat="45.67758" lon="5.83592">
        <ele>1172.47</ele>
        <time>2014-04-26T09:20:40Z</time>
      </trkpt>
      <trkpt lat="45.67747" lon="5.83583">
        <ele>1175.35</ele>
        <time>2014-04-26T09:20:55Z</time>
      </trkpt>
      <trkpt lat="45.67739" lon="5.83576">
        <ele>1178.71</ele>
        <time>2014-04-26T09:21:10Z</time>
      </trkpt>
      <trkpt lat="45.67728" lon="5.83566">
        <ele>1179.19</ele>
        <time>2014-04-26T09:21:25Z</time>
      </trkpt>
      <trkpt lat="45.67714" lon="5.83552">
        <ele>1180.64</ele>
        <time>2014-04-26T09:21:41Z</time>
      </trkpt>
      <trkpt lat="45.67699" lon="5.83544">
        <ele>1180.16</ele>
        <time>2014-04-26T09:21:57Z</time>
      </trkpt>
      <trkpt lat="45.67686" lon="5.83536">
        <ele>1179.19</ele>
        <time>2014-04-26T09:22:13Z</time>
      </trkpt>
      <trkpt lat="45.67677" lon="5.83529">
        <ele>1182.56</ele>
        <time>2014-04-26T09:22:30Z</time>
      </trkpt>
      <trkpt lat="45.67672" lon="5.83527">
        <ele>1185.44</ele>
        <time>2014-04-26T09:22:42Z</time>
      </trkpt>
      <trkpt lat="45.67663" lon="5.83521">
        <ele>1188.33</ele>
        <time>2014-04-26T09:22:55Z</time>
      </trkpt>
      <trkpt lat="45.67655" lon="5.83516">
        <ele>1190.73</ele>
        <time>2014-04-26T09:23:11Z</time>
      </trkpt>
      <trkpt lat="45.67652" lon="5.83511">
        <ele>1193.13</ele>
        <time>2014-04-26T09:23:26Z</time>
      </trkpt>
      <trkpt lat="45.6765" lon="5.83509">
        <ele>1196.5</ele>
        <time>2014-04-26T09:23:41Z</time>
      </trkpt>
      <trkpt lat="45.67647" lon="5.83499">
        <ele>1199.38</ele>
        <time>2014-04-26T09:23:53Z</time>
      </trkpt>
      <trkpt lat="45.67646" lon="5.83497">
        <ele>1202.27</ele>
        <time>2014-04-26T09:24:09Z</time>
      </trkpt>
      <trkpt lat="45.67645" lon="5.83487">
        <ele>1205.15</ele>
        <time>2014-04-26T09:24:23Z</time>
      </trkpt>
      <trkpt lat="45.67643" lon="5.83482">
        <ele>1208.03</ele>
        <time>2014-04-26T09:24:36Z</time>
      </trkpt>
      <trkpt lat="45.6764" lon="5.83471">
        <ele>1210.92</ele>
        <time>2014-04-26T09:24:51Z</time>
      </trkpt>
      <trkpt lat="45.67635" lon="5.8346">
        <ele>1213.8</ele>
        <time>2014-04-26T09:25:05Z</time>
      </trkpt>
      <trkpt lat="45.67633" lon="5.83452">
        <ele>1216.69</ele>
        <time>2014-04-26T09:25:20Z</time>
      </trkpt>
      <trkpt lat="45.67629" lon="5.83445">
        <ele>1220.05</ele>
        <time>2014-04-26T09:25:34Z</time>
      </trkpt>
      <trkpt lat="45.67626" lon="5.83431">
        <ele>1222.45</ele>
        <time>2014-04-26T09:25:48Z</time>
      </trkpt>
      <trkpt lat="45.67624" lon="5.83427">
        <ele>1225.34</ele>
        <time>2014-04-26T09:26:01Z</time>
      </trkpt>
      <trkpt lat="45.67618" lon="5.83425">
        <ele>1228.22</ele>
        <time>2014-04-26T09:26:15Z</time>
      </trkpt>
      <trkpt lat="45.67612" lon="5.83418">
        <ele>1231.11</ele>
        <time>2014-04-26T09:26:29Z</time>
      </trkpt>
      <trkpt lat="45.67609" lon="5.83411">
        <ele>1234.47</ele>
        <time>2014-04-26T09:26:44Z</time>
      </trkpt>
      <trkpt lat="45.67603" lon="5.83409">
        <ele>1237.35</ele>
        <time>2014-04-26T09:26:59Z</time>
      </trkpt>
      <trkpt lat="45.67599" lon="5.83394">
        <ele>1240.24</ele>
        <time>2014-04-26T09:27:15Z</time>
      </trkpt>
      <trkpt lat="45.67597" lon="5.83393">
        <ele>1242.64</ele>
        <time>2014-04-26T09:27:31Z</time>
      </trkpt>
      <trkpt lat="45.67598" lon="5.83387">
        <ele>1246.01</ele>
        <time>2014-04-26T09:27:45Z</time>
      </trkpt>
      <trkpt lat="45.67599" lon="5.83383">
        <ele>1247.93</ele>
        <time>2014-04-26T09:28:00Z</time>
      </trkpt>
      <trkpt lat="45.67594" lon="5.83381">
        <ele>1249.85</ele>
        <time>2014-04-26T09:28:16Z</time>
      </trkpt>
      <trkpt lat="45.67592" lon="5.83375">
        <ele>1251.29</ele>
        <time>2014-04-26T09:28:36Z</time>
      </trkpt>
      <trkpt lat="45.67589" lon="5.8337">
        <ele>1251.77</ele>
        <time>2014-04-26T09:28:49Z</time>
      </trkpt>
      <trkpt lat="45.67589" lon="5.83369">
        <ele>1252.25</ele>
        <time>2014-04-26T09:29:11Z</time>
      </trkpt>
      <trkpt lat="45.67587" lon="5.83369">
        <ele>1252.25</ele>
        <time>2014-04-26T09:29:32Z</time>
      </trkpt>
      <trkpt lat="45.67587" lon="5.83369">
        <ele>1251.77</ele>
        <time>2014-04-26T09:29:52Z</time>
      </trkpt>
      <trkpt lat="45.67587" lon="5.83369">
        <ele>1251.77</ele>
        <time>2014-04-26T09:30:21Z</time>
      </trkpt>
      <trkpt lat="45.67587" lon="5.83369">
        <ele>1252.25</ele>
        <time>2014-04-26T09:30:44Z</time>
      </trkpt>
      <trkpt lat="45.67587" lon="5.83368">
        <ele>1252.25</ele>
        <time>2014-04-26T09:31:10Z</time>
      </trkpt>
      <trkpt lat="45.67586" lon="5.83367">
        <ele>1251.29</ele>
        <time>2014-04-26T09:31:39Z</time>
      </trkpt>
      <trkpt lat="45.67583" lon="5.83367">
        <ele>1250.81</ele>
        <time>2014-04-26T09:31:52Z</time>
      </trkpt>
      <trkpt lat="45.67574" lon="5.83364">
        <ele>1249.37</ele>
        <time>2014-04-26T09:32:05Z</time>
      </trkpt>
      <trkpt lat="45.67569" lon="5.83359">
        <ele>1249.37</ele>
        <time>2014-04-26T09:32:20Z</time>
      </trkpt>
      <trkpt lat="45.67562" lon="5.83353">
        <ele>1250.81</ele>
        <time>2014-04-26T09:32:39Z</time>
      </trkpt>
      <trkpt lat="45.67553" lon="5.83344">
        <ele>1254.66</ele>
        <time>2014-04-26T09:32:50Z</time>
      </trkpt>
      <trkpt lat="45.67552" lon="5.83336">
        <ele>1257.06</ele>
        <time>2014-04-26T09:33:02Z</time>
      </trkpt>
      <trkpt lat="45.67544" lon="5.83329">
        <ele>1259.94</ele>
        <time>2014-04-26T09:33:24Z</time>
      </trkpt>
      <trkpt lat="45.67546" lon="5.83313">
        <ele>1262.83</ele>
        <time>2014-04-26T09:33:39Z</time>
      </trkpt>
      <trkpt lat="45.67546" lon="5.83305">
        <ele>1266.19</ele>
        <time>2014-04-26T09:33:53Z</time>
      </trkpt>
      <trkpt lat="45.67541" lon="5.83307">
        <ele>1269.08</ele>
        <time>2014-04-26T09:34:07Z</time>
      </trkpt>
      <trkpt lat="45.67538" lon="5.83303">
        <ele>1272.92</ele>
        <time>2014-04-26T09:34:21Z</time>
      </trkpt>
      <trkpt lat="45.67533" lon="5.83303">
        <ele>1275.33</ele>
        <time>2014-04-26T09:34:36Z</time>
      </trkpt>
      <trkpt lat="45.67532" lon="5.83304">
        <ele>1276.29</ele>
        <time>2014-04-26T09:34:54Z</time>
      </trkpt>
      <trkpt lat="45.67528" lon="5.83303">
        <ele>1274.85</ele>
        <time>2014-04-26T09:35:17Z</time>
      </trkpt>
      <trkpt lat="45.67528" lon="5.83297">
        <ele>1272.44</ele>
        <time>2014-04-26T09:35:26Z</time>
      </trkpt>
      <trkpt lat="45.67529" lon="5.8329">
        <ele>1271.96</ele>
        <time>2014-04-26T09:35:30Z</time>
      </trkpt>
      <trkpt lat="45.67515" lon="5.83292">
        <ele>1271.96</ele>
        <time>2014-04-26T09:35:42Z</time>
      </trkpt>
      <trkpt lat="45.67503" lon="5.83288">
        <ele>1272.44</ele>
        <time>2014-04-26T09:35:55Z</time>
      </trkpt>
      <trkpt lat="45.67504" lon="5.83288">
        <ele>1273.4</ele>
        <time>2014-04-26T09:36:04Z</time>
      </trkpt>
      <trkpt lat="45.67505" lon="5.83286">
        <ele>1273.88</ele>
        <time>2014-04-26T09:36:06Z</time>
      </trkpt>
      <trkpt lat="45.67496" lon="5.83273">
        <ele>1274.85</ele>
        <time>2014-04-26T09:36:24Z</time>
      </trkpt>
      <trkpt lat="45.67493" lon="5.83262">
        <ele>1277.25</ele>
        <time>2014-04-26T09:36:39Z</time>
      </trkpt>
      <trkpt lat="45.6749" lon="5.83254">
        <ele>1279.17</ele>
        <time>2014-04-26T09:36:52Z</time>
      </trkpt>
      <trkpt lat="45.67492" lon="5.83248">
        <ele>1280.61</ele>
        <time>2014-04-26T09:37:14Z</time>
      </trkpt>
      <trkpt lat="45.67495" lon="5.83226">
        <ele>1283.5</ele>
        <time>2014-04-26T09:37:29Z</time>
      </trkpt>
      <trkpt lat="45.67488" lon="5.83217">
        <ele>1286.38</ele>
        <time>2014-04-26T09:37:45Z</time>
      </trkpt>
      <trkpt lat="45.67487" lon="5.83211">
        <ele>1287.82</ele>
        <time>2014-04-26T09:37:59Z</time>
      </trkpt>
      <trkpt lat="45.67484" lon="5.8321">
        <ele>1288.78</ele>
        <time>2014-04-26T09:38:18Z</time>
      </trkpt>
      <trkpt lat="45.67484" lon="5.8321">
        <ele>1288.78</ele>
        <time>2014-04-26T09:38:34Z</time>
      </trkpt>
      <trkpt lat="45.67477" lon="5.83218">
        <ele>1291.67</ele>
        <time>2014-04-26T09:38:50Z</time>
      </trkpt>
      <trkpt lat="45.67466" lon="5.83222">
        <ele>1292.63</ele>
        <time>2014-04-26T09:39:05Z</time>
      </trkpt>
      <trkpt lat="45.67454" lon="5.83223">
        <ele>1293.11</ele>
        <time>2014-04-26T09:39:24Z</time>
      </trkpt>
      <trkpt lat="45.67444" lon="5.83224">
        <ele>1289.75</ele>
        <time>2014-04-26T09:39:38Z</time>
      </trkpt>
      <trkpt lat="45.67441" lon="5.83224">
        <ele>1289.75</ele>
        <time>2014-04-26T09:39:40Z</time>
      </trkpt>
      <trkpt lat="45.67431" lon="5.83231">
        <ele>1291.19</ele>
        <time>2014-04-26T09:39:54Z</time>
      </trkpt>
      <trkpt lat="45.6743" lon="5.83231">
        <ele>1291.19</ele>
        <time>2014-04-26T09:39:57Z</time>
      </trkpt>
      <trkpt lat="45.67415" lon="5.83226">
        <ele>1289.27</ele>
        <time>2014-04-26T09:40:14Z</time>
      </trkpt>
      <trkpt lat="45.67404" lon="5.83226">
        <ele>1290.23</ele>
        <time>2014-04-26T09:40:28Z</time>
      </trkpt>
      <trkpt lat="45.67393" lon="5.83226">
        <ele>1291.19</ele>
        <time>2014-04-26T09:40:43Z</time>
      </trkpt>
      <trkpt lat="45.67384" lon="5.8323">
        <ele>1294.07</ele>
        <time>2014-04-26T09:41:00Z</time>
      </trkpt>
      <trkpt lat="45.67382" lon="5.83237">
        <ele>1297.44</ele>
        <time>2014-04-26T09:41:15Z</time>
      </trkpt>
      <trkpt lat="45.67381" lon="5.83244">
        <ele>1300.8</ele>
        <time>2014-04-26T09:41:28Z</time>
      </trkpt>
      <trkpt lat="45.67381" lon="5.83249">
        <ele>1302.24</ele>
        <time>2014-04-26T09:41:43Z</time>
      </trkpt>
      <trkpt lat="45.67386" lon="5.83258">
        <ele>1302.24</ele>
        <time>2014-04-26T09:41:56Z</time>
      </trkpt>
      <trkpt lat="45.67395" lon="5.83266">
        <ele>1303.69</ele>
        <time>2014-04-26T09:42:08Z</time>
      </trkpt>
      <trkpt lat="45.67399" lon="5.83275">
        <ele>1303.2</ele>
        <time>2014-04-26T09:42:20Z</time>
      </trkpt>
      <trkpt lat="45.67403" lon="5.8328">
        <ele>1304.65</ele>
        <time>2014-04-26T09:42:33Z</time>
      </trkpt>
      <trkpt lat="45.67409" lon="5.83286">
        <ele>1307.05</ele>
        <time>2014-04-26T09:42:47Z</time>
      </trkpt>
      <trkpt lat="45.67416" lon="5.83302">
        <ele>1308.49</ele>
        <time>2014-04-26T09:43:02Z</time>
      </trkpt>
      <trkpt lat="45.67421" lon="5.8331">
        <ele>1311.38</ele>
        <time>2014-04-26T09:43:17Z</time>
      </trkpt>
      <trkpt lat="45.67425" lon="5.83316">
        <ele>1313.78</ele>
        <time>2014-04-26T09:43:29Z</time>
      </trkpt>
      <trkpt lat="45.67434" lon="5.83326">
        <ele>1313.3</ele>
        <time>2014-04-26T09:43:44Z</time>
      </trkpt>
      <trkpt lat="45.67441" lon="5.83327">
        <ele>1315.22</ele>
        <time>2014-04-26T09:43:58Z</time>
      </trkpt>
      <trkpt lat="45.67446" lon="5.83329">
        <ele>1318.1</ele>
        <time>2014-04-26T09:44:13Z</time>
      </trkpt>
      <trkpt lat="45.67448" lon="5.83329">
        <ele>1320.51</ele>
        <time>2014-04-26T09:44:27Z</time>
      </trkpt>
      <trkpt lat="45.67458" lon="5.83333">
        <ele>1323.39</ele>
        <time>2014-04-26T09:44:42Z</time>
      </trkpt>
      <trkpt lat="45.67464" lon="5.83339">
        <ele>1324.83</ele>
        <time>2014-04-26T09:44:55Z</time>
      </trkpt>
      <trkpt lat="45.67467" lon="5.83343">
        <ele>1325.31</ele>
        <time>2014-04-26T09:45:17Z</time>
      </trkpt>
      <trkpt lat="45.67471" lon="5.83346">
        <ele>1327.72</ele>
        <time>2014-04-26T09:45:31Z</time>
      </trkpt>
      <trkpt lat="45.67472" lon="5.83348">
        <ele>1328.2</ele>
        <time>2014-04-26T09:45:47Z</time>
      </trkpt>
      <trkpt lat="45.67472" lon="5.83349">
        <ele>1330.6</ele>
        <time>2014-04-26T09:46:06Z</time>
      </trkpt>
      <trkpt lat="45.67474" lon="5.8335">
        <ele>1330.6</ele>
        <time>2014-04-26T09:46:30Z</time>
      </trkpt>
      <trkpt lat="45.67475" lon="5.83356">
        <ele>1330.6</ele>
        <time>2014-04-26T09:47:02Z</time>
      </trkpt>
      <trkpt lat="45.67475" lon="5.83358">
        <ele>1330.6</ele>
        <time>2014-04-26T09:47:30Z</time>
      </trkpt>
      <trkpt lat="45.67477" lon="5.83359">
        <ele>1333.01</ele>
        <time>2014-04-26T09:47:46Z</time>
      </trkpt>
      <trkpt lat="45.67478" lon="5.8336">
        <ele>1336.37</ele>
        <time>2014-04-26T09:48:01Z</time>
      </trkpt>
      <trkpt lat="45.67481" lon="5.83362">
        <ele>1339.25</ele>
        <time>2014-04-26T09:48:17Z</time>
      </trkpt>
      <trkpt lat="45.67482" lon="5.83362">
        <ele>1342.62</ele>
        <time>2014-04-26T09:48:33Z</time>
      </trkpt>
      <trkpt lat="45.67485" lon="5.83363">
        <ele>1345.02</ele>
        <time>2014-04-26T09:48:51Z</time>
      </trkpt>
      <trkpt lat="45.67485" lon="5.8336">
        <ele>1347.43</ele>
        <time>2014-04-26T09:49:05Z</time>
      </trkpt>
      <trkpt lat="45.6749" lon="5.83363">
        <ele>1350.31</ele>
        <time>2014-04-26T09:49:23Z</time>
      </trkpt>
      <trkpt lat="45.67495" lon="5.83367">
        <ele>1350.79</ele>
        <time>2014-04-26T09:49:35Z</time>
      </trkpt>
      <trkpt lat="45.67496" lon="5.83365">
        <ele>1350.31</ele>
        <time>2014-04-26T09:50:00Z</time>
      </trkpt>
      <trkpt lat="45.67496" lon="5.83363">
        <ele>1351.75</ele>
        <time>2014-04-26T09:50:16Z</time>
      </trkpt>
      <trkpt lat="45.67495" lon="5.83361">
        <ele>1353.19</ele>
        <time>2014-04-26T09:50:31Z</time>
      </trkpt>
      <trkpt lat="45.67493" lon="5.83357">
        <ele>1354.63</ele>
        <time>2014-04-26T09:50:43Z</time>
      </trkpt>
      <trkpt lat="45.6749" lon="5.83353">
        <ele>1356.08</ele>
        <time>2014-04-26T09:51:00Z</time>
      </trkpt>
      <trkpt lat="45.67488" lon="5.8334">
        <ele>1358</ele>
        <time>2014-04-26T09:51:13Z</time>
      </trkpt>
      <trkpt lat="45.67488" lon="5.83333">
        <ele>1361.36</ele>
        <time>2014-04-26T09:51:24Z</time>
      </trkpt>
      <trkpt lat="45.67487" lon="5.83326">
        <ele>1363.77</ele>
        <time>2014-04-26T09:51:35Z</time>
      </trkpt>
      <trkpt lat="45.67486" lon="5.83317">
        <ele>1365.69</ele>
        <time>2014-04-26T09:51:49Z</time>
      </trkpt>
      <trkpt lat="45.67485" lon="5.83313">
        <ele>1367.61</ele>
        <time>2014-04-26T09:52:04Z</time>
      </trkpt>
      <trkpt lat="45.67487" lon="5.83312">
        <ele>1370.02</ele>
        <time>2014-04-26T09:52:19Z</time>
      </trkpt>
      <trkpt lat="45.6749" lon="5.83313">
        <ele>1371.46</ele>
        <time>2014-04-26T09:52:33Z</time>
      </trkpt>
      <trkpt lat="45.67495" lon="5.83317">
        <ele>1374.82</ele>
        <time>2014-04-26T09:52:47Z</time>
      </trkpt>
      <trkpt lat="45.67494" lon="5.83317">
        <ele>1375.3</ele>
        <time>2014-04-26T09:52:59Z</time>
      </trkpt>
      <trkpt lat="45.67496" lon="5.83323">
        <ele>1378.19</ele>
        <time>2014-04-26T09:53:14Z</time>
      </trkpt>
      <trkpt lat="45.67499" lon="5.83327">
        <ele>1380.59</ele>
        <time>2014-04-26T09:53:24Z</time>
      </trkpt>
      <trkpt lat="45.67502" lon="5.83334">
        <ele>1379.15</ele>
        <time>2014-04-26T09:53:38Z</time>
      </trkpt>
      <trkpt lat="45.67503" lon="5.83335">
        <ele>1378.67</ele>
        <time>2014-04-26T09:53:52Z</time>
      </trkpt>
      <trkpt lat="45.67504" lon="5.83335">
        <ele>1378.67</ele>
        <time>2014-04-26T09:54:05Z</time>
      </trkpt>
      <trkpt lat="45.67504" lon="5.83335">
        <ele>1378.67</ele>
        <time>2014-04-26T09:54:22Z</time>
      </trkpt>
      <trkpt lat="45.67504" lon="5.83335">
        <ele>1379.15</ele>
        <time>2014-04-26T09:55:02Z</time>
      </trkpt>
      <trkpt lat="45.67504" lon="5.83335">
        <ele>1379.15</ele>
        <time>2014-04-26T09:55:34Z</time>
      </trkpt>
      <trkpt lat="45.67504" lon="5.83335">
        <ele>1378.19</ele>
        <time>2014-04-26T09:55:48Z</time>
      </trkpt>
      <trkpt lat="45.67505" lon="5.83335">
        <ele>1378.67</ele>
        <time>2014-04-26T09:56:22Z</time>
      </trkpt>
      <trkpt lat="45.67505" lon="5.83335">
        <ele>1379.15</ele>
        <time>2014-04-26T09:56:56Z</time>
      </trkpt>
      <trkpt lat="45.67505" lon="5.83334">
        <ele>1379.63</ele>
        <time>2014-04-26T09:57:28Z</time>
      </trkpt>
      <trkpt lat="45.67505" lon="5.83334">
        <ele>1379.15</ele>
        <time>2014-04-26T09:58:00Z</time>
      </trkpt>
      <trkpt lat="45.67505" lon="5.83333">
        <ele>1379.63</ele>
        <time>2014-04-26T09:58:33Z</time>
      </trkpt>
      <trkpt lat="45.67505" lon="5.83333">
        <ele>1380.11</ele>
        <time>2014-04-26T09:59:05Z</time>
      </trkpt>
      <trkpt lat="45.67505" lon="5.83333">
        <ele>1380.11</ele>
        <time>2014-04-26T09:59:33Z</time>
      </trkpt>
      <trkpt lat="45.67505" lon="5.83333">
        <ele>1380.11</ele>
        <time>2014-04-26T10:00:05Z</time>
      </trkpt>
      <trkpt lat="45.67505" lon="5.83334">
        <ele>1380.11</ele>
        <time>2014-04-26T10:00:33Z</time>
      </trkpt>
      <trkpt lat="45.67506" lon="5.83333">
        <ele>1380.11</ele>
        <time>2014-04-26T10:01:05Z</time>
      </trkpt>
      <trkpt lat="45.67505" lon="5.83334">
        <ele>1380.11</ele>
        <time>2014-04-26T10:01:37Z</time>
      </trkpt>
      <trkpt lat="45.67505" lon="5.83333">
        <ele>1381.07</ele>
        <time>2014-04-26T10:02:12Z</time>
      </trkpt>
      <trkpt lat="45.67505" lon="5.83333">
        <ele>1380.59</ele>
        <time>2014-04-26T10:02:44Z</time>
      </trkpt>
      <trkpt lat="45.67505" lon="5.83333">
        <ele>1380.59</ele>
        <time>2014-04-26T10:03:14Z</time>
      </trkpt>
      <trkpt lat="45.67506" lon="5.83333">
        <ele>1381.07</ele>
        <time>2014-04-26T10:03:48Z</time>
      </trkpt>
      <trkpt lat="45.67505" lon="5.83333">
        <ele>1381.07</ele>
        <time>2014-04-26T10:04:20Z</time>
      </trkpt>
      <trkpt lat="45.67505" lon="5.83333">
        <ele>1381.07</ele>
        <time>2014-04-26T10:04:55Z</time>
      </trkpt>
      <trkpt lat="45.67505" lon="5.83333">
        <ele>1380.59</ele>
        <time>2014-04-26T10:05:30Z</time>
      </trkpt>
      <trkpt lat="45.67505" lon="5.83334">
        <ele>1381.07</ele>
        <time>2014-04-26T10:06:02Z</time>
      </trkpt>
      <trkpt lat="45.67505" lon="5.83333">
        <ele>1380.11</ele>
        <time>2014-04-26T10:06:37Z</time>
      </trkpt>
      <trkpt lat="45.67505" lon="5.83333">
        <ele>1380.59</ele>
        <time>2014-04-26T10:07:10Z</time>
      </trkpt>
      <trkpt lat="45.67505" lon="5.83333">
        <ele>1380.11</ele>
        <time>2014-04-26T10:07:41Z</time>
      </trkpt>
      <trkpt lat="45.67505" lon="5.83333">
        <ele>1380.59</ele>
        <time>2014-04-26T10:08:12Z</time>
      </trkpt>
      <trkpt lat="45.67505" lon="5.83333">
        <ele>1380.11</ele>
        <time>2014-04-26T10:08:45Z</time>
      </trkpt>
      <trkpt lat="45.67505" lon="5.83333">
        <ele>1380.59</ele>
        <time>2014-04-26T10:09:19Z</time>
      </trkpt>
      <trkpt lat="45.67505" lon="5.83333">
        <ele>1380.11</ele>
        <time>2014-04-26T10:09:49Z</time>
      </trkpt>
      <trkpt lat="45.67505" lon="5.83333">
        <ele>1380.59</ele>
        <time>2014-04-26T10:10:25Z</time>
      </trkpt>
      <trkpt lat="45.67505" lon="5.83333">
        <ele>1380.59</ele>
        <time>2014-04-26T10:10:54Z</time>
      </trkpt>
      <trkpt lat="45.67505" lon="5.83333">
        <ele>1380.11</ele>
        <time>2014-04-26T10:11:28Z</time>
      </trkpt>
      <trkpt lat="45.67505" lon="5.83334">
        <ele>1380.11</ele>
        <time>2014-04-26T10:12:03Z</time>
      </trkpt>
      <trkpt lat="45.67505" lon="5.83334">
        <ele>1380.59</ele>
        <time>2014-04-26T10:12:33Z</time>
      </trkpt>
      <trkpt lat="45.67505" lon="5.83334">
        <ele>1380.59</ele>
        <time>2014-04-26T10:13:05Z</time>
      </trkpt>
      <trkpt lat="45.67505" lon="5.83333">
        <ele>1381.07</ele>
        <time>2014-04-26T10:13:31Z</time>
      </trkpt>
      <trkpt lat="45.67505" lon="5.83333">
        <ele>1381.07</ele>
        <time>2014-04-26T10:14:03Z</time>
      </trkpt>
      <trkpt lat="45.67505" lon="5.83334">
        <ele>1381.07</ele>
        <time>2014-04-26T10:14:34Z</time>
      </trkpt>
      <trkpt lat="45.67505" lon="5.83334">
        <ele>1381.55</ele>
        <time>2014-04-26T10:15:08Z</time>
      </trkpt>
      <trkpt lat="45.67505" lon="5.83334">
        <ele>1381.55</ele>
        <time>2014-04-26T10:15:43Z</time>
      </trkpt>
      <trkpt lat="45.67505" lon="5.83334">
        <ele>1381.07</ele>
        <time>2014-04-26T10:16:15Z</time>
      </trkpt>
      <trkpt lat="45.67505" lon="5.83334">
        <ele>1381.07</ele>
        <time>2014-04-26T10:16:46Z</time>
      </trkpt>
      <trkpt lat="45.67505" lon="5.83334">
        <ele>1381.07</ele>
        <time>2014-04-26T10:17:22Z</time>
      </trkpt>
      <trkpt lat="45.67505" lon="5.83334">
        <ele>1381.07</ele>
        <time>2014-04-26T10:17:55Z</time>
      </trkpt>
      <trkpt lat="45.67505" lon="5.83334">
        <ele>1379.63</ele>
        <time>2014-04-26T10:18:04Z</time>
      </trkpt>
      <trkpt lat="45.67505" lon="5.83334">
        <ele>1381.55</ele>
        <time>2014-04-26T10:18:06Z</time>
      </trkpt>
      <trkpt lat="45.67505" lon="5.83334">
        <ele>1372.9</ele>
        <time>2014-04-26T10:18:07Z</time>
      </trkpt>
      <trkpt lat="45.67505" lon="5.83334">
        <ele>1383.47</ele>
        <time>2014-04-26T10:18:08Z</time>
      </trkpt>
      <trkpt lat="45.67505" lon="5.83334">
        <ele>1380.59</ele>
        <time>2014-04-26T10:18:22Z</time>
      </trkpt>
      <trkpt lat="45.67505" lon="5.83333">
        <ele>1381.55</ele>
        <time>2014-04-26T10:18:53Z</time>
      </trkpt>
      <trkpt lat="45.67505" lon="5.83333">
        <ele>1382.99</ele>
        <time>2014-04-26T10:19:14Z</time>
      </trkpt>
      <trkpt lat="45.67505" lon="5.83333">
        <ele>1382.51</ele>
        <time>2014-04-26T10:19:36Z</time>
      </trkpt>
      <trkpt lat="45.67505" lon="5.83333">
        <ele>1381.07</ele>
        <time>2014-04-26T10:19:43Z</time>
      </trkpt>
      <trkpt lat="45.67505" lon="5.83334">
        <ele>1381.07</ele>
        <time>2014-04-26T10:20:05Z</time>
      </trkpt>
      <trkpt lat="45.67505" lon="5.83334">
        <ele>1382.03</ele>
        <time>2014-04-26T10:20:37Z</time>
      </trkpt>
      <trkpt lat="45.67505" lon="5.83334">
        <ele>1381.55</ele>
        <time>2014-04-26T10:21:09Z</time>
      </trkpt>
      <trkpt lat="45.67505" lon="5.83334">
        <ele>1382.03</ele>
        <time>2014-04-26T10:21:40Z</time>
      </trkpt>
      <trkpt lat="45.67505" lon="5.83333">
        <ele>1382.03</ele>
        <time>2014-04-26T10:22:10Z</time>
      </trkpt>
      <trkpt lat="45.67505" lon="5.83333">
        <ele>1382.51</ele>
        <time>2014-04-26T10:22:40Z</time>
      </trkpt>
      <trkpt lat="45.67504" lon="5.83333">
        <ele>1382.03</ele>
        <time>2014-04-26T10:23:12Z</time>
      </trkpt>
      <trkpt lat="45.67504" lon="5.83333">
        <ele>1382.03</ele>
        <time>2014-04-26T10:23:44Z</time>
      </trkpt>
      <trkpt lat="45.67504" lon="5.83333">
        <ele>1382.03</ele>
        <time>2014-04-26T10:24:17Z</time>
      </trkpt>
      <trkpt lat="45.67504" lon="5.83333">
        <ele>1382.51</ele>
        <time>2014-04-26T10:24:47Z</time>
      </trkpt>
      <trkpt lat="45.67504" lon="5.83333">
        <ele>1382.51</ele>
        <time>2014-04-26T10:25:28Z</time>
      </trkpt>
      <trkpt lat="45.67504" lon="5.83333">
        <ele>1382.99</ele>
        <time>2014-04-26T10:26:03Z</time>
      </trkpt>
      <trkpt lat="45.67504" lon="5.83333">
        <ele>1382.99</ele>
        <time>2014-04-26T10:26:37Z</time>
      </trkpt>
      <trkpt lat="45.67504" lon="5.83333">
        <ele>1382.99</ele>
        <time>2014-04-26T10:27:12Z</time>
      </trkpt>
      <trkpt lat="45.67504" lon="5.83333">
        <ele>1383.47</ele>
        <time>2014-04-26T10:27:44Z</time>
      </trkpt>
      <trkpt lat="45.67504" lon="5.83333">
        <ele>1382.99</ele>
        <time>2014-04-26T10:28:11Z</time>
      </trkpt>
      <trkpt lat="45.67504" lon="5.83334">
        <ele>1383.47</ele>
        <time>2014-04-26T10:28:41Z</time>
      </trkpt>
      <trkpt lat="45.67504" lon="5.83334">
        <ele>1384.44</ele>
        <time>2014-04-26T10:28:49Z</time>
      </trkpt>
      <trkpt lat="45.67504" lon="5.83334">
        <ele>1382.99</ele>
        <time>2014-04-26T10:29:05Z</time>
      </trkpt>
      <trkpt lat="45.67504" lon="5.83334">
        <ele>1383.47</ele>
        <time>2014-04-26T10:29:33Z</time>
      </trkpt>
      <trkpt lat="45.67504" lon="5.83333">
        <ele>1382.51</ele>
        <time>2014-04-26T10:30:07Z</time>
      </trkpt>
      <trkpt lat="45.67504" lon="5.83333">
        <ele>1382.99</ele>
        <time>2014-04-26T10:30:34Z</time>
      </trkpt>
      <trkpt lat="45.67504" lon="5.83333">
        <ele>1382.99</ele>
        <time>2014-04-26T10:31:04Z</time>
      </trkpt>
      <trkpt lat="45.67504" lon="5.83333">
        <ele>1382.99</ele>
        <time>2014-04-26T10:31:34Z</time>
      </trkpt>
      <trkpt lat="45.67504" lon="5.83333">
        <ele>1383.96</ele>
        <time>2014-04-26T10:31:36Z</time>
      </trkpt>
      <trkpt lat="45.67503" lon="5.83334">
        <ele>1384.44</ele>
        <time>2014-04-26T10:31:46Z</time>
      </trkpt>
      <trkpt lat="45.67503" lon="5.83334">
        <ele>1384.44</ele>
        <time>2014-04-26T10:32:05Z</time>
      </trkpt>
      <trkpt lat="45.67502" lon="5.83333">
        <ele>1384.92</ele>
        <time>2014-04-26T10:32:16Z</time>
      </trkpt>
      <trkpt lat="45.67497" lon="5.83325">
        <ele>1385.4</ele>
        <time>2014-04-26T10:32:28Z</time>
      </trkpt>
      <trkpt lat="45.67496" lon="5.83322">
        <ele>1385.4</ele>
        <time>2014-04-26T10:32:41Z</time>
      </trkpt>
      <trkpt lat="45.67494" lon="5.8332">
        <ele>1383.96</ele>
        <time>2014-04-26T10:32:52Z</time>
      </trkpt>
      <trkpt lat="45.67494" lon="5.83319">
        <ele>1382.51</ele>
        <time>2014-04-26T10:33:07Z</time>
      </trkpt>
      <trkpt lat="45.67493" lon="5.83316">
        <ele>1379.15</ele>
        <time>2014-04-26T10:33:19Z</time>
      </trkpt>
      <trkpt lat="45.67489" lon="5.83311">
        <ele>1376.26</ele>
        <time>2014-04-26T10:33:32Z</time>
      </trkpt>
      <trkpt lat="45.67487" lon="5.83312">
        <ele>1374.34</ele>
        <time>2014-04-26T10:33:44Z</time>
      </trkpt>
      <trkpt lat="45.67486" lon="5.83312">
        <ele>1373.38</ele>
        <time>2014-04-26T10:33:56Z</time>
      </trkpt>
      <trkpt lat="45.67486" lon="5.83316">
        <ele>1370.98</ele>
        <time>2014-04-26T10:34:11Z</time>
      </trkpt>
      <trkpt lat="45.67485" lon="5.83323">
        <ele>1368.09</ele>
        <time>2014-04-26T10:34:22Z</time>
      </trkpt>
      <trkpt lat="45.67485" lon="5.83325">
        <ele>1367.13</ele>
        <time>2014-04-26T10:34:30Z</time>
      </trkpt>
      <trkpt lat="45.67485" lon="5.83333">
        <ele>1365.21</ele>
        <time>2014-04-26T10:34:41Z</time>
      </trkpt>
      <trkpt lat="45.67488" lon="5.83338">
        <ele>1362.81</ele>
        <time>2014-04-26T10:34:54Z</time>
      </trkpt>
      <trkpt lat="45.6749" lon="5.83344">
        <ele>1361.36</ele>
        <time>2014-04-26T10:35:06Z</time>
      </trkpt>
      <trkpt lat="45.67492" lon="5.83351">
        <ele>1359.92</ele>
        <time>2014-04-26T10:35:19Z</time>
      </trkpt>
      <trkpt lat="45.67493" lon="5.83358">
        <ele>1357.52</ele>
        <time>2014-04-26T10:35:32Z</time>
      </trkpt>
      <trkpt lat="45.67493" lon="5.83359">
        <ele>1356.56</ele>
        <time>2014-04-26T10:35:41Z</time>
      </trkpt>
      <trkpt lat="45.67492" lon="5.83362">
        <ele>1356.08</ele>
        <time>2014-04-26T10:35:55Z</time>
      </trkpt>
      <trkpt lat="45.67492" lon="5.83362">
        <ele>1355.12</ele>
        <time>2014-04-26T10:36:12Z</time>
      </trkpt>
      <trkpt lat="45.67491" lon="5.83362">
        <ele>1353.67</ele>
        <time>2014-04-26T10:36:29Z</time>
      </trkpt>
      <trkpt lat="45.67491" lon="5.83361">
        <ele>1352.23</ele>
        <time>2014-04-26T10:36:48Z</time>
      </trkpt>
      <trkpt lat="45.6749" lon="5.83362">
        <ele>1350.31</ele>
        <time>2014-04-26T10:37:08Z</time>
      </trkpt>
      <trkpt lat="45.67489" lon="5.83362">
        <ele>1348.87</ele>
        <time>2014-04-26T10:37:24Z</time>
      </trkpt>
      <trkpt lat="45.67487" lon="5.83362">
        <ele>1347.43</ele>
        <time>2014-04-26T10:37:35Z</time>
      </trkpt>
      <trkpt lat="45.67486" lon="5.83363">
        <ele>1345.98</ele>
        <time>2014-04-26T10:37:49Z</time>
      </trkpt>
      <trkpt lat="45.67485" lon="5.83362">
        <ele>1344.06</ele>
        <time>2014-04-26T10:38:06Z</time>
      </trkpt>
      <trkpt lat="45.67481" lon="5.83359">
        <ele>1343.1</ele>
        <time>2014-04-26T10:38:18Z</time>
      </trkpt>
      <trkpt lat="45.67478" lon="5.83358">
        <ele>1341.66</ele>
        <time>2014-04-26T10:38:31Z</time>
      </trkpt>
      <trkpt lat="45.67477" lon="5.83356">
        <ele>1338.77</ele>
        <time>2014-04-26T10:38:48Z</time>
      </trkpt>
      <trkpt lat="45.67475" lon="5.83355">
        <ele>1336.37</ele>
        <time>2014-04-26T10:39:02Z</time>
      </trkpt>
      <trkpt lat="45.67469" lon="5.83353">
        <ele>1333.97</ele>
        <time>2014-04-26T10:39:15Z</time>
      </trkpt>
      <trkpt lat="45.67463" lon="5.8335">
        <ele>1333.49</ele>
        <time>2014-04-26T10:39:28Z</time>
      </trkpt>
      <trkpt lat="45.6746" lon="5.83349">
        <ele>1331.56</ele>
        <time>2014-04-26T10:39:41Z</time>
      </trkpt>
      <trkpt lat="45.67454" lon="5.83343">
        <ele>1328.68</ele>
        <time>2014-04-26T10:39:52Z</time>
      </trkpt>
      <trkpt lat="45.67451" lon="5.83341">
        <ele>1327.24</ele>
        <time>2014-04-26T10:40:04Z</time>
      </trkpt>
      <trkpt lat="45.67447" lon="5.83339">
        <ele>1324.83</ele>
        <time>2014-04-26T10:40:18Z</time>
      </trkpt>
      <trkpt lat="45.67442" lon="5.83332">
        <ele>1322.91</ele>
        <time>2014-04-26T10:40:32Z</time>
      </trkpt>
      <trkpt lat="45.6744" lon="5.83329">
        <ele>1320.03</ele>
        <time>2014-04-26T10:40:43Z</time>
      </trkpt>
      <trkpt lat="45.67435" lon="5.83326">
        <ele>1318.59</ele>
        <time>2014-04-26T10:40:46Z</time>
      </trkpt>
      <trkpt lat="45.67427" lon="5.83317">
        <ele>1319.55</ele>
        <time>2014-04-26T10:40:56Z</time>
      </trkpt>
      <trkpt lat="45.67424" lon="5.83308">
        <ele>1316.66</ele>
        <time>2014-04-26T10:41:08Z</time>
      </trkpt>
      <trkpt lat="45.67419" lon="5.83306">
        <ele>1314.26</ele>
        <time>2014-04-26T10:41:19Z</time>
      </trkpt>
      <trkpt lat="45.67417" lon="5.83304">
        <ele>1313.78</ele>
        <time>2014-04-26T10:41:21Z</time>
      </trkpt>
      <trkpt lat="45.67411" lon="5.83287">
        <ele>1312.82</ele>
        <time>2014-04-26T10:41:33Z</time>
      </trkpt>
      <trkpt lat="45.67406" lon="5.8328">
        <ele>1310.9</ele>
        <time>2014-04-26T10:41:45Z</time>
      </trkpt>
      <trkpt lat="45.67396" lon="5.83275">
        <ele>1308.49</ele>
        <time>2014-04-26T10:41:58Z</time>
      </trkpt>
      <trkpt lat="45.67395" lon="5.83275">
        <ele>1308.49</ele>
        <time>2014-04-26T10:41:59Z</time>
      </trkpt>
      <trkpt lat="45.67391" lon="5.83267">
        <ele>1308.01</ele>
        <time>2014-04-26T10:42:14Z</time>
      </trkpt>
      <trkpt lat="45.67389" lon="5.83254">
        <ele>1308.97</ele>
        <time>2014-04-26T10:42:30Z</time>
      </trkpt>
      <trkpt lat="45.67383" lon="5.83248">
        <ele>1307.53</ele>
        <time>2014-04-26T10:42:43Z</time>
      </trkpt>
      <trkpt lat="45.6738" lon="5.83249">
        <ele>1308.01</ele>
        <time>2014-04-26T10:42:57Z</time>
      </trkpt>
      <trkpt lat="45.6738" lon="5.83253">
        <ele>1307.05</ele>
        <time>2014-04-26T10:43:24Z</time>
      </trkpt>
      <trkpt lat="45.67378" lon="5.83253">
        <ele>1307.05</ele>
        <time>2014-04-26T10:43:50Z</time>
      </trkpt>
      <trkpt lat="45.67377" lon="5.83253">
        <ele>1307.05</ele>
        <time>2014-04-26T10:44:12Z</time>
      </trkpt>
      <trkpt lat="45.67375" lon="5.83254">
        <ele>1307.05</ele>
        <time>2014-04-26T10:44:32Z</time>
      </trkpt>
      <trkpt lat="45.67376" lon="5.83254">
        <ele>1307.05</ele>
        <time>2014-04-26T10:44:56Z</time>
      </trkpt>
      <trkpt lat="45.67376" lon="5.83254">
        <ele>1300.32</ele>
        <time>2014-04-26T10:44:59Z</time>
      </trkpt>
      <trkpt lat="45.67376" lon="5.83254">
        <ele>1308.49</ele>
        <time>2014-04-26T10:45:00Z</time>
      </trkpt>
      <trkpt lat="45.67377" lon="5.83254">
        <ele>1305.61</ele>
        <time>2014-04-26T10:45:14Z</time>
      </trkpt>
      <trkpt lat="45.67375" lon="5.83255">
        <ele>1306.57</ele>
        <time>2014-04-26T10:45:26Z</time>
      </trkpt>
      <trkpt lat="45.67375" lon="5.83255">
        <ele>1307.05</ele>
        <time>2014-04-26T10:45:46Z</time>
      </trkpt>
      <trkpt lat="45.67372" lon="5.83255">
        <ele>1307.53</ele>
        <time>2014-04-26T10:46:03Z</time>
      </trkpt>
      <trkpt lat="45.67372" lon="5.83255">
        <ele>1307.05</ele>
        <time>2014-04-26T10:46:24Z</time>
      </trkpt>
      <trkpt lat="45.67372" lon="5.83253">
        <ele>1307.05</ele>
        <time>2014-04-26T10:46:40Z</time>
      </trkpt>
      <trkpt lat="45.6737" lon="5.83253">
        <ele>1307.05</ele>
        <time>2014-04-26T10:47:00Z</time>
      </trkpt>
      <trkpt lat="45.6737" lon="5.83253">
        <ele>1307.05</ele>
        <time>2014-04-26T10:47:19Z</time>
      </trkpt>
      <trkpt lat="45.67368" lon="5.83255">
        <ele>1307.53</ele>
        <time>2014-04-26T10:47:43Z</time>
      </trkpt>
      <trkpt lat="45.67367" lon="5.83256">
        <ele>1307.53</ele>
        <time>2014-04-26T10:48:10Z</time>
      </trkpt>
      <trkpt lat="45.67366" lon="5.83256">
        <ele>1307.05</ele>
        <time>2014-04-26T10:48:32Z</time>
      </trkpt>
      <trkpt lat="45.67366" lon="5.83255">
        <ele>1307.53</ele>
        <time>2014-04-26T10:48:58Z</time>
      </trkpt>
      <trkpt lat="45.67365" lon="5.83259">
        <ele>1307.53</ele>
        <time>2014-04-26T10:49:30Z</time>
      </trkpt>
      <trkpt lat="45.67365" lon="5.83259">
        <ele>1307.53</ele>
        <time>2014-04-26T10:49:56Z</time>
      </trkpt>
      <trkpt lat="45.67365" lon="5.83259">
        <ele>1307.53</ele>
        <time>2014-04-26T10:50:17Z</time>
      </trkpt>
      <trkpt lat="45.67366" lon="5.83256">
        <ele>1306.57</ele>
        <time>2014-04-26T10:50:29Z</time>
      </trkpt>
      <trkpt lat="45.67367" lon="5.83253">
        <ele>1306.57</ele>
        <time>2014-04-26T10:50:57Z</time>
      </trkpt>
      <trkpt lat="45.67368" lon="5.83253">
        <ele>1306.09</ele>
        <time>2014-04-26T10:51:20Z</time>
      </trkpt>
      <trkpt lat="45.67368" lon="5.83252">
        <ele>1306.57</ele>
        <time>2014-04-26T10:51:40Z</time>
      </trkpt>
      <trkpt lat="45.67369" lon="5.83252">
        <ele>1307.53</ele>
        <time>2014-04-26T10:51:43Z</time>
      </trkpt>
      <trkpt lat="45.67368" lon="5.83254">
        <ele>1307.05</ele>
        <time>2014-04-26T10:51:45Z</time>
      </trkpt>
      <trkpt lat="45.67365" lon="5.83255">
        <ele>1312.34</ele>
        <time>2014-04-26T10:51:51Z</time>
      </trkpt>
      <trkpt lat="45.67363" lon="5.83256">
        <ele>1306.57</ele>
        <time>2014-04-26T10:51:52Z</time>
      </trkpt>
      <trkpt lat="45.6736" lon="5.83256">
        <ele>1308.01</ele>
        <time>2014-04-26T10:51:55Z</time>
      </trkpt>
      <trkpt lat="45.6736" lon="5.83256">
        <ele>1308.01</ele>
        <time>2014-04-26T10:52:01Z</time>
      </trkpt>
      <trkpt lat="45.67358" lon="5.83256">
        <ele>1306.09</ele>
        <time>2014-04-26T10:52:03Z</time>
      </trkpt>
      <trkpt lat="45.67349" lon="5.83255">
        <ele>1304.65</ele>
        <time>2014-04-26T10:52:15Z</time>
      </trkpt>
      <trkpt lat="45.67345" lon="5.83254">
        <ele>1304.17</ele>
        <time>2014-04-26T10:52:17Z</time>
      </trkpt>
      <trkpt lat="45.67354" lon="5.83265">
        <ele>1301.76</ele>
        <time>2014-04-26T10:52:30Z</time>
      </trkpt>
      <trkpt lat="45.67363" lon="5.83269">
        <ele>1299.36</ele>
        <time>2014-04-26T10:52:43Z</time>
      </trkpt>
      <trkpt lat="45.67364" lon="5.83273">
        <ele>1295.51</ele>
        <time>2014-04-26T10:52:47Z</time>
      </trkpt>
      <trkpt lat="45.67361" lon="5.83276">
        <ele>1293.11</ele>
        <time>2014-04-26T10:52:50Z</time>
      </trkpt>
      <trkpt lat="45.67356" lon="5.83281">
        <ele>1292.15</ele>
        <time>2014-04-26T10:52:55Z</time>
      </trkpt>
      <trkpt lat="45.67349" lon="5.8328">
        <ele>1290.71</ele>
        <time>2014-04-26T10:53:06Z</time>
      </trkpt>
      <trkpt lat="45.67341" lon="5.83277">
        <ele>1289.75</ele>
        <time>2014-04-26T10:53:14Z</time>
      </trkpt>
      <trkpt lat="45.67332" lon="5.83271">
        <ele>1288.3</ele>
        <time>2014-04-26T10:53:23Z</time>
      </trkpt>
      <trkpt lat="45.67322" lon="5.83269">
        <ele>1286.86</ele>
        <time>2014-04-26T10:53:36Z</time>
      </trkpt>
      <trkpt lat="45.67309" lon="5.83269">
        <ele>1285.42</ele>
        <time>2014-04-26T10:53:49Z</time>
      </trkpt>
      <trkpt lat="45.67299" lon="5.83271">
        <ele>1282.54</ele>
        <time>2014-04-26T10:54:03Z</time>
      </trkpt>
      <trkpt lat="45.67293" lon="5.83263">
        <ele>1279.17</ele>
        <time>2014-04-26T10:54:09Z</time>
      </trkpt>
      <trkpt lat="45.67292" lon="5.83262">
        <ele>1284.94</ele>
        <time>2014-04-26T10:54:10Z</time>
      </trkpt>
      <trkpt lat="45.67291" lon="5.83261">
        <ele>1283.5</ele>
        <time>2014-04-26T10:54:11Z</time>
      </trkpt>
      <trkpt lat="45.67286" lon="5.83257">
        <ele>1281.57</ele>
        <time>2014-04-26T10:54:14Z</time>
      </trkpt>
      <trkpt lat="45.67282" lon="5.83257">
        <ele>1280.13</ele>
        <time>2014-04-26T10:54:25Z</time>
      </trkpt>
      <trkpt lat="45.6727" lon="5.83251">
        <ele>1279.65</ele>
        <time>2014-04-26T10:54:40Z</time>
      </trkpt>
      <trkpt lat="45.67268" lon="5.83252">
        <ele>1276.77</ele>
        <time>2014-04-26T10:54:52Z</time>
      </trkpt>
      <trkpt lat="45.67273" lon="5.83261">
        <ele>1275.33</ele>
        <time>2014-04-26T10:55:04Z</time>
      </trkpt>
      <trkpt lat="45.6728" lon="5.83271">
        <ele>1272.92</ele>
        <time>2014-04-26T10:55:15Z</time>
      </trkpt>
      <trkpt lat="45.67297" lon="5.83288">
        <ele>1270.04</ele>
        <time>2014-04-26T10:55:30Z</time>
      </trkpt>
      <trkpt lat="45.67306" lon="5.833">
        <ele>1270.04</ele>
        <time>2014-04-26T10:55:44Z</time>
      </trkpt>
      <trkpt lat="45.67317" lon="5.83311">
        <ele>1268.12</ele>
        <time>2014-04-26T10:55:56Z</time>
      </trkpt>
      <trkpt lat="45.67323" lon="5.83323">
        <ele>1264.75</ele>
        <time>2014-04-26T10:56:09Z</time>
      </trkpt>
      <trkpt lat="45.67323" lon="5.83324">
        <ele>1264.75</ele>
        <time>2014-04-26T10:56:10Z</time>
      </trkpt>
      <trkpt lat="45.67321" lon="5.83327">
        <ele>1262.35</ele>
        <time>2014-04-26T10:56:15Z</time>
      </trkpt>
      <trkpt lat="45.67315" lon="5.8333">
        <ele>1260.91</ele>
        <time>2014-04-26T10:56:18Z</time>
      </trkpt>
      <trkpt lat="45.67301" lon="5.83328">
        <ele>1258.5</ele>
        <time>2014-04-26T10:56:30Z</time>
      </trkpt>
      <trkpt lat="45.67292" lon="5.83326">
        <ele>1257.54</ele>
        <time>2014-04-26T10:56:41Z</time>
      </trkpt>
      <trkpt lat="45.67291" lon="5.83326">
        <ele>1256.58</ele>
        <time>2014-04-26T10:56:43Z</time>
      </trkpt>
      <trkpt lat="45.67284" lon="5.83316">
        <ele>1256.1</ele>
        <time>2014-04-26T10:56:54Z</time>
      </trkpt>
      <trkpt lat="45.67277" lon="5.83313">
        <ele>1253.22</ele>
        <time>2014-04-26T10:57:04Z</time>
      </trkpt>
      <trkpt lat="45.67278" lon="5.83313">
        <ele>1252.74</ele>
        <time>2014-04-26T10:57:05Z</time>
      </trkpt>
      <trkpt lat="45.67284" lon="5.83325">
        <ele>1249.85</ele>
        <time>2014-04-26T10:57:19Z</time>
      </trkpt>
      <trkpt lat="45.6729" lon="5.8334">
        <ele>1247.93</ele>
        <time>2014-04-26T10:57:32Z</time>
      </trkpt>
      <trkpt lat="45.67289" lon="5.83343">
        <ele>1245.04</ele>
        <time>2014-04-26T10:57:47Z</time>
      </trkpt>
      <trkpt lat="45.67288" lon="5.83346">
        <ele>1242.64</ele>
        <time>2014-04-26T10:57:50Z</time>
      </trkpt>
      <trkpt lat="45.67282" lon="5.8334">
        <ele>1241.2</ele>
        <time>2014-04-26T10:58:01Z</time>
      </trkpt>
      <trkpt lat="45.6728" lon="5.83343">
        <ele>1238.8</ele>
        <time>2014-04-26T10:58:15Z</time>
      </trkpt>
      <trkpt lat="45.6728" lon="5.83344">
        <ele>1238.32</ele>
        <time>2014-04-26T10:58:16Z</time>
      </trkpt>
      <trkpt lat="45.67279" lon="5.83349">
        <ele>1237.35</ele>
        <time>2014-04-26T10:58:18Z</time>
      </trkpt>
      <trkpt lat="45.67284" lon="5.83358">
        <ele>1236.39</ele>
        <time>2014-04-26T10:58:29Z</time>
      </trkpt>
      <trkpt lat="45.67287" lon="5.83361">
        <ele>1235.91</ele>
        <time>2014-04-26T10:58:33Z</time>
      </trkpt>
      <trkpt lat="45.6729" lon="5.8337">
        <ele>1234.95</ele>
        <time>2014-04-26T10:58:46Z</time>
      </trkpt>
      <trkpt lat="45.67293" lon="5.83374">
        <ele>1233.99</ele>
        <time>2014-04-26T10:58:59Z</time>
      </trkpt>
      <trkpt lat="45.67294" lon="5.83376">
        <ele>1230.62</ele>
        <time>2014-04-26T10:59:11Z</time>
      </trkpt>
      <trkpt lat="45.6729" lon="5.83378">
        <ele>1227.74</ele>
        <time>2014-04-26T10:59:21Z</time>
      </trkpt>
      <trkpt lat="45.67283" lon="5.8338">
        <ele>1224.38</ele>
        <time>2014-04-26T10:59:33Z</time>
      </trkpt>
      <trkpt lat="45.67283" lon="5.83382">
        <ele>1223.9</ele>
        <time>2014-04-26T10:59:34Z</time>
      </trkpt>
      <trkpt lat="45.67281" lon="5.83388">
        <ele>1221.97</ele>
        <time>2014-04-26T10:59:38Z</time>
      </trkpt>
      <trkpt lat="45.67278" lon="5.83392">
        <ele>1218.61</ele>
        <time>2014-04-26T10:59:48Z</time>
      </trkpt>
      <trkpt lat="45.67277" lon="5.83399">
        <ele>1215.24</ele>
        <time>2014-04-26T11:00:00Z</time>
      </trkpt>
      <trkpt lat="45.67276" lon="5.834">
        <ele>1215.24</ele>
        <time>2014-04-26T11:00:25Z</time>
      </trkpt>
      <trkpt lat="45.67275" lon="5.83401">
        <ele>1215.24</ele>
        <time>2014-04-26T11:00:51Z</time>
      </trkpt>
      <trkpt lat="45.67275" lon="5.834">
        <ele>1214.76</ele>
        <time>2014-04-26T11:01:13Z</time>
      </trkpt>
      <trkpt lat="45.67275" lon="5.83401">
        <ele>1214.28</ele>
        <time>2014-04-26T11:01:22Z</time>
      </trkpt>
      <trkpt lat="45.67279" lon="5.83406">
        <ele>1211.88</ele>
        <time>2014-04-26T11:01:33Z</time>
      </trkpt>
      <trkpt lat="45.67279" lon="5.83408">
        <ele>1209.96</ele>
        <time>2014-04-26T11:01:38Z</time>
      </trkpt>
      <trkpt lat="45.67278" lon="5.83409">
        <ele>1209</ele>
        <time>2014-04-26T11:01:41Z</time>
      </trkpt>
      <trkpt lat="45.67275" lon="5.83413">
        <ele>1205.63</ele>
        <time>2014-04-26T11:01:50Z</time>
      </trkpt>
      <trkpt lat="45.6727" lon="5.83421">
        <ele>1203.23</ele>
        <time>2014-04-26T11:02:09Z</time>
      </trkpt>
      <trkpt lat="45.67269" lon="5.83424">
        <ele>1202.75</ele>
        <time>2014-04-26T11:02:11Z</time>
      </trkpt>
      <trkpt lat="45.67266" lon="5.83421">
        <ele>1202.27</ele>
        <time>2014-04-26T11:02:22Z</time>
      </trkpt>
      <trkpt lat="45.67263" lon="5.83421">
        <ele>1199.86</ele>
        <time>2014-04-26T11:02:45Z</time>
      </trkpt>
      <trkpt lat="45.67252" lon="5.83413">
        <ele>1199.38</ele>
        <time>2014-04-26T11:03:00Z</time>
      </trkpt>
      <trkpt lat="45.67243" lon="5.83407">
        <ele>1197.94</ele>
        <time>2014-04-26T11:03:12Z</time>
      </trkpt>
      <trkpt lat="45.67227" lon="5.83392">
        <ele>1194.58</ele>
        <time>2014-04-26T11:03:30Z</time>
      </trkpt>
      <trkpt lat="45.67216" lon="5.8338">
        <ele>1192.65</ele>
        <time>2014-04-26T11:03:43Z</time>
      </trkpt>
      <trkpt lat="45.67204" lon="5.83376">
        <ele>1190.25</ele>
        <time>2014-04-26T11:03:59Z</time>
      </trkpt>
      <trkpt lat="45.67196" lon="5.83372">
        <ele>1189.77</ele>
        <time>2014-04-26T11:04:14Z</time>
      </trkpt>
      <trkpt lat="45.67188" lon="5.83363">
        <ele>1189.29</ele>
        <time>2014-04-26T11:04:30Z</time>
      </trkpt>
      <trkpt lat="45.67183" lon="5.83365">
        <ele>1186.4</ele>
        <time>2014-04-26T11:04:45Z</time>
      </trkpt>
      <trkpt lat="45.67176" lon="5.83379">
        <ele>1184</ele>
        <time>2014-04-26T11:05:00Z</time>
      </trkpt>
      <trkpt lat="45.67167" lon="5.83386">
        <ele>1183.52</ele>
        <time>2014-04-26T11:05:15Z</time>
      </trkpt>
      <trkpt lat="45.67155" lon="5.834">
        <ele>1182.08</ele>
        <time>2014-04-26T11:05:27Z</time>
      </trkpt>
      <trkpt lat="45.67145" lon="5.8341">
        <ele>1179.67</ele>
        <time>2014-04-26T11:05:40Z</time>
      </trkpt>
      <trkpt lat="45.67139" lon="5.83417">
        <ele>1177.75</ele>
        <time>2014-04-26T11:05:53Z</time>
      </trkpt>
      <trkpt lat="45.67136" lon="5.83426">
        <ele>1176.31</ele>
        <time>2014-04-26T11:06:11Z</time>
      </trkpt>
      <trkpt lat="45.67128" lon="5.83429">
        <ele>1175.83</ele>
        <time>2014-04-26T11:06:21Z</time>
      </trkpt>
      <trkpt lat="45.67126" lon="5.8343">
        <ele>1175.35</ele>
        <time>2014-04-26T11:06:25Z</time>
      </trkpt>
      <trkpt lat="45.67121" lon="5.83432">
        <ele>1175.35</ele>
        <time>2014-04-26T11:06:33Z</time>
      </trkpt>
      <trkpt lat="45.67118" lon="5.83434">
        <ele>1175.35</ele>
        <time>2014-04-26T11:06:36Z</time>
      </trkpt>
      <trkpt lat="45.67115" lon="5.83433">
        <ele>1175.83</ele>
        <time>2014-04-26T11:06:52Z</time>
      </trkpt>
      <trkpt lat="45.67112" lon="5.83438">
        <ele>1174.87</ele>
        <time>2014-04-26T11:07:05Z</time>
      </trkpt>
      <trkpt lat="45.67111" lon="5.83439">
        <ele>1174.87</ele>
        <time>2014-04-26T11:07:25Z</time>
      </trkpt>
      <trkpt lat="45.67109" lon="5.83442">
        <ele>1173.43</ele>
        <time>2014-04-26T11:07:39Z</time>
      </trkpt>
      <trkpt lat="45.67101" lon="5.83442">
        <ele>1173.43</ele>
        <time>2014-04-26T11:07:52Z</time>
      </trkpt>
      <trkpt lat="45.67093" lon="5.83441">
        <ele>1172.47</ele>
        <time>2014-04-26T11:08:03Z</time>
      </trkpt>
      <trkpt lat="45.67079" lon="5.83436">
        <ele>1170.54</ele>
        <time>2014-04-26T11:08:16Z</time>
      </trkpt>
      <trkpt lat="45.67065" lon="5.83432">
        <ele>1169.1</ele>
        <time>2014-04-26T11:08:31Z</time>
      </trkpt>
      <trkpt lat="45.67056" lon="5.83426">
        <ele>1168.14</ele>
        <time>2014-04-26T11:08:41Z</time>
      </trkpt>
      <trkpt lat="45.67041" lon="5.8342">
        <ele>1166.22</ele>
        <time>2014-04-26T11:08:56Z</time>
      </trkpt>
      <trkpt lat="45.67029" lon="5.83415">
        <ele>1163.33</ele>
        <time>2014-04-26T11:09:11Z</time>
      </trkpt>
      <trkpt lat="45.67014" lon="5.8341">
        <ele>1161.41</ele>
        <time>2014-04-26T11:09:24Z</time>
      </trkpt>
      <trkpt lat="45.67009" lon="5.83411">
        <ele>1157.56</ele>
        <time>2014-04-26T11:09:28Z</time>
      </trkpt>
      <trkpt lat="45.67007" lon="5.83412">
        <ele>1171.98</ele>
        <time>2014-04-26T11:09:29Z</time>
      </trkpt>
      <trkpt lat="45.67006" lon="5.83412">
        <ele>1162.37</ele>
        <time>2014-04-26T11:09:30Z</time>
      </trkpt>
      <trkpt lat="45.67004" lon="5.83411">
        <ele>1160.93</ele>
        <time>2014-04-26T11:09:32Z</time>
      </trkpt>
      <trkpt lat="45.66993" lon="5.83407">
        <ele>1159.01</ele>
        <time>2014-04-26T11:09:45Z</time>
      </trkpt>
      <trkpt lat="45.66985" lon="5.83402">
        <ele>1158.05</ele>
        <time>2014-04-26T11:09:57Z</time>
      </trkpt>
      <trkpt lat="45.66976" lon="5.83402">
        <ele>1157.08</ele>
        <time>2014-04-26T11:10:10Z</time>
      </trkpt>
      <trkpt lat="45.66972" lon="5.83401">
        <ele>1156.12</ele>
        <time>2014-04-26T11:10:17Z</time>
      </trkpt>
      <trkpt lat="45.66957" lon="5.83394">
        <ele>1153.72</ele>
        <time>2014-04-26T11:10:30Z</time>
      </trkpt>
      <trkpt lat="45.66952" lon="5.83395">
        <ele>1152.76</ele>
        <time>2014-04-26T11:10:43Z</time>
      </trkpt>
      <trkpt lat="45.66936" lon="5.83397">
        <ele>1151.32</ele>
        <time>2014-04-26T11:10:56Z</time>
      </trkpt>
      <trkpt lat="45.66925" lon="5.83391">
        <ele>1149.87</ele>
        <time>2014-04-26T11:11:06Z</time>
      </trkpt>
      <trkpt lat="45.66909" lon="5.83388">
        <ele>1146.99</ele>
        <time>2014-04-26T11:11:20Z</time>
      </trkpt>
      <trkpt lat="45.66898" lon="5.83387">
        <ele>1145.07</ele>
        <time>2014-04-26T11:11:33Z</time>
      </trkpt>
      <trkpt lat="45.66888" lon="5.83382">
        <ele>1143.14</ele>
        <time>2014-04-26T11:11:47Z</time>
      </trkpt>
      <trkpt lat="45.66882" lon="5.8338">
        <ele>1142.66</ele>
        <time>2014-04-26T11:12:01Z</time>
      </trkpt>
      <trkpt lat="45.66874" lon="5.83377">
        <ele>1139.3</ele>
        <time>2014-04-26T11:12:14Z</time>
      </trkpt>
      <trkpt lat="45.66873" lon="5.83377">
        <ele>1138.82</ele>
        <time>2014-04-26T11:12:15Z</time>
      </trkpt>
      <trkpt lat="45.66862" lon="5.83379">
        <ele>1138.82</ele>
        <time>2014-04-26T11:12:28Z</time>
      </trkpt>
      <trkpt lat="45.66854" lon="5.83382">
        <ele>1135.94</ele>
        <time>2014-04-26T11:12:43Z</time>
      </trkpt>
      <trkpt lat="45.66852" lon="5.8338">
        <ele>1134.01</ele>
        <time>2014-04-26T11:12:48Z</time>
      </trkpt>
      <trkpt lat="45.66836" lon="5.83374">
        <ele>1132.57</ele>
        <time>2014-04-26T11:13:00Z</time>
      </trkpt>
      <trkpt lat="45.66826" lon="5.83367">
        <ele>1130.65</ele>
        <time>2014-04-26T11:13:15Z</time>
      </trkpt>
      <trkpt lat="45.6681" lon="5.8337">
        <ele>1127.76</ele>
        <time>2014-04-26T11:13:31Z</time>
      </trkpt>
      <trkpt lat="45.66798" lon="5.83365">
        <ele>1125.84</ele>
        <time>2014-04-26T11:13:46Z</time>
      </trkpt>
      <trkpt lat="45.66786" lon="5.83366">
        <ele>1122.48</ele>
        <time>2014-04-26T11:13:59Z</time>
      </trkpt>
      <trkpt lat="45.66773" lon="5.83364">
        <ele>1123.44</ele>
        <time>2014-04-26T11:14:12Z</time>
      </trkpt>
      <trkpt lat="45.66765" lon="5.83363">
        <ele>1122</ele>
        <time>2014-04-26T11:14:25Z</time>
      </trkpt>
      <trkpt lat="45.66761" lon="5.83361">
        <ele>1121.03</ele>
        <time>2014-04-26T11:14:33Z</time>
      </trkpt>
      <trkpt lat="45.66749" lon="5.83355">
        <ele>1118.63</ele>
        <time>2014-04-26T11:14:49Z</time>
      </trkpt>
      <trkpt lat="45.66736" lon="5.83351">
        <ele>1115.27</ele>
        <time>2014-04-26T11:15:01Z</time>
      </trkpt>
      <trkpt lat="45.66724" lon="5.8335">
        <ele>1115.27</ele>
        <time>2014-04-26T11:15:13Z</time>
      </trkpt>
      <trkpt lat="45.66704" lon="5.8336">
        <ele>1112.86</ele>
        <time>2014-04-26T11:15:28Z</time>
      </trkpt>
      <trkpt lat="45.6669" lon="5.83362">
        <ele>1111.42</ele>
        <time>2014-04-26T11:15:43Z</time>
      </trkpt>
      <trkpt lat="45.6668" lon="5.83362">
        <ele>1109.98</ele>
        <time>2014-04-26T11:15:58Z</time>
      </trkpt>
      <trkpt lat="45.66664" lon="5.83361">
        <ele>1108.54</ele>
        <time>2014-04-26T11:16:13Z</time>
      </trkpt>
      <trkpt lat="45.66655" lon="5.83364">
        <ele>1107.1</ele>
        <time>2014-04-26T11:16:21Z</time>
      </trkpt>
      <trkpt lat="45.6664" lon="5.83366">
        <ele>1107.1</ele>
        <time>2014-04-26T11:16:35Z</time>
      </trkpt>
      <trkpt lat="45.66623" lon="5.83365">
        <ele>1104.69</ele>
        <time>2014-04-26T11:16:49Z</time>
      </trkpt>
      <trkpt lat="45.66609" lon="5.83364">
        <ele>1102.77</ele>
        <time>2014-04-26T11:17:02Z</time>
      </trkpt>
      <trkpt lat="45.66597" lon="5.83356">
        <ele>1101.33</ele>
        <time>2014-04-26T11:17:16Z</time>
      </trkpt>
      <trkpt lat="45.66584" lon="5.83354">
        <ele>1097.96</ele>
        <time>2014-04-26T11:17:30Z</time>
      </trkpt>
      <trkpt lat="45.66576" lon="5.83349">
        <ele>1097.96</ele>
        <time>2014-04-26T11:17:40Z</time>
      </trkpt>
      <trkpt lat="45.66576" lon="5.83348">
        <ele>1097.48</ele>
        <time>2014-04-26T11:17:41Z</time>
      </trkpt>
      <trkpt lat="45.66565" lon="5.83339">
        <ele>1095.56</ele>
        <time>2014-04-26T11:17:55Z</time>
      </trkpt>
      <trkpt lat="45.66553" lon="5.83336">
        <ele>1094.6</ele>
        <time>2014-04-26T11:18:08Z</time>
      </trkpt>
      <trkpt lat="45.66549" lon="5.83334">
        <ele>1094.6</ele>
        <time>2014-04-26T11:18:14Z</time>
      </trkpt>
      <trkpt lat="45.66535" lon="5.83327">
        <ele>1094.12</ele>
        <time>2014-04-26T11:18:28Z</time>
      </trkpt>
      <trkpt lat="45.66524" lon="5.83328">
        <ele>1094.6</ele>
        <time>2014-04-26T11:18:39Z</time>
      </trkpt>
      <trkpt lat="45.66511" lon="5.83324">
        <ele>1093.16</ele>
        <time>2014-04-26T11:18:52Z</time>
      </trkpt>
      <trkpt lat="45.66504" lon="5.83319">
        <ele>1090.75</ele>
        <time>2014-04-26T11:19:03Z</time>
      </trkpt>
      <trkpt lat="45.66502" lon="5.8332">
        <ele>1090.75</ele>
        <time>2014-04-26T11:19:05Z</time>
      </trkpt>
      <trkpt lat="45.66498" lon="5.8332">
        <ele>1091.23</ele>
        <time>2014-04-26T11:19:09Z</time>
      </trkpt>
      <trkpt lat="45.66489" lon="5.83315">
        <ele>1091.23</ele>
        <time>2014-04-26T11:19:20Z</time>
      </trkpt>
      <trkpt lat="45.66483" lon="5.83312">
        <ele>1090.75</ele>
        <time>2014-04-26T11:19:26Z</time>
      </trkpt>
      <trkpt lat="45.66474" lon="5.83307">
        <ele>1088.83</ele>
        <time>2014-04-26T11:19:37Z</time>
      </trkpt>
      <trkpt lat="45.66461" lon="5.83306">
        <ele>1087.87</ele>
        <time>2014-04-26T11:19:50Z</time>
      </trkpt>
      <trkpt lat="45.66459" lon="5.83305">
        <ele>1096.04</ele>
        <time>2014-04-26T11:19:52Z</time>
      </trkpt>
      <trkpt lat="45.66457" lon="5.83305">
        <ele>1085.95</ele>
        <time>2014-04-26T11:19:53Z</time>
      </trkpt>
      <trkpt lat="45.66456" lon="5.83305">
        <ele>1091.23</ele>
        <time>2014-04-26T11:19:54Z</time>
      </trkpt>
      <trkpt lat="45.66455" lon="5.83304">
        <ele>1086.91</ele>
        <time>2014-04-26T11:19:55Z</time>
      </trkpt>
      <trkpt lat="45.6645" lon="5.83305">
        <ele>1086.43</ele>
        <time>2014-04-26T11:19:59Z</time>
      </trkpt>
      <trkpt lat="45.6644" lon="5.83296">
        <ele>1085.47</ele>
        <time>2014-04-26T11:20:15Z</time>
      </trkpt>
      <trkpt lat="45.66425" lon="5.83289">
        <ele>1083.54</ele>
        <time>2014-04-26T11:20:31Z</time>
      </trkpt>
      <trkpt lat="45.66414" lon="5.83287">
        <ele>1081.62</ele>
        <time>2014-04-26T11:20:44Z</time>
      </trkpt>
      <trkpt lat="45.66406" lon="5.8329">
        <ele>1081.62</ele>
        <time>2014-04-26T11:20:50Z</time>
      </trkpt>
      <trkpt lat="45.66399" lon="5.83291">
        <ele>1081.62</ele>
        <time>2014-04-26T11:20:53Z</time>
      </trkpt>
      <trkpt lat="45.66383" lon="5.83297">
        <ele>1079.22</ele>
        <time>2014-04-26T11:21:08Z</time>
      </trkpt>
      <trkpt lat="45.66373" lon="5.83302">
        <ele>1077.78</ele>
        <time>2014-04-26T11:21:21Z</time>
      </trkpt>
      <trkpt lat="45.66358" lon="5.83304">
        <ele>1075.85</ele>
        <time>2014-04-26T11:21:36Z</time>
      </trkpt>
      <trkpt lat="45.66341" lon="5.83306">
        <ele>1073.93</ele>
        <time>2014-04-26T11:21:49Z</time>
      </trkpt>
      <trkpt lat="45.66329" lon="5.83306">
        <ele>1072.01</ele>
        <time>2014-04-26T11:22:04Z</time>
      </trkpt>
      <trkpt lat="45.66315" lon="5.83312">
        <ele>1070.08</ele>
        <time>2014-04-26T11:22:16Z</time>
      </trkpt>
      <trkpt lat="45.66308" lon="5.83313">
        <ele>1068.64</ele>
        <time>2014-04-26T11:22:22Z</time>
      </trkpt>
      <trkpt lat="45.66306" lon="5.83312">
        <ele>1068.16</ele>
        <time>2014-04-26T11:22:24Z</time>
      </trkpt>
      <trkpt lat="45.66295" lon="5.83306">
        <ele>1066.72</ele>
        <time>2014-04-26T11:22:37Z</time>
      </trkpt>
      <trkpt lat="45.66285" lon="5.83298">
        <ele>1064.8</ele>
        <time>2014-04-26T11:22:49Z</time>
      </trkpt>
      <trkpt lat="45.66275" lon="5.83291">
        <ele>1063.36</ele>
        <time>2014-04-26T11:23:00Z</time>
      </trkpt>
      <trkpt lat="45.66268" lon="5.83293">
        <ele>1061.91</ele>
        <time>2014-04-26T11:23:16Z</time>
      </trkpt>
      <trkpt lat="45.66265" lon="5.83295">
        <ele>1057.59</ele>
        <time>2014-04-26T11:23:24Z</time>
      </trkpt>
      <trkpt lat="45.66265" lon="5.83294">
        <ele>1067.68</ele>
        <time>2014-04-26T11:23:25Z</time>
      </trkpt>
      <trkpt lat="45.66265" lon="5.83294">
        <ele>1049.42</ele>
        <time>2014-04-26T11:23:26Z</time>
      </trkpt>
      <trkpt lat="45.66265" lon="5.83294">
        <ele>1072.97</ele>
        <time>2014-04-26T11:23:27Z</time>
      </trkpt>
      <trkpt lat="45.66265" lon="5.83294">
        <ele>1060.47</ele>
        <time>2014-04-26T11:23:28Z</time>
      </trkpt>
      <trkpt lat="45.66264" lon="5.83294">
        <ele>1063.84</ele>
        <time>2014-04-26T11:23:32Z</time>
      </trkpt>
      <trkpt lat="45.66262" lon="5.83294">
        <ele>1058.55</ele>
        <time>2014-04-26T11:23:35Z</time>
      </trkpt>
      <trkpt lat="45.66262" lon="5.83294">
        <ele>1062.87</ele>
        <time>2014-04-26T11:23:36Z</time>
      </trkpt>
      <trkpt lat="45.66257" lon="5.83296">
        <ele>1062.87</ele>
        <time>2014-04-26T11:24:06Z</time>
      </trkpt>
      <trkpt lat="45.66253" lon="5.83303">
        <ele>1061.43</ele>
        <time>2014-04-26T11:24:25Z</time>
      </trkpt>
      <trkpt lat="45.66255" lon="5.83299">
        <ele>1060.95</ele>
        <time>2014-04-26T11:24:44Z</time>
      </trkpt>
      <trkpt lat="45.66263" lon="5.83301">
        <ele>1061.43</ele>
        <time>2014-04-26T11:25:14Z</time>
      </trkpt>
      <trkpt lat="45.66261" lon="5.83304">
        <ele>1061.91</ele>
        <time>2014-04-26T11:25:50Z</time>
      </trkpt>
      <trkpt lat="45.6626" lon="5.83307">
        <ele>1061.43</ele>
        <time>2014-04-26T11:26:23Z</time>
      </trkpt>
      <trkpt lat="45.66261" lon="5.83306">
        <ele>1061.43</ele>
        <time>2014-04-26T11:26:56Z</time>
      </trkpt>
      <trkpt lat="45.6626" lon="5.83306">
        <ele>1061.91</ele>
        <time>2014-04-26T11:27:32Z</time>
      </trkpt>
      <trkpt lat="45.6626" lon="5.83305">
        <ele>1062.39</ele>
        <time>2014-04-26T11:28:00Z</time>
      </trkpt>
      <trkpt lat="45.6626" lon="5.83304">
        <ele>1062.39</ele>
        <time>2014-04-26T11:28:26Z</time>
      </trkpt>
      <trkpt lat="45.6626" lon="5.83304">
        <ele>1062.39</ele>
        <time>2014-04-26T11:28:54Z</time>
      </trkpt>
      <trkpt lat="45.66259" lon="5.83305">
        <ele>1063.84</ele>
        <time>2014-04-26T11:29:04Z</time>
      </trkpt>
      <trkpt lat="45.66259" lon="5.83305">
        <ele>1063.36</ele>
        <time>2014-04-26T11:29:27Z</time>
      </trkpt>
      <trkpt lat="45.66258" lon="5.83306">
        <ele>1063.36</ele>
        <time>2014-04-26T11:29:48Z</time>
      </trkpt>
      <trkpt lat="45.66269" lon="5.83315">
        <ele>1061.91</ele>
        <time>2014-04-26T11:30:04Z</time>
      </trkpt>
      <trkpt lat="45.66284" lon="5.83328">
        <ele>1059.99</ele>
        <time>2014-04-26T11:30:20Z</time>
      </trkpt>
      <trkpt lat="45.66295" lon="5.83338">
        <ele>1057.11</ele>
        <time>2014-04-26T11:30:33Z</time>
      </trkpt>
      <trkpt lat="45.66295" lon="5.83345">
        <ele>1055.18</ele>
        <time>2014-04-26T11:30:38Z</time>
      </trkpt>
      <trkpt lat="45.66288" lon="5.83352">
        <ele>1052.3</ele>
        <time>2014-04-26T11:30:50Z</time>
      </trkpt>
      <trkpt lat="45.66282" lon="5.83353">
        <ele>1050.38</ele>
        <time>2014-04-26T11:30:55Z</time>
      </trkpt>
      <trkpt lat="45.66265" lon="5.83347">
        <ele>1047.49</ele>
        <time>2014-04-26T11:31:09Z</time>
      </trkpt>
      <trkpt lat="45.66249" lon="5.83345">
        <ele>1044.13</ele>
        <time>2014-04-26T11:31:22Z</time>
      </trkpt>
      <trkpt lat="45.66245" lon="5.83345">
        <ele>1042.69</ele>
        <time>2014-04-26T11:31:28Z</time>
      </trkpt>
      <trkpt lat="45.66231" lon="5.83353">
        <ele>1039.8</ele>
        <time>2014-04-26T11:31:42Z</time>
      </trkpt>
      <trkpt lat="45.66218" lon="5.83356">
        <ele>1036.92</ele>
        <time>2014-04-26T11:31:54Z</time>
      </trkpt>
      <trkpt lat="45.66203" lon="5.83358">
        <ele>1033.55</ele>
        <time>2014-04-26T11:32:08Z</time>
      </trkpt>
      <trkpt lat="45.66189" lon="5.83363">
        <ele>1030.19</ele>
        <time>2014-04-26T11:32:21Z</time>
      </trkpt>
      <trkpt lat="45.66177" lon="5.83367">
        <ele>1028.75</ele>
        <time>2014-04-26T11:32:33Z</time>
      </trkpt>
      <trkpt lat="45.66166" lon="5.83371">
        <ele>1026.34</ele>
        <time>2014-04-26T11:32:43Z</time>
      </trkpt>
      <trkpt lat="45.66154" lon="5.8337">
        <ele>1023.94</ele>
        <time>2014-04-26T11:32:55Z</time>
      </trkpt>
      <trkpt lat="45.66147" lon="5.83369">
        <ele>1023.46</ele>
        <time>2014-04-26T11:32:59Z</time>
      </trkpt>
      <trkpt lat="45.66131" lon="5.8338">
        <ele>1020.58</ele>
        <time>2014-04-26T11:33:13Z</time>
      </trkpt>
      <trkpt lat="45.66125" lon="5.83381">
        <ele>1019.13</ele>
        <time>2014-04-26T11:33:31Z</time>
      </trkpt>
      <trkpt lat="45.66109" lon="5.83382">
        <ele>1016.73</ele>
        <time>2014-04-26T11:33:46Z</time>
      </trkpt>
      <trkpt lat="45.66118" lon="5.83384">
        <ele>1013.37</ele>
        <time>2014-04-26T11:33:59Z</time>
      </trkpt>
      <trkpt lat="45.66128" lon="5.83383">
        <ele>1010.48</ele>
        <time>2014-04-26T11:34:16Z</time>
      </trkpt>
      <trkpt lat="45.66141" lon="5.8339">
        <ele>1007.6</ele>
        <time>2014-04-26T11:34:33Z</time>
      </trkpt>
      <trkpt lat="45.66144" lon="5.83392">
        <ele>1007.12</ele>
        <time>2014-04-26T11:34:36Z</time>
      </trkpt>
      <trkpt lat="45.66166" lon="5.83404">
        <ele>1004.23</ele>
        <time>2014-04-26T11:34:52Z</time>
      </trkpt>
      <trkpt lat="45.66178" lon="5.83414">
        <ele>1002.31</ele>
        <time>2014-04-26T11:35:06Z</time>
      </trkpt>
      <trkpt lat="45.66189" lon="5.83422">
        <ele>1000.39</ele>
        <time>2014-04-26T11:35:19Z</time>
      </trkpt>
      <trkpt lat="45.66191" lon="5.83425">
        <ele>999.43</ele>
        <time>2014-04-26T11:35:25Z</time>
      </trkpt>
      <trkpt lat="45.66189" lon="5.83427">
        <ele>999.43</ele>
        <time>2014-04-26T11:35:27Z</time>
      </trkpt>
      <trkpt lat="45.66173" lon="5.83435">
        <ele>996.54</ele>
        <time>2014-04-26T11:35:42Z</time>
      </trkpt>
      <trkpt lat="45.6616" lon="5.83439">
        <ele>993.66</ele>
        <time>2014-04-26T11:35:54Z</time>
      </trkpt>
      <trkpt lat="45.66142" lon="5.83444">
        <ele>990.78</ele>
        <time>2014-04-26T11:36:09Z</time>
      </trkpt>
      <trkpt lat="45.6613" lon="5.83446">
        <ele>987.89</ele>
        <time>2014-04-26T11:36:22Z</time>
      </trkpt>
      <trkpt lat="45.66113" lon="5.83447">
        <ele>985.49</ele>
        <time>2014-04-26T11:36:38Z</time>
      </trkpt>
      <trkpt lat="45.66112" lon="5.83449">
        <ele>984.05</ele>
        <time>2014-04-26T11:36:43Z</time>
      </trkpt>
      <trkpt lat="45.66115" lon="5.8345">
        <ele>983.09</ele>
        <time>2014-04-26T11:36:45Z</time>
      </trkpt>
      <trkpt lat="45.66118" lon="5.83448">
        <ele>981.64</ele>
        <time>2014-04-26T11:36:58Z</time>
      </trkpt>
      <trkpt lat="45.6612" lon="5.8345">
        <ele>980.2</ele>
        <time>2014-04-26T11:37:06Z</time>
      </trkpt>
      <trkpt lat="45.66139" lon="5.83457">
        <ele>977.8</ele>
        <time>2014-04-26T11:37:23Z</time>
      </trkpt>
      <trkpt lat="45.6615" lon="5.83463">
        <ele>976.84</ele>
        <time>2014-04-26T11:37:45Z</time>
      </trkpt>
      <trkpt lat="45.66159" lon="5.83482">
        <ele>974.91</ele>
        <time>2014-04-26T11:37:58Z</time>
      </trkpt>
      <trkpt lat="45.66162" lon="5.83496">
        <ele>972.99</ele>
        <time>2014-04-26T11:38:13Z</time>
      </trkpt>
      <trkpt lat="45.66172" lon="5.83518">
        <ele>970.11</ele>
        <time>2014-04-26T11:38:30Z</time>
      </trkpt>
      <trkpt lat="45.66187" lon="5.83537">
        <ele>968.67</ele>
        <time>2014-04-26T11:38:47Z</time>
      </trkpt>
      <trkpt lat="45.66196" lon="5.83548">
        <ele>966.26</ele>
        <time>2014-04-26T11:39:02Z</time>
      </trkpt>
      <trkpt lat="45.66215" lon="5.83559">
        <ele>963.86</ele>
        <time>2014-04-26T11:39:18Z</time>
      </trkpt>
      <trkpt lat="45.66223" lon="5.83563">
        <ele>960.98</ele>
        <time>2014-04-26T11:39:33Z</time>
      </trkpt>
      <trkpt lat="45.66228" lon="5.83567">
        <ele>958.09</ele>
        <time>2014-04-26T11:39:50Z</time>
      </trkpt>
      <trkpt lat="45.66232" lon="5.83569">
        <ele>957.13</ele>
        <time>2014-04-26T11:39:54Z</time>
      </trkpt>
      <trkpt lat="45.66239" lon="5.8357">
        <ele>957.13</ele>
        <time>2014-04-26T11:39:58Z</time>
      </trkpt>
      <trkpt lat="45.66268" lon="5.83575">
        <ele>953.28</ele>
        <time>2014-04-26T11:40:15Z</time>
      </trkpt>
      <trkpt lat="45.66271" lon="5.83579">
        <ele>952.8</ele>
        <time>2014-04-26T11:40:21Z</time>
      </trkpt>
      <trkpt lat="45.6627" lon="5.83589">
        <ele>950.88</ele>
        <time>2014-04-26T11:40:35Z</time>
      </trkpt>
      <trkpt lat="45.66256" lon="5.83605">
        <ele>941.75</ele>
        <time>2014-04-26T11:40:51Z</time>
      </trkpt>
      <trkpt lat="45.66255" lon="5.83606">
        <ele>950.4</ele>
        <time>2014-04-26T11:40:52Z</time>
      </trkpt>
      <trkpt lat="45.66249" lon="5.83607">
        <ele>946.56</ele>
        <time>2014-04-26T11:40:59Z</time>
      </trkpt>
      <trkpt lat="45.66248" lon="5.83607">
        <ele>947.52</ele>
        <time>2014-04-26T11:41:00Z</time>
      </trkpt>
      <trkpt lat="45.66247" lon="5.83607">
        <ele>948.48</ele>
        <time>2014-04-26T11:41:02Z</time>
      </trkpt>
      <trkpt lat="45.66246" lon="5.83607">
        <ele>944.15</ele>
        <time>2014-04-26T11:41:03Z</time>
      </trkpt>
      <trkpt lat="45.66246" lon="5.83607">
        <ele>948.96</ele>
        <time>2014-04-26T11:41:04Z</time>
      </trkpt>
      <trkpt lat="45.66244" lon="5.83608">
        <ele>947.52</ele>
        <time>2014-04-26T11:41:07Z</time>
      </trkpt>
      <trkpt lat="45.66237" lon="5.83608">
        <ele>941.75</ele>
        <time>2014-04-26T11:41:14Z</time>
      </trkpt>
      <trkpt lat="45.66236" lon="5.83608">
        <ele>950.88</ele>
        <time>2014-04-26T11:41:15Z</time>
      </trkpt>
      <trkpt lat="45.66235" lon="5.83608">
        <ele>946.07</ele>
        <time>2014-04-26T11:41:16Z</time>
      </trkpt>
      <trkpt lat="45.66223" lon="5.83614">
        <ele>944.63</ele>
        <time>2014-04-26T11:41:32Z</time>
      </trkpt>
      <trkpt lat="45.66222" lon="5.83615">
        <ele>941.27</ele>
        <time>2014-04-26T11:41:45Z</time>
      </trkpt>
      <trkpt lat="45.66227" lon="5.83629">
        <ele>937.9</ele>
        <time>2014-04-26T11:41:59Z</time>
      </trkpt>
      <trkpt lat="45.66228" lon="5.83631">
        <ele>937.9</ele>
        <time>2014-04-26T11:42:00Z</time>
      </trkpt>
      <trkpt lat="45.6623" lon="5.83634">
        <ele>937.42</ele>
        <time>2014-04-26T11:42:02Z</time>
      </trkpt>
      <trkpt lat="45.66233" lon="5.8364">
        <ele>936.94</ele>
        <time>2014-04-26T11:42:11Z</time>
      </trkpt>
      <trkpt lat="45.66235" lon="5.83641">
        <ele>935.5</ele>
        <time>2014-04-26T11:42:14Z</time>
      </trkpt>
      <trkpt lat="45.66238" lon="5.83645">
        <ele>935.02</ele>
        <time>2014-04-26T11:42:19Z</time>
      </trkpt>
      <trkpt lat="45.66242" lon="5.83647">
        <ele>939.35</ele>
        <time>2014-04-26T11:42:22Z</time>
      </trkpt>
      <trkpt lat="45.66243" lon="5.83647">
        <ele>935.02</ele>
        <time>2014-04-26T11:42:23Z</time>
      </trkpt>
      <trkpt lat="45.66255" lon="5.8366">
        <ele>933.58</ele>
        <time>2014-04-26T11:42:35Z</time>
      </trkpt>
      <trkpt lat="45.66261" lon="5.83664">
        <ele>933.1</ele>
        <time>2014-04-26T11:42:39Z</time>
      </trkpt>
      <trkpt lat="45.66264" lon="5.83666">
        <ele>936.46</ele>
        <time>2014-04-26T11:42:50Z</time>
      </trkpt>
      <trkpt lat="45.66264" lon="5.83665">
        <ele>935.02</ele>
        <time>2014-04-26T11:42:51Z</time>
      </trkpt>
      <trkpt lat="45.66264" lon="5.83666">
        <ele>933.58</ele>
        <time>2014-04-26T11:42:54Z</time>
      </trkpt>
      <trkpt lat="45.66265" lon="5.83667">
        <ele>933.1</ele>
        <time>2014-04-26T11:43:00Z</time>
      </trkpt>
      <trkpt lat="45.6627" lon="5.83667">
        <ele>929.25</ele>
        <time>2014-04-26T11:43:05Z</time>
      </trkpt>
      <trkpt lat="45.6627" lon="5.83667">
        <ele>934.54</ele>
        <time>2014-04-26T11:43:06Z</time>
      </trkpt>
      <trkpt lat="45.66271" lon="5.83668">
        <ele>929.25</ele>
        <time>2014-04-26T11:43:14Z</time>
      </trkpt>
      <trkpt lat="45.66271" lon="5.83668">
        <ele>935.98</ele>
        <time>2014-04-26T11:43:15Z</time>
      </trkpt>
      <trkpt lat="45.66271" lon="5.83668">
        <ele>936.46</ele>
        <time>2014-04-26T11:43:16Z</time>
      </trkpt>
      <trkpt lat="45.66271" lon="5.83668">
        <ele>932.14</ele>
        <time>2014-04-26T11:43:17Z</time>
      </trkpt>
      <trkpt lat="45.66271" lon="5.83668">
        <ele>934.06</ele>
        <time>2014-04-26T11:43:20Z</time>
      </trkpt>
      <trkpt lat="45.66271" lon="5.83668">
        <ele>910.99</ele>
        <time>2014-04-26T11:43:24Z</time>
      </trkpt>
      <trkpt lat="45.66271" lon="5.83668">
        <ele>952.8</ele>
        <time>2014-04-26T11:43:25Z</time>
      </trkpt>
      <trkpt lat="45.66272" lon="5.83667">
        <ele>935.02</ele>
        <time>2014-04-26T11:43:26Z</time>
      </trkpt>
      <trkpt lat="45.66273" lon="5.83665">
        <ele>934.54</ele>
        <time>2014-04-26T11:43:28Z</time>
      </trkpt>
      <trkpt lat="45.66274" lon="5.83664">
        <ele>935.02</ele>
        <time>2014-04-26T11:43:30Z</time>
      </trkpt>
      <trkpt lat="45.66277" lon="5.8366">
        <ele>935.5</ele>
        <time>2014-04-26T11:43:33Z</time>
      </trkpt>
      <trkpt lat="45.66279" lon="5.83655">
        <ele>935.98</ele>
        <time>2014-04-26T11:43:40Z</time>
      </trkpt>
      <trkpt lat="45.66281" lon="5.83643">
        <ele>937.9</ele>
        <time>2014-04-26T11:43:55Z</time>
      </trkpt>
      <trkpt lat="45.66284" lon="5.83642">
        <ele>937.42</ele>
        <time>2014-04-26T11:44:14Z</time>
      </trkpt>
      <trkpt lat="45.66282" lon="5.83647">
        <ele>937.42</ele>
        <time>2014-04-26T11:44:18Z</time>
      </trkpt>
      <trkpt lat="45.66275" lon="5.83657">
        <ele>935.5</ele>
        <time>2014-04-26T11:44:27Z</time>
      </trkpt>
      <trkpt lat="45.66274" lon="5.83663">
        <ele>935.02</ele>
        <time>2014-04-26T11:44:29Z</time>
      </trkpt>
      <trkpt lat="45.6627" lon="5.83682">
        <ele>933.1</ele>
        <time>2014-04-26T11:44:43Z</time>
      </trkpt>
      <trkpt lat="45.66263" lon="5.83694">
        <ele>933.1</ele>
        <time>2014-04-26T11:44:58Z</time>
      </trkpt>
      <trkpt lat="45.66263" lon="5.83698">
        <ele>930.21</ele>
        <time>2014-04-26T11:45:11Z</time>
      </trkpt>
      <trkpt lat="45.66263" lon="5.83699">
        <ele>927.81</ele>
        <time>2014-04-26T11:45:23Z</time>
      </trkpt>
      <trkpt lat="45.66263" lon="5.837">
        <ele>924.45</ele>
        <time>2014-04-26T11:45:36Z</time>
      </trkpt>
      <trkpt lat="45.66263" lon="5.83701">
        <ele>924.93</ele>
        <time>2014-04-26T11:45:40Z</time>
      </trkpt>
      <trkpt lat="45.66264" lon="5.83701">
        <ele>923</ele>
        <time>2014-04-26T11:45:42Z</time>
      </trkpt>
      <trkpt lat="45.66273" lon="5.83709">
        <ele>921.08</ele>
        <time>2014-04-26T11:45:54Z</time>
      </trkpt>
      <trkpt lat="45.66278" lon="5.83718">
        <ele>918.2</ele>
        <time>2014-04-26T11:46:06Z</time>
      </trkpt>
      <trkpt lat="45.66302" lon="5.83724">
        <ele>916.27</ele>
        <time>2014-04-26T11:46:21Z</time>
      </trkpt>
      <trkpt lat="45.66305" lon="5.83728">
        <ele>915.31</ele>
        <time>2014-04-26T11:46:34Z</time>
      </trkpt>
      <trkpt lat="45.66307" lon="5.83728">
        <ele>911.95</ele>
        <time>2014-04-26T11:46:49Z</time>
      </trkpt>
      <trkpt lat="45.66314" lon="5.83726">
        <ele>910.99</ele>
        <time>2014-04-26T11:47:05Z</time>
      </trkpt>
      <trkpt lat="45.66318" lon="5.83729">
        <ele>911.47</ele>
        <time>2014-04-26T11:47:18Z</time>
      </trkpt>
      <trkpt lat="45.66322" lon="5.83737">
        <ele>909.54</ele>
        <time>2014-04-26T11:47:31Z</time>
      </trkpt>
      <trkpt lat="45.66321" lon="5.83741">
        <ele>907.14</ele>
        <time>2014-04-26T11:47:51Z</time>
      </trkpt>
      <trkpt lat="45.66324" lon="5.83744">
        <ele>906.66</ele>
        <time>2014-04-26T11:48:04Z</time>
      </trkpt>
      <trkpt lat="45.66329" lon="5.83752">
        <ele>902.82</ele>
        <time>2014-04-26T11:48:11Z</time>
      </trkpt>
      <trkpt lat="45.66329" lon="5.83752">
        <ele>907.14</ele>
        <time>2014-04-26T11:48:12Z</time>
      </trkpt>
      <trkpt lat="45.6633" lon="5.83751">
        <ele>902.33</ele>
        <time>2014-04-26T11:48:14Z</time>
      </trkpt>
      <trkpt lat="45.6633" lon="5.83752">
        <ele>905.7</ele>
        <time>2014-04-26T11:48:15Z</time>
      </trkpt>
      <trkpt lat="45.66333" lon="5.83753">
        <ele>900.89</ele>
        <time>2014-04-26T11:48:22Z</time>
      </trkpt>
      <trkpt lat="45.66333" lon="5.83753">
        <ele>904.26</ele>
        <time>2014-04-26T11:48:23Z</time>
      </trkpt>
      <trkpt lat="45.66334" lon="5.83753">
        <ele>907.14</ele>
        <time>2014-04-26T11:48:27Z</time>
      </trkpt>
      <trkpt lat="45.66339" lon="5.83753">
        <ele>903.78</ele>
        <time>2014-04-26T11:48:36Z</time>
      </trkpt>
      <trkpt lat="45.6634" lon="5.83755">
        <ele>914.35</ele>
        <time>2014-04-26T11:48:48Z</time>
      </trkpt>
      <trkpt lat="45.6634" lon="5.83755">
        <ele>903.78</ele>
        <time>2014-04-26T11:48:49Z</time>
      </trkpt>
      <trkpt lat="45.66344" lon="5.83762">
        <ele>900.89</ele>
        <time>2014-04-26T11:49:01Z</time>
      </trkpt>
      <trkpt lat="45.66344" lon="5.83766">
        <ele>899.45</ele>
        <time>2014-04-26T11:49:11Z</time>
      </trkpt>
      <trkpt lat="45.66345" lon="5.83771">
        <ele>896.09</ele>
        <time>2014-04-26T11:49:25Z</time>
      </trkpt>
      <trkpt lat="45.6635" lon="5.8378">
        <ele>893.2</ele>
        <time>2014-04-26T11:49:41Z</time>
      </trkpt>
      <trkpt lat="45.66352" lon="5.83786">
        <ele>891.76</ele>
        <time>2014-04-26T11:49:58Z</time>
      </trkpt>
      <trkpt lat="45.66352" lon="5.83796">
        <ele>888.4</ele>
        <time>2014-04-26T11:50:17Z</time>
      </trkpt>
      <trkpt lat="45.66357" lon="5.83806">
        <ele>885.03</ele>
        <time>2014-04-26T11:50:31Z</time>
      </trkpt>
      <trkpt lat="45.66358" lon="5.83808">
        <ele>885.03</ele>
        <time>2014-04-26T11:50:32Z</time>
      </trkpt>
      <trkpt lat="45.66358" lon="5.83814">
        <ele>881.67</ele>
        <time>2014-04-26T11:50:44Z</time>
      </trkpt>
      <trkpt lat="45.66354" lon="5.83822">
        <ele>879.26</ele>
        <time>2014-04-26T11:50:56Z</time>
      </trkpt>
      <trkpt lat="45.66357" lon="5.83826">
        <ele>877.34</ele>
        <time>2014-04-26T11:51:03Z</time>
      </trkpt>
      <trkpt lat="45.66352" lon="5.83846">
        <ele>874.46</ele>
        <time>2014-04-26T11:51:16Z</time>
      </trkpt>
      <trkpt lat="45.66351" lon="5.83849">
        <ele>871.57</ele>
        <time>2014-04-26T11:51:24Z</time>
      </trkpt>
      <trkpt lat="45.66353" lon="5.83857">
        <ele>868.69</ele>
        <time>2014-04-26T11:51:40Z</time>
      </trkpt>
      <trkpt lat="45.66351" lon="5.83864">
        <ele>866.29</ele>
        <time>2014-04-26T11:51:50Z</time>
      </trkpt>
      <trkpt lat="45.66349" lon="5.83869">
        <ele>863.4</ele>
        <time>2014-04-26T11:52:04Z</time>
      </trkpt>
      <trkpt lat="45.66348" lon="5.83869">
        <ele>860.04</ele>
        <time>2014-04-26T11:52:18Z</time>
      </trkpt>
      <trkpt lat="45.66347" lon="5.83879">
        <ele>856.67</ele>
        <time>2014-04-26T11:52:26Z</time>
      </trkpt>
      <trkpt lat="45.66341" lon="5.83889">
        <ele>852.83</ele>
        <time>2014-04-26T11:52:38Z</time>
      </trkpt>
      <trkpt lat="45.66341" lon="5.83897">
        <ele>850.42</ele>
        <time>2014-04-26T11:52:48Z</time>
      </trkpt>
      <trkpt lat="45.66341" lon="5.839">
        <ele>848.5</ele>
        <time>2014-04-26T11:52:55Z</time>
      </trkpt>
      <trkpt lat="45.6634" lon="5.83906">
        <ele>844.18</ele>
        <time>2014-04-26T11:53:04Z</time>
      </trkpt>
      <trkpt lat="45.66339" lon="5.83907">
        <ele>843.69</ele>
        <time>2014-04-26T11:53:06Z</time>
      </trkpt>
      <trkpt lat="45.66335" lon="5.83913">
        <ele>840.33</ele>
        <time>2014-04-26T11:53:18Z</time>
      </trkpt>
      <trkpt lat="45.66332" lon="5.83913">
        <ele>839.85</ele>
        <time>2014-04-26T11:53:34Z</time>
      </trkpt>
      <trkpt lat="45.66331" lon="5.83918">
        <ele>838.41</ele>
        <time>2014-04-26T11:53:47Z</time>
      </trkpt>
      <trkpt lat="45.66331" lon="5.83919">
        <ele>840.33</ele>
        <time>2014-04-26T11:54:09Z</time>
      </trkpt>
      <trkpt lat="45.66339" lon="5.83925">
        <ele>837.45</ele>
        <time>2014-04-26T11:54:22Z</time>
      </trkpt>
      <trkpt lat="45.66341" lon="5.83926">
        <ele>835.52</ele>
        <time>2014-04-26T11:54:35Z</time>
      </trkpt>
      <trkpt lat="45.66341" lon="5.83931">
        <ele>834.08</ele>
        <time>2014-04-26T11:54:50Z</time>
      </trkpt>
      <trkpt lat="45.66343" lon="5.83936">
        <ele>833.12</ele>
        <time>2014-04-26T11:55:09Z</time>
      </trkpt>
      <trkpt lat="45.66348" lon="5.83938">
        <ele>831.2</ele>
        <time>2014-04-26T11:55:24Z</time>
      </trkpt>
      <trkpt lat="45.66351" lon="5.83938">
        <ele>830.24</ele>
        <time>2014-04-26T11:55:34Z</time>
      </trkpt>
      <trkpt lat="45.66351" lon="5.8394">
        <ele>826.87</ele>
        <time>2014-04-26T11:55:36Z</time>
      </trkpt>
      <trkpt lat="45.66351" lon="5.83941">
        <ele>827.35</ele>
        <time>2014-04-26T11:55:37Z</time>
      </trkpt>
      <trkpt lat="45.66349" lon="5.83942">
        <ele>826.39</ele>
        <time>2014-04-26T11:55:51Z</time>
      </trkpt>
      <trkpt lat="45.66346" lon="5.83943">
        <ele>825.43</ele>
        <time>2014-04-26T11:56:06Z</time>
      </trkpt>
      <trkpt lat="45.66344" lon="5.83944">
        <ele>824.95</ele>
        <time>2014-04-26T11:56:29Z</time>
      </trkpt>
      <trkpt lat="45.66343" lon="5.83945">
        <ele>823.99</ele>
        <time>2014-04-26T11:56:46Z</time>
      </trkpt>
      <trkpt lat="45.66342" lon="5.83947">
        <ele>823.51</ele>
        <time>2014-04-26T11:57:08Z</time>
      </trkpt>
      <trkpt lat="45.66343" lon="5.83948">
        <ele>823.99</ele>
        <time>2014-04-26T11:57:40Z</time>
      </trkpt>
      <trkpt lat="45.66341" lon="5.83952">
        <ele>823.51</ele>
        <time>2014-04-26T11:57:55Z</time>
      </trkpt>
      <trkpt lat="45.66342" lon="5.83957">
        <ele>823.99</ele>
        <time>2014-04-26T11:58:38Z</time>
      </trkpt>
      <trkpt lat="45.66343" lon="5.83959">
        <ele>823.99</ele>
        <time>2014-04-26T11:59:09Z</time>
      </trkpt>
      <trkpt lat="45.66344" lon="5.83959">
        <ele>823.99</ele>
        <time>2014-04-26T11:59:42Z</time>
      </trkpt>
      <trkpt lat="45.66343" lon="5.83958">
        <ele>823.99</ele>
        <time>2014-04-26T11:59:53Z</time>
      </trkpt>
      <trkpt lat="45.66341" lon="5.83959">
        <ele>824.95</ele>
        <time>2014-04-26T12:00:05Z</time>
      </trkpt>
      <trkpt lat="45.6634" lon="5.83957">
        <ele>824.95</ele>
        <time>2014-04-26T12:00:25Z</time>
      </trkpt>
      <trkpt lat="45.6634" lon="5.83955">
        <ele>824.95</ele>
        <time>2014-04-26T12:00:44Z</time>
      </trkpt>
      <trkpt lat="45.6634" lon="5.83956">
        <ele>822.55</ele>
        <time>2014-04-26T12:00:52Z</time>
      </trkpt>
      <trkpt lat="45.66341" lon="5.83957">
        <ele>819.66</ele>
        <time>2014-04-26T12:01:06Z</time>
      </trkpt>
      <trkpt lat="45.66338" lon="5.83959">
        <ele>817.26</ele>
        <time>2014-04-26T12:01:19Z</time>
      </trkpt>
      <trkpt lat="45.66336" lon="5.83959">
        <ele>816.3</ele>
        <time>2014-04-26T12:01:34Z</time>
      </trkpt>
      <trkpt lat="45.66333" lon="5.83963">
        <ele>814.85</ele>
        <time>2014-04-26T12:01:50Z</time>
      </trkpt>
      <trkpt lat="45.66335" lon="5.83966">
        <ele>812.93</ele>
        <time>2014-04-26T12:02:05Z</time>
      </trkpt>
      <trkpt lat="45.66337" lon="5.83968">
        <ele>810.53</ele>
        <time>2014-04-26T12:02:21Z</time>
      </trkpt>
      <trkpt lat="45.66335" lon="5.83971">
        <ele>807.16</ele>
        <time>2014-04-26T12:02:33Z</time>
      </trkpt>
      <trkpt lat="45.66332" lon="5.83973">
        <ele>805.24</ele>
        <time>2014-04-26T12:02:51Z</time>
      </trkpt>
      <trkpt lat="45.66331" lon="5.83977">
        <ele>801.88</ele>
        <time>2014-04-26T12:03:02Z</time>
      </trkpt>
      <trkpt lat="45.66328" lon="5.8398">
        <ele>800.44</ele>
        <time>2014-04-26T12:03:18Z</time>
      </trkpt>
      <trkpt lat="45.66327" lon="5.83981">
        <ele>799.47</ele>
        <time>2014-04-26T12:03:20Z</time>
      </trkpt>
      <trkpt lat="45.66325" lon="5.83983">
        <ele>799.95</ele>
        <time>2014-04-26T12:03:37Z</time>
      </trkpt>
      <trkpt lat="45.66326" lon="5.83985">
        <ele>799.95</ele>
        <time>2014-04-26T12:03:47Z</time>
      </trkpt>
      <trkpt lat="45.66326" lon="5.83986">
        <ele>796.59</ele>
        <time>2014-04-26T12:03:52Z</time>
      </trkpt>
      <trkpt lat="45.66326" lon="5.83986">
        <ele>801.4</ele>
        <time>2014-04-26T12:03:53Z</time>
      </trkpt>
      <trkpt lat="45.66325" lon="5.83985">
        <ele>798.03</ele>
        <time>2014-04-26T12:04:05Z</time>
      </trkpt>
      <trkpt lat="45.66324" lon="5.83987">
        <ele>793.71</ele>
        <time>2014-04-26T12:04:13Z</time>
      </trkpt>
      <trkpt lat="45.66325" lon="5.83987">
        <ele>802.84</ele>
        <time>2014-04-26T12:04:14Z</time>
      </trkpt>
      <trkpt lat="45.66325" lon="5.83987">
        <ele>798.03</ele>
        <time>2014-04-26T12:04:15Z</time>
      </trkpt>
      <trkpt lat="45.66323" lon="5.83989">
        <ele>800.44</ele>
        <time>2014-04-26T12:04:37Z</time>
      </trkpt>
      <trkpt lat="45.66323" lon="5.83993">
        <ele>798.03</ele>
        <time>2014-04-26T12:05:00Z</time>
      </trkpt>
      <trkpt lat="45.66323" lon="5.83994">
        <ele>798.03</ele>
        <time>2014-04-26T12:05:01Z</time>
      </trkpt>
      <trkpt lat="45.66322" lon="5.84">
        <ele>796.11</ele>
        <time>2014-04-26T12:05:07Z</time>
      </trkpt>
      <trkpt lat="45.66322" lon="5.84009">
        <ele>793.22</ele>
        <time>2014-04-26T12:05:17Z</time>
      </trkpt>
      <trkpt lat="45.66322" lon="5.84018">
        <ele>791.78</ele>
        <time>2014-04-26T12:05:24Z</time>
      </trkpt>
      <trkpt lat="45.66316" lon="5.84025">
        <ele>788.9</ele>
        <time>2014-04-26T12:05:37Z</time>
      </trkpt>
      <trkpt lat="45.66313" lon="5.84033">
        <ele>786.5</ele>
        <time>2014-04-26T12:05:49Z</time>
      </trkpt>
      <trkpt lat="45.6631" lon="5.8404">
        <ele>783.13</ele>
        <time>2014-04-26T12:05:56Z</time>
      </trkpt>
      <trkpt lat="45.66303" lon="5.8405">
        <ele>780.25</ele>
        <time>2014-04-26T12:06:06Z</time>
      </trkpt>
      <trkpt lat="45.663" lon="5.84055">
        <ele>776.4</ele>
        <time>2014-04-26T12:06:16Z</time>
      </trkpt>
      <trkpt lat="45.663" lon="5.84055">
        <ele>776.88</ele>
        <time>2014-04-26T12:06:17Z</time>
      </trkpt>
      <trkpt lat="45.66299" lon="5.84058">
        <ele>774.96</ele>
        <time>2014-04-26T12:06:21Z</time>
      </trkpt>
      <trkpt lat="45.66298" lon="5.84062">
        <ele>772.08</ele>
        <time>2014-04-26T12:06:36Z</time>
      </trkpt>
      <trkpt lat="45.66299" lon="5.84074">
        <ele>769.19</ele>
        <time>2014-04-26T12:06:49Z</time>
      </trkpt>
      <trkpt lat="45.66301" lon="5.84074">
        <ele>765.83</ele>
        <time>2014-04-26T12:07:05Z</time>
      </trkpt>
      <trkpt lat="45.66302" lon="5.84076">
        <ele>762.46</ele>
        <time>2014-04-26T12:07:18Z</time>
      </trkpt>
      <trkpt lat="45.66303" lon="5.84078">
        <ele>755.73</ele>
        <time>2014-04-26T12:07:29Z</time>
      </trkpt>
      <trkpt lat="45.66303" lon="5.84078">
        <ele>763.9</ele>
        <time>2014-04-26T12:07:30Z</time>
      </trkpt>
      <trkpt lat="45.66303" lon="5.84078">
        <ele>761.98</ele>
        <time>2014-04-26T12:07:31Z</time>
      </trkpt>
      <trkpt lat="45.66303" lon="5.84078">
        <ele>758.14</ele>
        <time>2014-04-26T12:07:34Z</time>
      </trkpt>
      <trkpt lat="45.66303" lon="5.84078">
        <ele>767.27</ele>
        <time>2014-04-26T12:07:35Z</time>
      </trkpt>
      <trkpt lat="45.66303" lon="5.84078">
        <ele>761.5</ele>
        <time>2014-04-26T12:07:36Z</time>
      </trkpt>
      <trkpt lat="45.66303" lon="5.84079">
        <ele>761.5</ele>
        <time>2014-04-26T12:07:54Z</time>
      </trkpt>
      <trkpt lat="45.66307" lon="5.84079">
        <ele>761.02</ele>
        <time>2014-04-26T12:08:16Z</time>
      </trkpt>
      <trkpt lat="45.66313" lon="5.84081">
        <ele>757.66</ele>
        <time>2014-04-26T12:08:33Z</time>
      </trkpt>
      <trkpt lat="45.66313" lon="5.84081">
        <ele>761.02</ele>
        <time>2014-04-26T12:08:45Z</time>
      </trkpt>
      <trkpt lat="45.66312" lon="5.84082">
        <ele>758.14</ele>
        <time>2014-04-26T12:09:08Z</time>
      </trkpt>
      <trkpt lat="45.66312" lon="5.84082">
        <ele>759.1</ele>
        <time>2014-04-26T12:09:33Z</time>
      </trkpt>
      <trkpt lat="45.66312" lon="5.8408">
        <ele>759.1</ele>
        <time>2014-04-26T12:09:56Z</time>
      </trkpt>
      <trkpt lat="45.66311" lon="5.84079">
        <ele>762.46</ele>
        <time>2014-04-26T12:10:03Z</time>
      </trkpt>
      <trkpt lat="45.66311" lon="5.84078">
        <ele>755.25</ele>
        <time>2014-04-26T12:10:04Z</time>
      </trkpt>
      <trkpt lat="45.66311" lon="5.84078">
        <ele>761.02</ele>
        <time>2014-04-26T12:10:05Z</time>
      </trkpt>
      <trkpt lat="45.66309" lon="5.84076">
        <ele>756.69</ele>
        <time>2014-04-26T12:10:11Z</time>
      </trkpt>
      <trkpt lat="45.66308" lon="5.84076">
        <ele>759.58</ele>
        <time>2014-04-26T12:10:12Z</time>
      </trkpt>
      <trkpt lat="45.66306" lon="5.84075">
        <ele>759.58</ele>
        <time>2014-04-26T12:10:38Z</time>
      </trkpt>
      <trkpt lat="45.6631" lon="5.84074">
        <ele>759.58</ele>
        <time>2014-04-26T12:11:02Z</time>
      </trkpt>
      <trkpt lat="45.66326" lon="5.84083">
        <ele>757.18</ele>
        <time>2014-04-26T12:11:17Z</time>
      </trkpt>
      <trkpt lat="45.66345" lon="5.84092">
        <ele>759.58</ele>
        <time>2014-04-26T12:11:34Z</time>
      </trkpt>
      <trkpt lat="45.6636" lon="5.84101">
        <ele>761.98</ele>
        <time>2014-04-26T12:11:51Z</time>
      </trkpt>
      <trkpt lat="45.66368" lon="5.84102">
        <ele>759.58</ele>
        <time>2014-04-26T12:12:07Z</time>
      </trkpt>
      <trkpt lat="45.66387" lon="5.84104">
        <ele>757.66</ele>
        <time>2014-04-26T12:12:25Z</time>
      </trkpt>
      <trkpt lat="45.66414" lon="5.84115">
        <ele>754.77</ele>
        <time>2014-04-26T12:12:39Z</time>
      </trkpt>
      <trkpt lat="45.66431" lon="5.84123">
        <ele>755.25</ele>
        <time>2014-04-26T12:12:56Z</time>
      </trkpt>
      <trkpt lat="45.66449" lon="5.84133">
        <ele>755.25</ele>
        <time>2014-04-26T12:13:13Z</time>
      </trkpt>
      <trkpt lat="45.66461" lon="5.84143">
        <ele>753.33</ele>
        <time>2014-04-26T12:13:32Z</time>
      </trkpt>
      <trkpt lat="45.66465" lon="5.84156">
        <ele>751.41</ele>
        <time>2014-04-26T12:13:46Z</time>
      </trkpt>
      <trkpt lat="45.66454" lon="5.84161">
        <ele>748.52</ele>
        <time>2014-04-26T12:13:58Z</time>
      </trkpt>
      <trkpt lat="45.66444" lon="5.84161">
        <ele>746.12</ele>
        <time>2014-04-26T12:14:07Z</time>
      </trkpt>
      <trkpt lat="45.66431" lon="5.84164">
        <ele>744.68</ele>
        <time>2014-04-26T12:14:20Z</time>
      </trkpt>
      <trkpt lat="45.6643" lon="5.84165">
        <ele>744.68</ele>
        <time>2014-04-26T12:14:23Z</time>
      </trkpt>
      <trkpt lat="45.66426" lon="5.84165">
        <ele>743.24</ele>
        <time>2014-04-26T12:14:40Z</time>
      </trkpt>
      <trkpt lat="45.66427" lon="5.84167">
        <ele>741.79</ele>
        <time>2014-04-26T12:15:00Z</time>
      </trkpt>
      <trkpt lat="45.66437" lon="5.8417">
        <ele>739.39</ele>
        <time>2014-04-26T12:15:19Z</time>
      </trkpt>
      <trkpt lat="45.66446" lon="5.8418">
        <ele>736.03</ele>
        <time>2014-04-26T12:15:38Z</time>
      </trkpt>
      <trkpt lat="45.66448" lon="5.8418">
        <ele>737.47</ele>
        <time>2014-04-26T12:16:01Z</time>
      </trkpt>
      <trkpt lat="45.66453" lon="5.84182">
        <ele>736.51</ele>
        <time>2014-04-26T12:16:16Z</time>
      </trkpt>
      <trkpt lat="45.66463" lon="5.84193">
        <ele>734.58</ele>
        <time>2014-04-26T12:16:26Z</time>
      </trkpt>
      <trkpt lat="45.66476" lon="5.84205">
        <ele>731.22</ele>
        <time>2014-04-26T12:16:41Z</time>
      </trkpt>
      <trkpt lat="45.66485" lon="5.8421">
        <ele>728.34</ele>
        <time>2014-04-26T12:16:53Z</time>
      </trkpt>
      <trkpt lat="45.66499" lon="5.84223">
        <ele>724.97</ele>
        <time>2014-04-26T12:17:03Z</time>
      </trkpt>
      <trkpt lat="45.66505" lon="5.84232">
        <ele>723.05</ele>
        <time>2014-04-26T12:17:10Z</time>
      </trkpt>
      <trkpt lat="45.6651" lon="5.84236">
        <ele>720.16</ele>
        <time>2014-04-26T12:17:23Z</time>
      </trkpt>
      <trkpt lat="45.66516" lon="5.8423">
        <ele>716.8</ele>
        <time>2014-04-26T12:17:33Z</time>
      </trkpt>
      <trkpt lat="45.66522" lon="5.84224">
        <ele>713.92</ele>
        <time>2014-04-26T12:17:47Z</time>
      </trkpt>
      <trkpt lat="45.66524" lon="5.84224">
        <ele>712.47</ele>
        <time>2014-04-26T12:17:53Z</time>
      </trkpt>
      <trkpt lat="45.6653" lon="5.84233">
        <ele>710.07</ele>
        <time>2014-04-26T12:18:04Z</time>
      </trkpt>
      <trkpt lat="45.66529" lon="5.84251">
        <ele>707.67</ele>
        <time>2014-04-26T12:18:18Z</time>
      </trkpt>
      <trkpt lat="45.66529" lon="5.84264">
        <ele>704.3</ele>
        <time>2014-04-26T12:18:27Z</time>
      </trkpt>
      <trkpt lat="45.66533" lon="5.84267">
        <ele>700.46</ele>
        <time>2014-04-26T12:18:39Z</time>
      </trkpt>
      <trkpt lat="45.66541" lon="5.84267">
        <ele>697.09</ele>
        <time>2014-04-26T12:18:52Z</time>
      </trkpt>
      <trkpt lat="45.66545" lon="5.84271">
        <ele>694.21</ele>
        <time>2014-04-26T12:19:02Z</time>
      </trkpt>
      <trkpt lat="45.66551" lon="5.84272">
        <ele>691.33</ele>
        <time>2014-04-26T12:19:13Z</time>
      </trkpt>
      <trkpt lat="45.66575" lon="5.84279">
        <ele>688.44</ele>
        <time>2014-04-26T12:19:27Z</time>
      </trkpt>
      <trkpt lat="45.66581" lon="5.84278">
        <ele>687.48</ele>
        <time>2014-04-26T12:19:32Z</time>
      </trkpt>
      <trkpt lat="45.66595" lon="5.84277">
        <ele>684.6</ele>
        <time>2014-04-26T12:19:47Z</time>
      </trkpt>
      <trkpt lat="45.66602" lon="5.84274">
        <ele>681.23</ele>
        <time>2014-04-26T12:19:58Z</time>
      </trkpt>
      <trkpt lat="45.66622" lon="5.84274">
        <ele>678.35</ele>
        <time>2014-04-26T12:20:11Z</time>
      </trkpt>
      <trkpt lat="45.66633" lon="5.84281">
        <ele>674.98</ele>
        <time>2014-04-26T12:20:22Z</time>
      </trkpt>
      <trkpt lat="45.6664" lon="5.84284">
        <ele>674.02</ele>
        <time>2014-04-26T12:20:27Z</time>
      </trkpt>
      <trkpt lat="45.66648" lon="5.84293">
        <ele>658.64</ele>
        <time>2014-04-26T12:20:34Z</time>
      </trkpt>
      <trkpt lat="45.66649" lon="5.84294">
        <ele>675.46</ele>
        <time>2014-04-26T12:20:35Z</time>
      </trkpt>
      <trkpt lat="45.6665" lon="5.84295">
        <ele>672.1</ele>
        <time>2014-04-26T12:20:36Z</time>
      </trkpt>
      <trkpt lat="45.66652" lon="5.84296">
        <ele>672.1</ele>
        <time>2014-04-26T12:20:37Z</time>
      </trkpt>
      <trkpt lat="45.66662" lon="5.84311">
        <ele>670.18</ele>
        <time>2014-04-26T12:20:47Z</time>
      </trkpt>
      <trkpt lat="45.66672" lon="5.84321">
        <ele>665.37</ele>
        <time>2014-04-26T12:20:58Z</time>
      </trkpt>
      <trkpt lat="45.66681" lon="5.8433">
        <ele>662.01</ele>
        <time>2014-04-26T12:21:09Z</time>
      </trkpt>
      <trkpt lat="45.66695" lon="5.84342">
        <ele>659.12</ele>
        <time>2014-04-26T12:21:21Z</time>
      </trkpt>
      <trkpt lat="45.66712" lon="5.84346">
        <ele>655.76</ele>
        <time>2014-04-26T12:21:33Z</time>
      </trkpt>
      <trkpt lat="45.66722" lon="5.84345">
        <ele>653.83</ele>
        <time>2014-04-26T12:21:49Z</time>
      </trkpt>
      <trkpt lat="45.66723" lon="5.84346">
        <ele>652.87</ele>
        <time>2014-04-26T12:21:51Z</time>
      </trkpt>
      <trkpt lat="45.6672" lon="5.84355">
        <ele>649.99</ele>
        <time>2014-04-26T12:22:03Z</time>
      </trkpt>
      <trkpt lat="45.66716" lon="5.84369">
        <ele>647.59</ele>
        <time>2014-04-26T12:22:17Z</time>
      </trkpt>
      <trkpt lat="45.66706" lon="5.84379">
        <ele>645.66</ele>
        <time>2014-04-26T12:22:26Z</time>
      </trkpt>
      <trkpt lat="45.66685" lon="5.84382">
        <ele>642.3</ele>
        <time>2014-04-26T12:22:43Z</time>
      </trkpt>
      <trkpt lat="45.66685" lon="5.84386">
        <ele>639.41</ele>
        <time>2014-04-26T12:22:53Z</time>
      </trkpt>
      <trkpt lat="45.66693" lon="5.84395">
        <ele>637.01</ele>
        <time>2014-04-26T12:23:04Z</time>
      </trkpt>
      <trkpt lat="45.66692" lon="5.84401">
        <ele>635.57</ele>
        <time>2014-04-26T12:23:11Z</time>
      </trkpt>
      <trkpt lat="45.66693" lon="5.84408">
        <ele>633.65</ele>
        <time>2014-04-26T12:23:15Z</time>
      </trkpt>
      <trkpt lat="45.66692" lon="5.84414">
        <ele>633.17</ele>
        <time>2014-04-26T12:23:32Z</time>
      </trkpt>
      <trkpt lat="45.66692" lon="5.84415">
        <ele>632.68</ele>
        <time>2014-04-26T12:23:59Z</time>
      </trkpt>
      <trkpt lat="45.66693" lon="5.84417">
        <ele>632.68</ele>
        <time>2014-04-26T12:24:15Z</time>
      </trkpt>
      <trkpt lat="45.66692" lon="5.84417">
        <ele>632.68</ele>
        <time>2014-04-26T12:24:36Z</time>
      </trkpt>
      <trkpt lat="45.66693" lon="5.84417">
        <ele>633.17</ele>
        <time>2014-04-26T12:25:01Z</time>
      </trkpt>
      <trkpt lat="45.66702" lon="5.84418">
        <ele>631.72</ele>
        <time>2014-04-26T12:25:15Z</time>
      </trkpt>
      <trkpt lat="45.66712" lon="5.84412">
        <ele>629.8</ele>
        <time>2014-04-26T12:25:30Z</time>
      </trkpt>
      <trkpt lat="45.66728" lon="5.8441">
        <ele>628.36</ele>
        <time>2014-04-26T12:25:47Z</time>
      </trkpt>
      <trkpt lat="45.66733" lon="5.84411">
        <ele>625.47</ele>
        <time>2014-04-26T12:26:03Z</time>
      </trkpt>
      <trkpt lat="45.66743" lon="5.84414">
        <ele>622.59</ele>
        <time>2014-04-26T12:26:16Z</time>
      </trkpt>
      <trkpt lat="45.66758" lon="5.84419">
        <ele>619.71</ele>
        <time>2014-04-26T12:26:32Z</time>
      </trkpt>
      <trkpt lat="45.66771" lon="5.8442">
        <ele>617.3</ele>
        <time>2014-04-26T12:26:47Z</time>
      </trkpt>
      <trkpt lat="45.66781" lon="5.84427">
        <ele>615.38</ele>
        <time>2014-04-26T12:26:59Z</time>
      </trkpt>
      <trkpt lat="45.66797" lon="5.84441">
        <ele>612.5</ele>
        <time>2014-04-26T12:27:16Z</time>
      </trkpt>
      <trkpt lat="45.66817" lon="5.8446">
        <ele>609.13</ele>
        <time>2014-04-26T12:27:32Z</time>
      </trkpt>
      <trkpt lat="45.6683" lon="5.84478">
        <ele>608.65</ele>
        <time>2014-04-26T12:27:47Z</time>
      </trkpt>
      <trkpt lat="45.66845" lon="5.84486">
        <ele>605.77</ele>
        <time>2014-04-26T12:28:05Z</time>
      </trkpt>
      <trkpt lat="45.66853" lon="5.84491">
        <ele>602.88</ele>
        <time>2014-04-26T12:28:22Z</time>
      </trkpt>
      <trkpt lat="45.6687" lon="5.84499">
        <ele>600</ele>
        <time>2014-04-26T12:28:40Z</time>
      </trkpt>
      <trkpt lat="45.66884" lon="5.84512">
        <ele>597.6</ele>
        <time>2014-04-26T12:28:55Z</time>
      </trkpt>
      <trkpt lat="45.66896" lon="5.84522">
        <ele>594.23</ele>
        <time>2014-04-26T12:29:08Z</time>
      </trkpt>
      <trkpt lat="45.66902" lon="5.8453">
        <ele>594.23</ele>
        <time>2014-04-26T12:29:14Z</time>
      </trkpt>
      <trkpt lat="45.66917" lon="5.84546">
        <ele>591.83</ele>
        <time>2014-04-26T12:29:30Z</time>
      </trkpt>
      <trkpt lat="45.66945" lon="5.84564">
        <ele>589.43</ele>
        <time>2014-04-26T12:29:48Z</time>
      </trkpt>
      <trkpt lat="45.66958" lon="5.84578">
        <ele>588.46</ele>
        <time>2014-04-26T12:30:03Z</time>
      </trkpt>
      <trkpt lat="45.66974" lon="5.84587">
        <ele>586.06</ele>
        <time>2014-04-26T12:30:19Z</time>
      </trkpt>
      <trkpt lat="45.66984" lon="5.84592">
        <ele>584.14</ele>
        <time>2014-04-26T12:30:32Z</time>
      </trkpt>
      <trkpt lat="45.66994" lon="5.84607">
        <ele>582.7</ele>
        <time>2014-04-26T12:30:47Z</time>
      </trkpt>
      <trkpt lat="45.67007" lon="5.84627">
        <ele>582.22</ele>
        <time>2014-04-26T12:31:01Z</time>
      </trkpt>
      <trkpt lat="45.67016" lon="5.84638">
        <ele>582.22</ele>
        <time>2014-04-26T12:31:14Z</time>
      </trkpt>
      <trkpt lat="45.67018" lon="5.84641">
        <ele>581.25</ele>
        <time>2014-04-26T12:31:17Z</time>
      </trkpt>
      <trkpt lat="45.6703" lon="5.84655">
        <ele>580.29</ele>
        <time>2014-04-26T12:31:33Z</time>
      </trkpt>
      <trkpt lat="45.67047" lon="5.84673">
        <ele>577.89</ele>
        <time>2014-04-26T12:31:48Z</time>
      </trkpt>
      <trkpt lat="45.6706" lon="5.84681">
        <ele>575.01</ele>
        <time>2014-04-26T12:32:04Z</time>
      </trkpt>
      <trkpt lat="45.67066" lon="5.84682">
        <ele>571.64</ele>
        <time>2014-04-26T12:32:15Z</time>
      </trkpt>
      <trkpt lat="45.67071" lon="5.847">
        <ele>569.72</ele>
        <time>2014-04-26T12:32:29Z</time>
      </trkpt>
      <trkpt lat="45.6708" lon="5.84698">
        <ele>566.35</ele>
        <time>2014-04-26T12:32:41Z</time>
      </trkpt>
      <trkpt lat="45.67083" lon="5.847">
        <ele>566.83</ele>
        <time>2014-04-26T12:32:43Z</time>
      </trkpt>
      <trkpt lat="45.67084" lon="5.84702">
        <ele>566.35</ele>
        <time>2014-04-26T12:32:45Z</time>
      </trkpt>
      <trkpt lat="45.67084" lon="5.84703">
        <ele>565.39</ele>
        <time>2014-04-26T12:32:47Z</time>
      </trkpt>
      <trkpt lat="45.67085" lon="5.84712">
        <ele>562.99</ele>
        <time>2014-04-26T12:32:57Z</time>
      </trkpt>
      <trkpt lat="45.67088" lon="5.84709">
        <ele>560.59</ele>
        <time>2014-04-26T12:33:08Z</time>
      </trkpt>
      <trkpt lat="45.6709" lon="5.84708">
        <ele>557.7</ele>
        <time>2014-04-26T12:33:22Z</time>
      </trkpt>
      <trkpt lat="45.67092" lon="5.84709">
        <ele>554.34</ele>
        <time>2014-04-26T12:33:33Z</time>
      </trkpt>
      <trkpt lat="45.67095" lon="5.84716">
        <ele>550.97</ele>
        <time>2014-04-26T12:33:46Z</time>
      </trkpt>
      <trkpt lat="45.67101" lon="5.84718">
        <ele>548.57</ele>
        <time>2014-04-26T12:33:58Z</time>
      </trkpt>
      <trkpt lat="45.67109" lon="5.84712">
        <ele>545.69</ele>
        <time>2014-04-26T12:34:12Z</time>
      </trkpt>
      <trkpt lat="45.67117" lon="5.84712">
        <ele>543.76</ele>
        <time>2014-04-26T12:34:27Z</time>
      </trkpt>
      <trkpt lat="45.67133" lon="5.84714">
        <ele>542.32</ele>
        <time>2014-04-26T12:34:43Z</time>
      </trkpt>
      <trkpt lat="45.67146" lon="5.84721">
        <ele>541.84</ele>
        <time>2014-04-26T12:34:57Z</time>
      </trkpt>
      <trkpt lat="45.67153" lon="5.84735">
        <ele>539.44</ele>
        <time>2014-04-26T12:35:10Z</time>
      </trkpt>
      <trkpt lat="45.6715" lon="5.84755">
        <ele>537.03</ele>
        <time>2014-04-26T12:35:22Z</time>
      </trkpt>
      <trkpt lat="45.67138" lon="5.84772">
        <ele>535.59</ele>
        <time>2014-04-26T12:35:34Z</time>
      </trkpt>
      <trkpt lat="45.67128" lon="5.8479">
        <ele>533.67</ele>
        <time>2014-04-26T12:35:49Z</time>
      </trkpt>
      <trkpt lat="45.67129" lon="5.84791">
        <ele>532.71</ele>
        <time>2014-04-26T12:35:50Z</time>
      </trkpt>
      <trkpt lat="45.67139" lon="5.84802">
        <ele>531.27</ele>
        <time>2014-04-26T12:36:04Z</time>
      </trkpt>
      <trkpt lat="45.67151" lon="5.84806">
        <ele>529.34</ele>
        <time>2014-04-26T12:36:15Z</time>
      </trkpt>
      <trkpt lat="45.67166" lon="5.84811">
        <ele>526.46</ele>
        <time>2014-04-26T12:36:30Z</time>
      </trkpt>
      <trkpt lat="45.67176" lon="5.84817">
        <ele>524.06</ele>
        <time>2014-04-26T12:36:41Z</time>
      </trkpt>
      <trkpt lat="45.67186" lon="5.84827">
        <ele>522.13</ele>
        <time>2014-04-26T12:36:51Z</time>
      </trkpt>
      <trkpt lat="45.67202" lon="5.84839">
        <ele>519.25</ele>
        <time>2014-04-26T12:37:04Z</time>
      </trkpt>
      <trkpt lat="45.6721" lon="5.84847">
        <ele>517.81</ele>
        <time>2014-04-26T12:37:12Z</time>
      </trkpt>
      <trkpt lat="45.67222" lon="5.84861">
        <ele>514.92</ele>
        <time>2014-04-26T12:37:26Z</time>
      </trkpt>
      <trkpt lat="45.67229" lon="5.84867">
        <ele>514.44</ele>
        <time>2014-04-26T12:37:32Z</time>
      </trkpt>
      <trkpt lat="45.67232" lon="5.84868">
        <ele>513.96</ele>
        <time>2014-04-26T12:37:35Z</time>
      </trkpt>
      <trkpt lat="45.67247" lon="5.84872">
        <ele>511.08</ele>
        <time>2014-04-26T12:37:47Z</time>
      </trkpt>
      <trkpt lat="45.67249" lon="5.84874">
        <ele>510.6</ele>
        <time>2014-04-26T12:37:50Z</time>
      </trkpt>
      <trkpt lat="45.67258" lon="5.84879">
        <ele>507.71</ele>
        <time>2014-04-26T12:38:03Z</time>
      </trkpt>
      <trkpt lat="45.6727" lon="5.8488">
        <ele>504.83</ele>
        <time>2014-04-26T12:38:17Z</time>
      </trkpt>
      <trkpt lat="45.67284" lon="5.84888">
        <ele>502.43</ele>
        <time>2014-04-26T12:38:32Z</time>
      </trkpt>
      <trkpt lat="45.673" lon="5.84888">
        <ele>500.02</ele>
        <time>2014-04-26T12:38:45Z</time>
      </trkpt>
      <trkpt lat="45.67304" lon="5.84889">
        <ele>499.54</ele>
        <time>2014-04-26T12:38:48Z</time>
      </trkpt>
      <trkpt lat="45.67306" lon="5.84894">
        <ele>499.06</ele>
        <time>2014-04-26T12:38:52Z</time>
      </trkpt>
      <trkpt lat="45.67303" lon="5.84909">
        <ele>497.14</ele>
        <time>2014-04-26T12:39:05Z</time>
      </trkpt>
      <trkpt lat="45.67303" lon="5.8491">
        <ele>497.14</ele>
        <time>2014-04-26T12:39:06Z</time>
      </trkpt>
      <trkpt lat="45.67296" lon="5.84919">
        <ele>495.22</ele>
        <time>2014-04-26T12:39:19Z</time>
      </trkpt>
      <trkpt lat="45.67285" lon="5.84928">
        <ele>493.29</ele>
        <time>2014-04-26T12:39:33Z</time>
      </trkpt>
      <trkpt lat="45.67285" lon="5.84929">
        <ele>493.29</ele>
        <time>2014-04-26T12:39:34Z</time>
      </trkpt>
      <trkpt lat="45.67284" lon="5.84934">
        <ele>492.81</ele>
        <time>2014-04-26T12:39:39Z</time>
      </trkpt>
      <trkpt lat="45.67293" lon="5.84941">
        <ele>491.85</ele>
        <time>2014-04-26T12:39:54Z</time>
      </trkpt>
      <trkpt lat="45.67306" lon="5.84935">
        <ele>489.45</ele>
        <time>2014-04-26T12:40:10Z</time>
      </trkpt>
      <trkpt lat="45.67316" lon="5.84929">
        <ele>486.56</ele>
        <time>2014-04-26T12:40:24Z</time>
      </trkpt>
      <trkpt lat="45.67319" lon="5.84929">
        <ele>485.6</ele>
        <time>2014-04-26T12:40:27Z</time>
      </trkpt>
      <trkpt lat="45.67335" lon="5.84927">
        <ele>483.2</ele>
        <time>2014-04-26T12:40:40Z</time>
      </trkpt>
      <trkpt lat="45.67339" lon="5.84925">
        <ele>482.24</ele>
        <time>2014-04-26T12:40:43Z</time>
      </trkpt>
      <trkpt lat="45.67348" lon="5.84915">
        <ele>479.84</ele>
        <time>2014-04-26T12:40:53Z</time>
      </trkpt>
      <trkpt lat="45.67349" lon="5.84913">
        <ele>479.35</ele>
        <time>2014-04-26T12:40:55Z</time>
      </trkpt>
      <trkpt lat="45.67359" lon="5.84898">
        <ele>476.47</ele>
        <time>2014-04-26T12:41:09Z</time>
      </trkpt>
      <trkpt lat="45.67358" lon="5.84889">
        <ele>474.55</ele>
        <time>2014-04-26T12:41:22Z</time>
      </trkpt>
      <trkpt lat="45.67359" lon="5.84881">
        <ele>473.11</ele>
        <time>2014-04-26T12:41:33Z</time>
      </trkpt>
      <trkpt lat="45.67367" lon="5.84864">
        <ele>472.14</ele>
        <time>2014-04-26T12:41:45Z</time>
      </trkpt>
      <trkpt lat="45.67374" lon="5.84855">
        <ele>470.22</ele>
        <time>2014-04-26T12:41:59Z</time>
      </trkpt>
      <trkpt lat="45.67392" lon="5.84852">
        <ele>467.82</ele>
        <time>2014-04-26T12:42:13Z</time>
      </trkpt>
      <trkpt lat="45.67402" lon="5.8485">
        <ele>466.38</ele>
        <time>2014-04-26T12:42:21Z</time>
      </trkpt>
      <trkpt lat="45.67423" lon="5.84843">
        <ele>462.05</ele>
        <time>2014-04-26T12:42:38Z</time>
      </trkpt>
      <trkpt lat="45.67434" lon="5.84846">
        <ele>459.65</ele>
        <time>2014-04-26T12:42:52Z</time>
      </trkpt>
      <trkpt lat="45.67454" lon="5.84855">
        <ele>456.76</ele>
        <time>2014-04-26T12:43:06Z</time>
      </trkpt>
      <trkpt lat="45.67457" lon="5.84856">
        <ele>455.8</ele>
        <time>2014-04-26T12:43:10Z</time>
      </trkpt>
      <trkpt lat="45.67472" lon="5.84867">
        <ele>453.4</ele>
        <time>2014-04-26T12:43:23Z</time>
      </trkpt>
      <trkpt lat="45.67476" lon="5.84869">
        <ele>452.44</ele>
        <time>2014-04-26T12:43:26Z</time>
      </trkpt>
      <trkpt lat="45.67489" lon="5.84877">
        <ele>450.03</ele>
        <time>2014-04-26T12:43:40Z</time>
      </trkpt>
      <trkpt lat="45.67491" lon="5.84879">
        <ele>449.07</ele>
        <time>2014-04-26T12:43:44Z</time>
      </trkpt>
      <trkpt lat="45.67504" lon="5.84892">
        <ele>446.67</ele>
        <time>2014-04-26T12:43:57Z</time>
      </trkpt>
      <trkpt lat="45.67505" lon="5.84893">
        <ele>446.19</ele>
        <time>2014-04-26T12:43:58Z</time>
      </trkpt>
      <trkpt lat="45.67508" lon="5.84903">
        <ele>445.71</ele>
        <time>2014-04-26T12:44:04Z</time>
      </trkpt>
      <trkpt lat="45.67506" lon="5.84908">
        <ele>445.23</ele>
        <time>2014-04-26T12:44:07Z</time>
      </trkpt>
      <trkpt lat="45.675" lon="5.84911">
        <ele>442.82</ele>
        <time>2014-04-26T12:44:18Z</time>
      </trkpt>
      <trkpt lat="45.67496" lon="5.8491">
        <ele>441.86</ele>
        <time>2014-04-26T12:44:24Z</time>
      </trkpt>
      <trkpt lat="45.67489" lon="5.84911">
        <ele>440.9</ele>
        <time>2014-04-26T12:44:31Z</time>
      </trkpt>
      <trkpt lat="45.67483" lon="5.84914">
        <ele>439.46</ele>
        <time>2014-04-26T12:44:37Z</time>
      </trkpt>
      <trkpt lat="45.67481" lon="5.84919">
        <ele>439.46</ele>
        <time>2014-04-26T12:44:41Z</time>
      </trkpt>
      <trkpt lat="45.67473" lon="5.84932">
        <ele>436.58</ele>
        <time>2014-04-26T12:44:55Z</time>
      </trkpt>
      <trkpt lat="45.67473" lon="5.84935">
        <ele>436.1</ele>
        <time>2014-04-26T12:44:57Z</time>
      </trkpt>
      <trkpt lat="45.67462" lon="5.8495">
        <ele>434.17</ele>
        <time>2014-04-26T12:45:08Z</time>
      </trkpt>
      <trkpt lat="45.67454" lon="5.84968">
        <ele>431.29</ele>
        <time>2014-04-26T12:45:24Z</time>
      </trkpt>
      <trkpt lat="45.67454" lon="5.84982">
        <ele>429.85</ele>
        <time>2014-04-26T12:45:31Z</time>
      </trkpt>
      <trkpt lat="45.67455" lon="5.84988">
        <ele>429.37</ele>
        <time>2014-04-26T12:45:35Z</time>
      </trkpt>
      <trkpt lat="45.67454" lon="5.8501">
        <ele>427.92</ele>
        <time>2014-04-26T12:45:48Z</time>
      </trkpt>
      <trkpt lat="45.67454" lon="5.85013">
        <ele>426.96</ele>
        <time>2014-04-26T12:45:50Z</time>
      </trkpt>
      <trkpt lat="45.67453" lon="5.85019">
        <ele>426.96</ele>
        <time>2014-04-26T12:45:53Z</time>
      </trkpt>
      <trkpt lat="45.67449" lon="5.85024">
        <ele>425.52</ele>
        <time>2014-04-26T12:45:57Z</time>
      </trkpt>
      <trkpt lat="45.67436" lon="5.85032">
        <ele>423.6</ele>
        <time>2014-04-26T12:46:11Z</time>
      </trkpt>
      <trkpt lat="45.67428" lon="5.85039">
        <ele>422.64</ele>
        <time>2014-04-26T12:46:20Z</time>
      </trkpt>
      <trkpt lat="45.67422" lon="5.85044">
        <ele>422.16</ele>
        <time>2014-04-26T12:46:24Z</time>
      </trkpt>
      <trkpt lat="45.67416" lon="5.85052">
        <ele>421.19</ele>
        <time>2014-04-26T12:46:31Z</time>
      </trkpt>
      <trkpt lat="45.67407" lon="5.8507">
        <ele>419.27</ele>
        <time>2014-04-26T12:46:44Z</time>
      </trkpt>
      <trkpt lat="45.67406" lon="5.85074">
        <ele>418.31</ele>
        <time>2014-04-26T12:46:47Z</time>
      </trkpt>
      <trkpt lat="45.67404" lon="5.85076">
        <ele>418.31</ele>
        <time>2014-04-26T12:46:49Z</time>
      </trkpt>
      <trkpt lat="45.67393" lon="5.85086">
        <ele>415.43</ele>
        <time>2014-04-26T12:47:03Z</time>
      </trkpt>
      <trkpt lat="45.67387" lon="5.85093">
        <ele>414.47</ele>
        <time>2014-04-26T12:47:12Z</time>
      </trkpt>
      <trkpt lat="45.67386" lon="5.85101">
        <ele>413.5</ele>
        <time>2014-04-26T12:47:26Z</time>
      </trkpt>
      <trkpt lat="45.67387" lon="5.85102">
        <ele>413.02</ele>
        <time>2014-04-26T12:47:28Z</time>
      </trkpt>
      <trkpt lat="45.67391" lon="5.8511">
        <ele>411.1</ele>
        <time>2014-04-26T12:47:35Z</time>
      </trkpt>
      <trkpt lat="45.67392" lon="5.85113">
        <ele>410.62</ele>
        <time>2014-04-26T12:47:37Z</time>
      </trkpt>
      <trkpt lat="45.67406" lon="5.85133">
        <ele>407.26</ele>
        <time>2014-04-26T12:47:51Z</time>
      </trkpt>
      <trkpt lat="45.67415" lon="5.85145">
        <ele>404.37</ele>
        <time>2014-04-26T12:48:01Z</time>
      </trkpt>
      <trkpt lat="45.67419" lon="5.85148">
        <ele>403.89</ele>
        <time>2014-04-26T12:48:05Z</time>
      </trkpt>
      <trkpt lat="45.67428" lon="5.85152">
        <ele>401.97</ele>
        <time>2014-04-26T12:48:12Z</time>
      </trkpt>
      <trkpt lat="45.67449" lon="5.85162">
        <ele>398.6</ele>
        <time>2014-04-26T12:48:27Z</time>
      </trkpt>
      <trkpt lat="45.67455" lon="5.85165">
        <ele>398.12</ele>
        <time>2014-04-26T12:48:32Z</time>
      </trkpt>
      <trkpt lat="45.67474" lon="5.85172">
        <ele>395.24</ele>
        <time>2014-04-26T12:48:47Z</time>
      </trkpt>
      <trkpt lat="45.67489" lon="5.85167">
        <ele>392.84</ele>
        <time>2014-04-26T12:49:00Z</time>
      </trkpt>
      <trkpt lat="45.67505" lon="5.85167">
        <ele>391.39</ele>
        <time>2014-04-26T12:49:14Z</time>
      </trkpt>
      <trkpt lat="45.67522" lon="5.85167">
        <ele>389.47</ele>
        <time>2014-04-26T12:49:29Z</time>
      </trkpt>
      <trkpt lat="45.67535" lon="5.85169">
        <ele>387.55</ele>
        <time>2014-04-26T12:49:41Z</time>
      </trkpt>
      <trkpt lat="45.67552" lon="5.8518">
        <ele>385.63</ele>
        <time>2014-04-26T12:49:53Z</time>
      </trkpt>
      <trkpt lat="45.67558" lon="5.85183">
        <ele>384.66</ele>
        <time>2014-04-26T12:49:59Z</time>
      </trkpt>
      <trkpt lat="45.67568" lon="5.85182">
        <ele>384.18</ele>
        <time>2014-04-26T12:50:13Z</time>
      </trkpt>
      <trkpt lat="45.67568" lon="5.85182">
        <ele>384.66</ele>
        <time>2014-04-26T12:50:15Z</time>
      </trkpt>
      <trkpt lat="45.6757" lon="5.85179">
        <ele>383.7</ele>
        <time>2014-04-26T12:50:21Z</time>
      </trkpt>
      <trkpt lat="45.67568" lon="5.85175">
        <ele>383.7</ele>
        <time>2014-04-26T12:50:35Z</time>
      </trkpt>
      <trkpt lat="45.67568" lon="5.85171">
        <ele>383.7</ele>
        <time>2014-04-26T12:50:59Z</time>
      </trkpt>
      <trkpt lat="45.67569" lon="5.85169">
        <ele>383.7</ele>
        <time>2014-04-26T12:51:24Z</time>
      </trkpt>
      <trkpt lat="45.67568" lon="5.85157">
        <ele>383.7</ele>
        <time>2014-04-26T12:51:51Z</time>
      </trkpt>
      <trkpt lat="45.67567" lon="5.85155">
        <ele>383.22</ele>
        <time>2014-04-26T12:52:19Z</time>
      </trkpt>
      <trkpt lat="45.67567" lon="5.85154">
        <ele>383.7</ele>
        <time>2014-04-26T12:52:38Z</time>
      </trkpt>
      <trkpt lat="45.6757" lon="5.85156">
        <ele>385.15</ele>
        <time>2014-04-26T12:52:47Z</time>
      </trkpt>
      <trkpt lat="45.6757" lon="5.85156">
        <ele>384.66</ele>
        <time>2014-04-26T12:53:04Z</time>
      </trkpt>
      <trkpt lat="45.67573" lon="5.85155">
        <ele>384.66</ele>
        <time>2014-04-26T12:53:23Z</time>
      </trkpt>
      <trkpt lat="45.67571" lon="5.85155">
        <ele>384.18</ele>
        <time>2014-04-26T12:53:44Z</time>
      </trkpt>
      <trkpt lat="45.67571" lon="5.85154">
        <ele>384.18</ele>
        <time>2014-04-26T12:53:46Z</time>
      </trkpt>
      <trkpt lat="45.67571" lon="5.85157">
        <ele>384.18</ele>
        <time>2014-04-26T12:53:55Z</time>
      </trkpt>
      <trkpt lat="45.67575" lon="5.85148">
        <ele>382.74</ele>
        <time>2014-04-26T12:54:09Z</time>
      </trkpt>
      <trkpt lat="45.67585" lon="5.85145">
        <ele>382.74</ele>
        <time>2014-04-26T12:54:20Z</time>
      </trkpt>
      <trkpt lat="45.67597" lon="5.85143">
        <ele>381.78</ele>
        <time>2014-04-26T12:54:30Z</time>
      </trkpt>
      <trkpt lat="45.67598" lon="5.85145">
        <ele>381.3</ele>
        <time>2014-04-26T12:54:31Z</time>
      </trkpt>
      <trkpt lat="45.67601" lon="5.85143">
        <ele>378.42</ele>
        <time>2014-04-26T12:54:36Z</time>
      </trkpt>
      <trkpt lat="45.67603" lon="5.8514">
        <ele>398.12</ele>
        <time>2014-04-26T12:54:38Z</time>
      </trkpt>
      <trkpt lat="45.67604" lon="5.85139">
        <ele>380.82</ele>
        <time>2014-04-26T12:54:39Z</time>
      </trkpt>
      <trkpt lat="45.67607" lon="5.85137">
        <ele>379.86</ele>
        <time>2014-04-26T12:54:42Z</time>
      </trkpt>
      <trkpt lat="45.67629" lon="5.85142">
        <ele>375.53</ele>
        <time>2014-04-26T12:55:01Z</time>
      </trkpt>
      <trkpt lat="45.67629" lon="5.85144">
        <ele>376.01</ele>
        <time>2014-04-26T12:55:02Z</time>
      </trkpt>
      <trkpt lat="45.67633" lon="5.85153">
        <ele>374.57</ele>
        <time>2014-04-26T12:55:09Z</time>
      </trkpt>
      <trkpt lat="45.67636" lon="5.85178">
        <ele>374.09</ele>
        <time>2014-04-26T12:55:26Z</time>
      </trkpt>
      <trkpt lat="45.6764" lon="5.85179">
        <ele>373.13</ele>
        <time>2014-04-26T12:55:30Z</time>
      </trkpt>
      <trkpt lat="45.67663" lon="5.85165">
        <ele>371.69</ele>
        <time>2014-04-26T12:55:46Z</time>
      </trkpt>
      <trkpt lat="45.67663" lon="5.85157">
        <ele>370.73</ele>
        <time>2014-04-26T12:55:53Z</time>
      </trkpt>
      <trkpt lat="45.67669" lon="5.8516">
        <ele>368.8</ele>
        <time>2014-04-26T12:55:57Z</time>
      </trkpt>
      <trkpt lat="45.67688" lon="5.85155">
        <ele>369.76</ele>
        <time>2014-04-26T12:56:10Z</time>
      </trkpt>
      <trkpt lat="45.67701" lon="5.85159">
        <ele>370.24</ele>
        <time>2014-04-26T12:56:18Z</time>
      </trkpt>
      <trkpt lat="45.67704" lon="5.85166">
        <ele>368.8</ele>
        <time>2014-04-26T12:56:22Z</time>
      </trkpt>
      <trkpt lat="45.67719" lon="5.85154">
        <ele>366.88</ele>
        <time>2014-04-26T12:56:36Z</time>
      </trkpt>
      <trkpt lat="45.67745" lon="5.85137">
        <ele>363.52</ele>
        <time>2014-04-26T12:56:57Z</time>
      </trkpt>
      <trkpt lat="45.67764" lon="5.85132">
        <ele>362.07</ele>
        <time>2014-04-26T12:57:12Z</time>
      </trkpt>
      <trkpt lat="45.67784" lon="5.85121">
        <ele>360.63</ele>
        <time>2014-04-26T12:57:32Z</time>
      </trkpt>
      <trkpt lat="45.67799" lon="5.85124">
        <ele>360.15</ele>
        <time>2014-04-26T12:57:43Z</time>
      </trkpt>
      <trkpt lat="45.67804" lon="5.85126">
        <ele>359.67</ele>
        <time>2014-04-26T12:58:02Z</time>
      </trkpt>
      <trkpt lat="45.67806" lon="5.85127">
        <ele>359.19</ele>
        <time>2014-04-26T12:58:04Z</time>
      </trkpt>
      <trkpt lat="45.67807" lon="5.85128">
        <ele>359.19</ele>
        <time>2014-04-26T12:58:24Z</time>
      </trkpt>
      <trkpt lat="45.67805" lon="5.85129">
        <ele>359.19</ele>
        <time>2014-04-26T12:58:46Z</time>
      </trkpt>
      <trkpt lat="45.67805" lon="5.85129">
        <ele>359.19</ele>
        <time>2014-04-26T12:59:11Z</time>
      </trkpt>
      <trkpt lat="45.67806" lon="5.85128">
        <ele>359.19</ele>
        <time>2014-04-26T12:59:22Z</time>
      </trkpt>
      <trkpt lat="45.6781" lon="5.85124">
        <ele>359.19</ele>
        <time>2014-04-26T12:59:27Z</time>
      </trkpt>
      <trkpt lat="45.67828" lon="5.85117">
        <ele>357.75</ele>
        <time>2014-04-26T12:59:41Z</time>
      </trkpt>
      <trkpt lat="45.67851" lon="5.85109">
        <ele>356.31</ele>
        <time>2014-04-26T12:59:57Z</time>
      </trkpt>
      <trkpt lat="45.67867" lon="5.85106">
        <ele>355.83</ele>
        <time>2014-04-26T13:00:13Z</time>
      </trkpt>
      <trkpt lat="45.67884" lon="5.8511">
        <ele>355.34</ele>
        <time>2014-04-26T13:00:23Z</time>
      </trkpt>
      <trkpt lat="45.67906" lon="5.85127">
        <ele>356.31</ele>
        <time>2014-04-26T13:00:41Z</time>
      </trkpt>
      <trkpt lat="45.67908" lon="5.8513">
        <ele>356.31</ele>
        <time>2014-04-26T13:00:44Z</time>
      </trkpt>
      <trkpt lat="45.67923" lon="5.85148">
        <ele>357.27</ele>
        <time>2014-04-26T13:00:59Z</time>
      </trkpt>
      <trkpt lat="45.67941" lon="5.85166">
        <ele>359.67</ele>
        <time>2014-04-26T13:01:19Z</time>
      </trkpt>
      <trkpt lat="45.67942" lon="5.85166">
        <ele>359.67</ele>
        <time>2014-04-26T13:01:20Z</time>
      </trkpt>
      <trkpt lat="45.67961" lon="5.85175">
        <ele>361.11</ele>
        <time>2014-04-26T13:01:37Z</time>
      </trkpt>
      <trkpt lat="45.67977" lon="5.85181">
        <ele>362.07</ele>
        <time>2014-04-26T13:01:50Z</time>
      </trkpt>
      <trkpt lat="45.67997" lon="5.85202">
        <ele>360.63</ele>
        <time>2014-04-26T13:02:09Z</time>
      </trkpt>
      <trkpt lat="45.68003" lon="5.85213">
        <ele>360.15</ele>
        <time>2014-04-26T13:02:24Z</time>
      </trkpt>
      <trkpt lat="45.68006" lon="5.85219">
        <ele>359.67</ele>
        <time>2014-04-26T13:02:28Z</time>
      </trkpt>
      <trkpt lat="45.68015" lon="5.85239">
        <ele>358.23</ele>
        <time>2014-04-26T13:02:41Z</time>
      </trkpt>
      <trkpt lat="45.68019" lon="5.85239">
        <ele>356.79</ele>
        <time>2014-04-26T13:02:49Z</time>
      </trkpt>
      <trkpt lat="45.68016" lon="5.85266">
        <ele>355.83</ele>
        <time>2014-04-26T13:03:03Z</time>
      </trkpt>
      <trkpt lat="45.68017" lon="5.85267">
        <ele>355.83</ele>
        <time>2014-04-26T13:03:04Z</time>
      </trkpt>
      <trkpt lat="45.68016" lon="5.85292">
        <ele>353.9</ele>
        <time>2014-04-26T13:03:17Z</time>
      </trkpt>
      <trkpt lat="45.68017" lon="5.8532">
        <ele>352.46</ele>
        <time>2014-04-26T13:03:33Z</time>
      </trkpt>
      <trkpt lat="45.68024" lon="5.85346">
        <ele>351.02</ele>
        <time>2014-04-26T13:03:49Z</time>
      </trkpt>
      <trkpt lat="45.68039" lon="5.85362">
        <ele>350.06</ele>
        <time>2014-04-26T13:04:03Z</time>
      </trkpt>
      <trkpt lat="45.68051" lon="5.85378">
        <ele>348.13</ele>
        <time>2014-04-26T13:04:16Z</time>
      </trkpt>
      <trkpt lat="45.68061" lon="5.85383">
        <ele>347.65</ele>
        <time>2014-04-26T13:04:28Z</time>
      </trkpt>
      <trkpt lat="45.68062" lon="5.85382">
        <ele>347.17</ele>
        <time>2014-04-26T13:04:40Z</time>
      </trkpt>
      <trkpt lat="45.68062" lon="5.85382">
        <ele>347.17</ele>
        <time>2014-04-26T13:04:46Z</time>
      </trkpt>
      <trkpt lat="45.68062" lon="5.85387">
        <ele>346.69</ele>
        <time>2014-04-26T13:05:00Z</time>
      </trkpt>
      <trkpt lat="45.68062" lon="5.85387">
        <ele>346.69</ele>
        <time>2014-04-26T13:05:10Z</time>
      </trkpt>
      <trkpt lat="45.68066" lon="5.85389">
        <ele>346.69</ele>
        <time>2014-04-26T13:05:28Z</time>
      </trkpt>
      <trkpt lat="45.68066" lon="5.85389">
        <ele>346.21</ele>
        <time>2014-04-26T13:05:53Z</time>
      </trkpt>
      <trkpt lat="45.68067" lon="5.8539">
        <ele>345.25</ele>
        <time>2014-04-26T13:06:10Z</time>
      </trkpt>
      <trkpt lat="45.68064" lon="5.85387">
        <ele>346.21</ele>
        <time>2014-04-26T13:06:31Z</time>
      </trkpt>
      <trkpt lat="45.68063" lon="5.85383">
        <ele>347.17</ele>
        <time>2014-04-26T13:06:45Z</time>
      </trkpt>
      <trkpt lat="45.68062" lon="5.85384">
        <ele>346.69</ele>
        <time>2014-04-26T13:07:02Z</time>
      </trkpt>
      <trkpt lat="45.68061" lon="5.85385">
        <ele>345.73</ele>
        <time>2014-04-26T13:07:13Z</time>
      </trkpt>
      <trkpt lat="45.68063" lon="5.85385">
        <ele>346.21</ele>
        <time>2014-04-26T13:07:15Z</time>
      </trkpt>
      <trkpt lat="45.68079" lon="5.85394">
        <ele>343.33</ele>
        <time>2014-04-26T13:07:32Z</time>
      </trkpt>
      <trkpt lat="45.68096" lon="5.85402">
        <ele>340.92</ele>
        <time>2014-04-26T13:07:49Z</time>
      </trkpt>
      <trkpt lat="45.68119" lon="5.85428">
        <ele>337.56</ele>
        <time>2014-04-26T13:08:07Z</time>
      </trkpt>
      <trkpt lat="45.68127" lon="5.85448">
        <ele>336.12</ele>
        <time>2014-04-26T13:08:17Z</time>
      </trkpt>
      <trkpt lat="45.68105" lon="5.85455">
        <ele>334.68</ele>
        <time>2014-04-26T13:08:30Z</time>
      </trkpt>
      <trkpt lat="45.68097" lon="5.85467">
        <ele>333.23</ele>
        <time>2014-04-26T13:08:38Z</time>
      </trkpt>
      <trkpt lat="45.68103" lon="5.85481">
        <ele>331.79</ele>
        <time>2014-04-26T13:08:52Z</time>
      </trkpt>
      <trkpt lat="45.68103" lon="5.85481">
        <ele>331.79</ele>
        <time>2014-04-26T13:08:53Z</time>
      </trkpt>
      <trkpt lat="45.68112" lon="5.85473">
        <ele>331.31</ele>
        <time>2014-04-26T13:09:03Z</time>
      </trkpt>
      <trkpt lat="45.68114" lon="5.85472">
        <ele>330.35</ele>
        <time>2014-04-26T13:09:05Z</time>
      </trkpt>
      <trkpt lat="45.68122" lon="5.85469">
        <ele>329.87</ele>
        <time>2014-04-26T13:09:12Z</time>
      </trkpt>
      <trkpt lat="45.68125" lon="5.85468">
        <ele>329.39</ele>
        <time>2014-04-26T13:09:14Z</time>
      </trkpt>
      <trkpt lat="45.68135" lon="5.85467">
        <ele>329.39</ele>
        <time>2014-04-26T13:09:21Z</time>
      </trkpt>
      <trkpt lat="45.68139" lon="5.85468">
        <ele>328.43</ele>
        <time>2014-04-26T13:09:23Z</time>
      </trkpt>
      <trkpt lat="45.68157" lon="5.85488">
        <ele>326.5</ele>
        <time>2014-04-26T13:09:37Z</time>
      </trkpt>
      <trkpt lat="45.68155" lon="5.85515">
        <ele>325.06</ele>
        <time>2014-04-26T13:09:50Z</time>
      </trkpt>
      <trkpt lat="45.68155" lon="5.85517">
        <ele>324.58</ele>
        <time>2014-04-26T13:09:51Z</time>
      </trkpt>
      <trkpt lat="45.68154" lon="5.85554">
        <ele>323.14</ele>
        <time>2014-04-26T13:10:09Z</time>
      </trkpt>
      <trkpt lat="45.68177" lon="5.85566">
        <ele>321.7</ele>
        <time>2014-04-26T13:10:30Z</time>
      </trkpt>
      <trkpt lat="45.68198" lon="5.8557">
        <ele>320.74</ele>
        <time>2014-04-26T13:10:44Z</time>
      </trkpt>
      <trkpt lat="45.68216" lon="5.85572">
        <ele>319.3</ele>
        <time>2014-04-26T13:10:57Z</time>
      </trkpt>
      <trkpt lat="45.68228" lon="5.85569">
        <ele>318.81</ele>
        <time>2014-04-26T13:11:11Z</time>
      </trkpt>
      <trkpt lat="45.68235" lon="5.85571">
        <ele>318.33</ele>
        <time>2014-04-26T13:11:22Z</time>
      </trkpt>
      <trkpt lat="45.68242" lon="5.85572">
        <ele>317.85</ele>
        <time>2014-04-26T13:11:30Z</time>
      </trkpt>
      <trkpt lat="45.68266" lon="5.8558">
        <ele>316.89</ele>
        <time>2014-04-26T13:11:50Z</time>
      </trkpt>
      <trkpt lat="45.68292" lon="5.85595">
        <ele>316.41</ele>
        <time>2014-04-26T13:12:08Z</time>
      </trkpt>
      <trkpt lat="45.68299" lon="5.85607">
        <ele>315.93</ele>
        <time>2014-04-26T13:12:16Z</time>
      </trkpt>
      <trkpt lat="45.68313" lon="5.85619">
        <ele>315.45</ele>
        <time>2014-04-26T13:12:30Z</time>
      </trkpt>
      <trkpt lat="45.68317" lon="5.85622">
        <ele>314.49</ele>
        <time>2014-04-26T13:12:35Z</time>
      </trkpt>
      <trkpt lat="45.68319" lon="5.85624">
        <ele>314.01</ele>
        <time>2014-04-26T13:12:38Z</time>
      </trkpt>
      <trkpt lat="45.68336" lon="5.85634">
        <ele>313.05</ele>
        <time>2014-04-26T13:12:51Z</time>
      </trkpt>
      <trkpt lat="45.68347" lon="5.85647">
        <ele>312.09</ele>
        <time>2014-04-26T13:13:05Z</time>
      </trkpt>
      <trkpt lat="45.68366" lon="5.85662">
        <ele>310.64</ele>
        <time>2014-04-26T13:13:20Z</time>
      </trkpt>
      <trkpt lat="45.68377" lon="5.85671">
        <ele>309.68</ele>
        <time>2014-04-26T13:13:29Z</time>
      </trkpt>
      <trkpt lat="45.6839" lon="5.85679">
        <ele>307.76</ele>
        <time>2014-04-26T13:13:42Z</time>
      </trkpt>
      <trkpt lat="45.68392" lon="5.8568">
        <ele>307.76</ele>
        <time>2014-04-26T13:13:44Z</time>
      </trkpt>
      <trkpt lat="45.684" lon="5.85682">
        <ele>306.32</ele>
        <time>2014-04-26T13:13:51Z</time>
      </trkpt>
      <trkpt lat="45.68405" lon="5.85682">
        <ele>305.84</ele>
        <time>2014-04-26T13:13:54Z</time>
      </trkpt>
      <trkpt lat="45.68427" lon="5.85684">
        <ele>304.39</ele>
        <time>2014-04-26T13:14:10Z</time>
      </trkpt>
      <trkpt lat="45.68442" lon="5.85693">
        <ele>304.39</ele>
        <time>2014-04-26T13:14:22Z</time>
      </trkpt>
      <trkpt lat="45.68439" lon="5.85694">
        <ele>303.91</ele>
        <time>2014-04-26T13:14:34Z</time>
      </trkpt>
      <trkpt lat="45.68438" lon="5.85697">
        <ele>303.43</ele>
        <time>2014-04-26T13:14:36Z</time>
      </trkpt>
      <trkpt lat="45.68437" lon="5.85708">
        <ele>301.99</ele>
        <time>2014-04-26T13:14:41Z</time>
      </trkpt>
      <trkpt lat="45.68438" lon="5.85721">
        <ele>300.55</ele>
        <time>2014-04-26T13:14:55Z</time>
      </trkpt>
      <trkpt lat="45.68437" lon="5.8572">
        <ele>300.07</ele>
        <time>2014-04-26T13:15:24Z</time>
      </trkpt>
      <trkpt lat="45.68437" lon="5.8572">
        <ele>301.03</ele>
        <time>2014-04-26T13:15:37Z</time>
      </trkpt>
      <trkpt lat="45.68438" lon="5.85718">
        <ele>301.51</ele>
        <time>2014-04-26T13:15:48Z</time>
      </trkpt>
      <trkpt lat="45.68436" lon="5.85719">
        <ele>300.55</ele>
        <time>2014-04-26T13:16:00Z</time>
      </trkpt>
      <trkpt lat="45.68437" lon="5.85717">
        <ele>300.55</ele>
        <time>2014-04-26T13:16:16Z</time>
      </trkpt>
      <trkpt lat="45.68437" lon="5.85708">
        <ele>301.51</ele>
        <time>2014-04-26T13:16:20Z</time>
      </trkpt>
      <trkpt lat="45.6844" lon="5.85697">
        <ele>302.95</ele>
        <time>2014-04-26T13:16:23Z</time>
      </trkpt>
      <trkpt lat="45.6845" lon="5.85696">
        <ele>303.91</ele>
        <time>2014-04-26T13:16:29Z</time>
      </trkpt>
      <trkpt lat="45.6848" lon="5.85713">
        <ele>302.95</ele>
        <time>2014-04-26T13:16:41Z</time>
      </trkpt>
      <trkpt lat="45.68489" lon="5.85715">
        <ele>302.47</ele>
        <time>2014-04-26T13:16:45Z</time>
      </trkpt>
      <trkpt lat="45.68499" lon="5.85714">
        <ele>301.03</ele>
        <time>2014-04-26T13:16:56Z</time>
      </trkpt>
      <trkpt lat="45.68502" lon="5.85716">
        <ele>301.03</ele>
        <time>2014-04-26T13:16:58Z</time>
      </trkpt>
      <trkpt lat="45.68507" lon="5.8572">
        <ele>300.07</ele>
        <time>2014-04-26T13:17:02Z</time>
      </trkpt>
      <trkpt lat="45.68516" lon="5.85719">
        <ele>298.63</ele>
        <time>2014-04-26T13:17:09Z</time>
      </trkpt>
      <trkpt lat="45.68544" lon="5.85728">
        <ele>294.78</ele>
        <time>2014-04-26T13:17:20Z</time>
      </trkpt>
      <trkpt lat="45.68552" lon="5.8573">
        <ele>294.3</ele>
        <time>2014-04-26T13:17:23Z</time>
      </trkpt>
      <trkpt lat="45.6856" lon="5.85738">
        <ele>292.86</ele>
        <time>2014-04-26T13:17:28Z</time>
      </trkpt>
      <trkpt lat="45.68589" lon="5.85738">
        <ele>289.01</ele>
        <time>2014-04-26T13:17:42Z</time>
      </trkpt>
      <trkpt lat="45.68611" lon="5.8574">
        <ele>287.57</ele>
        <time>2014-04-26T13:17:52Z</time>
      </trkpt>
      <trkpt lat="45.68633" lon="5.85751">
        <ele>285.17</ele>
        <time>2014-04-26T13:18:05Z</time>
      </trkpt>
      <trkpt lat="45.68651" lon="5.85767">
        <ele>282.28</ele>
        <time>2014-04-26T13:18:21Z</time>
      </trkpt>
      <trkpt lat="45.68655" lon="5.85783">
        <ele>280.84</ele>
        <time>2014-04-26T13:18:37Z</time>
      </trkpt>
      <trkpt lat="45.68651" lon="5.85785">
        <ele>280.36</ele>
        <time>2014-04-26T13:18:40Z</time>
      </trkpt>
      <trkpt lat="45.68646" lon="5.85787">
        <ele>280.36</ele>
        <time>2014-04-26T13:18:55Z</time>
      </trkpt>
      <trkpt lat="45.68651" lon="5.85787">
        <ele>280.36</ele>
        <time>2014-04-26T13:19:13Z</time>
      </trkpt>
      <trkpt lat="45.68658" lon="5.85781">
        <ele>283.25</ele>
        <time>2014-04-26T13:19:29Z</time>
      </trkpt>
      <trkpt lat="45.68655" lon="5.85779">
        <ele>285.65</ele>
        <time>2014-04-26T13:19:43Z</time>
      </trkpt>
      <trkpt lat="45.68656" lon="5.8578">
        <ele>288.05</ele>
        <time>2014-04-26T13:19:56Z</time>
      </trkpt>
      <trkpt lat="45.68662" lon="5.8579">
        <ele>290.94</ele>
        <time>2014-04-26T13:20:06Z</time>
      </trkpt>
      <trkpt lat="45.68667" lon="5.85797">
        <ele>292.38</ele>
        <time>2014-04-26T13:20:22Z</time>
      </trkpt>
      <trkpt lat="45.6867" lon="5.85795">
        <ele>294.78</ele>
        <time>2014-04-26T13:20:26Z</time>
      </trkpt>
      <trkpt lat="45.68674" lon="5.85792">
        <ele>297.67</ele>
        <time>2014-04-26T13:20:35Z</time>
      </trkpt>
      <trkpt lat="45.68682" lon="5.85792">
        <ele>300.55</ele>
        <time>2014-04-26T13:20:48Z</time>
      </trkpt>
      <trkpt lat="45.68698" lon="5.85794">
        <ele>302.95</ele>
        <time>2014-04-26T13:21:03Z</time>
      </trkpt>
      <trkpt lat="45.68712" lon="5.85804">
        <ele>304.88</ele>
        <time>2014-04-26T13:21:19Z</time>
      </trkpt>
      <trkpt lat="45.68726" lon="5.85816">
        <ele>305.36</ele>
        <time>2014-04-26T13:21:34Z</time>
      </trkpt>
      <trkpt lat="45.68738" lon="5.85819">
        <ele>306.32</ele>
        <time>2014-04-26T13:21:49Z</time>
      </trkpt>
      <trkpt lat="45.68744" lon="5.85828">
        <ele>306.32</ele>
        <time>2014-04-26T13:22:07Z</time>
      </trkpt>
      <trkpt lat="45.68758" lon="5.85834">
        <ele>305.36</ele>
        <time>2014-04-26T13:22:26Z</time>
      </trkpt>
      <trkpt lat="45.68777" lon="5.8585">
        <ele>304.88</ele>
        <time>2014-04-26T13:22:45Z</time>
      </trkpt>
      <trkpt lat="45.68782" lon="5.85852">
        <ele>304.88</ele>
        <time>2014-04-26T13:22:49Z</time>
      </trkpt>
      <trkpt lat="45.68792" lon="5.85856">
        <ele>305.36</ele>
        <time>2014-04-26T13:22:56Z</time>
      </trkpt>
      <trkpt lat="45.68805" lon="5.85869">
        <ele>303.91</ele>
        <time>2014-04-26T13:23:15Z</time>
      </trkpt>
      <trkpt lat="45.6881" lon="5.85861">
        <ele>304.39</ele>
        <time>2014-04-26T13:23:32Z</time>
      </trkpt>
      <trkpt lat="45.68814" lon="5.85858">
        <ele>307.28</ele>
        <time>2014-04-26T13:23:47Z</time>
      </trkpt>
      <trkpt lat="45.6883" lon="5.85863">
        <ele>311.12</ele>
        <time>2014-04-26T13:24:03Z</time>
      </trkpt>
      <trkpt lat="45.68844" lon="5.85863">
        <ele>314.01</ele>
        <time>2014-04-26T13:24:18Z</time>
      </trkpt>
      <trkpt lat="45.68856" lon="5.8586">
        <ele>317.37</ele>
        <time>2014-04-26T13:24:32Z</time>
      </trkpt>
      <trkpt lat="45.68874" lon="5.85871">
        <ele>319.3</ele>
        <time>2014-04-26T13:24:53Z</time>
      </trkpt>
      <trkpt lat="45.68883" lon="5.85874">
        <ele>321.7</ele>
        <time>2014-04-26T13:25:12Z</time>
      </trkpt>
      <trkpt lat="45.68891" lon="5.85874">
        <ele>325.06</ele>
        <time>2014-04-26T13:25:30Z</time>
      </trkpt>
      <trkpt lat="45.68893" lon="5.85873">
        <ele>327.47</ele>
        <time>2014-04-26T13:25:44Z</time>
      </trkpt>
      <trkpt lat="45.68907" lon="5.85873">
        <ele>329.39</ele>
        <time>2014-04-26T13:26:00Z</time>
      </trkpt>
      <trkpt lat="45.68921" lon="5.85875">
        <ele>332.27</ele>
        <time>2014-04-26T13:26:18Z</time>
      </trkpt>
      <trkpt lat="45.68939" lon="5.85885">
        <ele>334.68</ele>
        <time>2014-04-26T13:26:36Z</time>
      </trkpt>
      <trkpt lat="45.68941" lon="5.85883">
        <ele>338.04</ele>
        <time>2014-04-26T13:26:47Z</time>
      </trkpt>
      <trkpt lat="45.6894" lon="5.85881">
        <ele>338.52</ele>
        <time>2014-04-26T13:26:52Z</time>
      </trkpt>
      <trkpt lat="45.68942" lon="5.85874">
        <ele>338.52</ele>
        <time>2014-04-26T13:26:56Z</time>
      </trkpt>
      <trkpt lat="45.68935" lon="5.85866">
        <ele>341.41</ele>
        <time>2014-04-26T13:27:09Z</time>
      </trkpt>
      <trkpt lat="45.6895" lon="5.85872">
        <ele>342.37</ele>
        <time>2014-04-26T13:27:24Z</time>
      </trkpt>
      <trkpt lat="45.68966" lon="5.8588">
        <ele>345.25</ele>
        <time>2014-04-26T13:27:41Z</time>
      </trkpt>
      <trkpt lat="45.68977" lon="5.85885">
        <ele>347.17</ele>
        <time>2014-04-26T13:27:54Z</time>
      </trkpt>
      <trkpt lat="45.68991" lon="5.85887">
        <ele>347.65</ele>
        <time>2014-04-26T13:28:11Z</time>
      </trkpt>
      <trkpt lat="45.69009" lon="5.85891">
        <ele>347.65</ele>
        <time>2014-04-26T13:28:27Z</time>
      </trkpt>
      <trkpt lat="45.69029" lon="5.85894">
        <ele>347.65</ele>
        <time>2014-04-26T13:28:42Z</time>
      </trkpt>
      <trkpt lat="45.69042" lon="5.85897">
        <ele>346.21</ele>
        <time>2014-04-26T13:28:59Z</time>
      </trkpt>
      <trkpt lat="45.69062" lon="5.85903">
        <ele>346.21</ele>
        <time>2014-04-26T13:29:15Z</time>
      </trkpt>
      <trkpt lat="45.69076" lon="5.85912">
        <ele>343.81</ele>
        <time>2014-04-26T13:29:29Z</time>
      </trkpt>
      <trkpt lat="45.69076" lon="5.85912">
        <ele>343.33</ele>
        <time>2014-04-26T13:29:30Z</time>
      </trkpt>
      <trkpt lat="45.69093" lon="5.85914">
        <ele>340.92</ele>
        <time>2014-04-26T13:29:44Z</time>
      </trkpt>
      <trkpt lat="45.69115" lon="5.85918">
        <ele>339.96</ele>
        <time>2014-04-26T13:30:01Z</time>
      </trkpt>
      <trkpt lat="45.6913" lon="5.85919">
        <ele>341.89</ele>
        <time>2014-04-26T13:30:17Z</time>
      </trkpt>
      <trkpt lat="45.6915" lon="5.85919">
        <ele>344.77</ele>
        <time>2014-04-26T13:30:36Z</time>
      </trkpt>
      <trkpt lat="45.69151" lon="5.85919">
        <ele>345.73</ele>
        <time>2014-04-26T13:30:37Z</time>
      </trkpt>
      <trkpt lat="45.69143" lon="5.85924">
        <ele>347.17</ele>
        <time>2014-04-26T13:30:51Z</time>
      </trkpt>
      <trkpt lat="45.69148" lon="5.8592">
        <ele>350.06</ele>
        <time>2014-04-26T13:31:04Z</time>
      </trkpt>
      <trkpt lat="45.69157" lon="5.85912">
        <ele>353.42</ele>
        <time>2014-04-26T13:31:22Z</time>
      </trkpt>
      <trkpt lat="45.69171" lon="5.85907">
        <ele>355.83</ele>
        <time>2014-04-26T13:31:38Z</time>
      </trkpt>
      <trkpt lat="45.69185" lon="5.85905">
        <ele>355.83</ele>
        <time>2014-04-26T13:31:53Z</time>
      </trkpt>
      <trkpt lat="45.69204" lon="5.85901">
        <ele>353.42</ele>
        <time>2014-04-26T13:32:08Z</time>
      </trkpt>
      <trkpt lat="45.69214" lon="5.85907">
        <ele>350.06</ele>
        <time>2014-04-26T13:32:20Z</time>
      </trkpt>
      <trkpt lat="45.69223" lon="5.85916">
        <ele>347.17</ele>
        <time>2014-04-26T13:32:31Z</time>
      </trkpt>
      <trkpt lat="45.69239" lon="5.85939">
        <ele>346.21</ele>
        <time>2014-04-26T13:32:45Z</time>
      </trkpt>
      <trkpt lat="45.69241" lon="5.85947">
        <ele>345.73</ele>
        <time>2014-04-26T13:32:59Z</time>
      </trkpt>
      <trkpt lat="45.69243" lon="5.85947">
        <ele>345.73</ele>
        <time>2014-04-26T13:33:28Z</time>
      </trkpt>
      <trkpt lat="45.69243" lon="5.8595">
        <ele>345.25</ele>
        <time>2014-04-26T13:33:45Z</time>
      </trkpt>
      <trkpt lat="45.69256" lon="5.85957">
        <ele>344.29</ele>
        <time>2014-04-26T13:34:00Z</time>
      </trkpt>
      <trkpt lat="45.69275" lon="5.85965">
        <ele>342.85</ele>
        <time>2014-04-26T13:34:16Z</time>
      </trkpt>
      <trkpt lat="45.69293" lon="5.85975">
        <ele>342.85</ele>
        <time>2014-04-26T13:34:32Z</time>
      </trkpt>
      <trkpt lat="45.69294" lon="5.8598">
        <ele>342.85</ele>
        <time>2014-04-26T13:34:47Z</time>
      </trkpt>
      <trkpt lat="45.69298" lon="5.85985">
        <ele>342.37</ele>
        <time>2014-04-26T13:35:02Z</time>
      </trkpt>
      <trkpt lat="45.69299" lon="5.85985">
        <ele>341.89</ele>
        <time>2014-04-26T13:35:20Z</time>
      </trkpt>
      <trkpt lat="45.69301" lon="5.85989">
        <ele>342.37</ele>
        <time>2014-04-26T13:35:35Z</time>
      </trkpt>
      <trkpt lat="45.69302" lon="5.8599">
        <ele>342.85</ele>
        <time>2014-04-26T13:35:58Z</time>
      </trkpt>
      <trkpt lat="45.69303" lon="5.85991">
        <ele>342.37</ele>
        <time>2014-04-26T13:36:23Z</time>
      </trkpt>
      <trkpt lat="45.69303" lon="5.8599">
        <ele>342.37</ele>
        <time>2014-04-26T13:36:49Z</time>
      </trkpt>
      <trkpt lat="45.69303" lon="5.8599">
        <ele>342.85</ele>
        <time>2014-04-26T13:37:12Z</time>
      </trkpt>
      <trkpt lat="45.69314" lon="5.85992">
        <ele>340.44</ele>
        <time>2014-04-26T13:37:33Z</time>
      </trkpt>
      <trkpt lat="45.69336" lon="5.85999">
        <ele>337.56</ele>
        <time>2014-04-26T13:37:47Z</time>
      </trkpt>
      <trkpt lat="45.69338" lon="5.86">
        <ele>336.6</ele>
        <time>2014-04-26T13:37:49Z</time>
      </trkpt>
      <trkpt lat="45.6935" lon="5.86002">
        <ele>339</ele>
        <time>2014-04-26T13:38:03Z</time>
      </trkpt>
      <trkpt lat="45.69368" lon="5.86009">
        <ele>338.52</ele>
        <time>2014-04-26T13:38:20Z</time>
      </trkpt>
      <trkpt lat="45.69382" lon="5.86009">
        <ele>337.56</ele>
        <time>2014-04-26T13:38:33Z</time>
      </trkpt>
      <trkpt lat="45.69391" lon="5.86009">
        <ele>340.92</ele>
        <time>2014-04-26T13:38:44Z</time>
      </trkpt>
      <trkpt lat="45.69402" lon="5.86014">
        <ele>343.81</ele>
        <time>2014-04-26T13:38:59Z</time>
      </trkpt>
      <trkpt lat="45.69407" lon="5.86021">
        <ele>347.17</ele>
        <time>2014-04-26T13:39:12Z</time>
      </trkpt>
      <trkpt lat="45.69408" lon="5.86021">
        <ele>347.17</ele>
        <time>2014-04-26T13:39:13Z</time>
      </trkpt>
      <trkpt lat="45.69414" lon="5.86023">
        <ele>350.54</ele>
        <time>2014-04-26T13:39:27Z</time>
      </trkpt>
      <trkpt lat="45.69424" lon="5.86026">
        <ele>353.42</ele>
        <time>2014-04-26T13:39:40Z</time>
      </trkpt>
      <trkpt lat="45.69434" lon="5.86027">
        <ele>358.23</ele>
        <time>2014-04-26T13:39:49Z</time>
      </trkpt>
      <trkpt lat="45.69435" lon="5.86027">
        <ele>356.31</ele>
        <time>2014-04-26T13:39:50Z</time>
      </trkpt>
      <trkpt lat="45.69447" lon="5.8603">
        <ele>357.75</ele>
        <time>2014-04-26T13:40:04Z</time>
      </trkpt>
      <trkpt lat="45.69457" lon="5.86029">
        <ele>359.67</ele>
        <time>2014-04-26T13:40:13Z</time>
      </trkpt>
      <trkpt lat="45.69462" lon="5.86027">
        <ele>360.63</ele>
        <time>2014-04-26T13:40:17Z</time>
      </trkpt>
      <trkpt lat="45.69479" lon="5.86028">
        <ele>362.07</ele>
        <time>2014-04-26T13:40:34Z</time>
      </trkpt>
      <trkpt lat="45.695" lon="5.86028">
        <ele>361.59</ele>
        <time>2014-04-26T13:40:51Z</time>
      </trkpt>
      <trkpt lat="45.69515" lon="5.86033">
        <ele>360.63</ele>
        <time>2014-04-26T13:41:06Z</time>
      </trkpt>
      <trkpt lat="45.69526" lon="5.8603">
        <ele>360.63</ele>
        <time>2014-04-26T13:41:22Z</time>
      </trkpt>
      <trkpt lat="45.69539" lon="5.86032">
        <ele>357.75</ele>
        <time>2014-04-26T13:41:32Z</time>
      </trkpt>
      <trkpt lat="45.69563" lon="5.86031">
        <ele>354.86</ele>
        <time>2014-04-26T13:41:50Z</time>
      </trkpt>
      <trkpt lat="45.69576" lon="5.86033">
        <ele>352.94</ele>
        <time>2014-04-26T13:42:10Z</time>
      </trkpt>
      <trkpt lat="45.69593" lon="5.86029">
        <ele>351.98</ele>
        <time>2014-04-26T13:42:23Z</time>
      </trkpt>
      <trkpt lat="45.69611" lon="5.8604">
        <ele>353.9</ele>
        <time>2014-04-26T13:42:38Z</time>
      </trkpt>
      <trkpt lat="45.6963" lon="5.86053">
        <ele>354.38</ele>
        <time>2014-04-26T13:42:53Z</time>
      </trkpt>
      <trkpt lat="45.69646" lon="5.8605">
        <ele>352.46</ele>
        <time>2014-04-26T13:43:08Z</time>
      </trkpt>
      <trkpt lat="45.69654" lon="5.86048">
        <ele>349.1</ele>
        <time>2014-04-26T13:43:21Z</time>
      </trkpt>
      <trkpt lat="45.69662" lon="5.86043">
        <ele>348.13</ele>
        <time>2014-04-26T13:43:38Z</time>
      </trkpt>
      <trkpt lat="45.69675" lon="5.86036">
        <ele>348.13</ele>
        <time>2014-04-26T13:43:53Z</time>
      </trkpt>
      <trkpt lat="45.6969" lon="5.86033">
        <ele>347.17</ele>
        <time>2014-04-26T13:44:08Z</time>
      </trkpt>
      <trkpt lat="45.69703" lon="5.86031">
        <ele>345.73</ele>
        <time>2014-04-26T13:44:24Z</time>
      </trkpt>
      <trkpt lat="45.6972" lon="5.86027">
        <ele>346.69</ele>
        <time>2014-04-26T13:44:40Z</time>
      </trkpt>
      <trkpt lat="45.69736" lon="5.86021">
        <ele>349.1</ele>
        <time>2014-04-26T13:44:54Z</time>
      </trkpt>
      <trkpt lat="45.69743" lon="5.86017">
        <ele>351.98</ele>
        <time>2014-04-26T13:45:06Z</time>
      </trkpt>
      <trkpt lat="45.69751" lon="5.86014">
        <ele>354.86</ele>
        <time>2014-04-26T13:45:21Z</time>
      </trkpt>
      <trkpt lat="45.69753" lon="5.86014">
        <ele>355.83</ele>
        <time>2014-04-26T13:45:23Z</time>
      </trkpt>
      <trkpt lat="45.69759" lon="5.86008">
        <ele>358.71</ele>
        <time>2014-04-26T13:45:38Z</time>
      </trkpt>
      <trkpt lat="45.69768" lon="5.85997">
        <ele>361.59</ele>
        <time>2014-04-26T13:45:54Z</time>
      </trkpt>
      <trkpt lat="45.69773" lon="5.85996">
        <ele>364.96</ele>
        <time>2014-04-26T13:46:09Z</time>
      </trkpt>
      <trkpt lat="45.69783" lon="5.86">
        <ele>364.96</ele>
        <time>2014-04-26T13:46:23Z</time>
      </trkpt>
      <trkpt lat="45.69797" lon="5.86001">
        <ele>362.07</ele>
        <time>2014-04-26T13:46:39Z</time>
      </trkpt>
      <trkpt lat="45.69815" lon="5.85992">
        <ele>362.55</ele>
        <time>2014-04-26T13:46:59Z</time>
      </trkpt>
      <trkpt lat="45.6983" lon="5.85985">
        <ele>363.52</ele>
        <time>2014-04-26T13:47:18Z</time>
      </trkpt>
      <trkpt lat="45.69853" lon="5.85981">
        <ele>363.52</ele>
        <time>2014-04-26T13:47:34Z</time>
      </trkpt>
      <trkpt lat="45.69867" lon="5.85978">
        <ele>364</ele>
        <time>2014-04-26T13:47:51Z</time>
      </trkpt>
      <trkpt lat="45.6988" lon="5.85983">
        <ele>364</ele>
        <time>2014-04-26T13:48:08Z</time>
      </trkpt>
      <trkpt lat="45.69894" lon="5.85987">
        <ele>364</ele>
        <time>2014-04-26T13:48:18Z</time>
      </trkpt>
      <trkpt lat="45.69908" lon="5.8599">
        <ele>363.52</ele>
        <time>2014-04-26T13:48:30Z</time>
      </trkpt>
      <trkpt lat="45.69915" lon="5.86003">
        <ele>364</ele>
        <time>2014-04-26T13:48:46Z</time>
      </trkpt>
      <trkpt lat="45.69919" lon="5.86008">
        <ele>363.52</ele>
        <time>2014-04-26T13:49:11Z</time>
      </trkpt>
      <trkpt lat="45.6992" lon="5.86006">
        <ele>364.48</ele>
        <time>2014-04-26T13:49:29Z</time>
      </trkpt>
      <trkpt lat="45.6992" lon="5.86009">
        <ele>364</ele>
        <time>2014-04-26T13:49:57Z</time>
      </trkpt>
      <trkpt lat="45.6992" lon="5.86007">
        <ele>364.48</ele>
        <time>2014-04-26T13:50:21Z</time>
      </trkpt>
      <trkpt lat="45.69923" lon="5.86009">
        <ele>364.48</ele>
        <time>2014-04-26T13:50:37Z</time>
      </trkpt>
      <trkpt lat="45.6993" lon="5.8601">
        <ele>364.48</ele>
        <time>2014-04-26T13:50:48Z</time>
      </trkpt>
      <trkpt lat="45.69932" lon="5.86009">
        <ele>364.96</ele>
        <time>2014-04-26T13:50:50Z</time>
      </trkpt>
      <trkpt lat="45.69937" lon="5.86006">
        <ele>364.48</ele>
        <time>2014-04-26T13:50:56Z</time>
      </trkpt>
      <trkpt lat="45.69958" lon="5.86005">
        <ele>364.48</ele>
        <time>2014-04-26T13:51:11Z</time>
      </trkpt>
      <trkpt lat="45.6996" lon="5.86003">
        <ele>364.96</ele>
        <time>2014-04-26T13:51:13Z</time>
      </trkpt>
      <trkpt lat="45.69973" lon="5.86004">
        <ele>364</ele>
        <time>2014-04-26T13:51:25Z</time>
      </trkpt>
      <trkpt lat="45.69982" lon="5.86007">
        <ele>363.52</ele>
        <time>2014-04-26T13:51:36Z</time>
      </trkpt>
      <trkpt lat="45.69995" lon="5.86002">
        <ele>364</ele>
        <time>2014-04-26T13:51:51Z</time>
      </trkpt>
      <trkpt lat="45.70002" lon="5.86009">
        <ele>360.63</ele>
        <time>2014-04-26T13:52:00Z</time>
      </trkpt>
      <trkpt lat="45.70014" lon="5.86008">
        <ele>357.75</ele>
        <time>2014-04-26T13:52:16Z</time>
      </trkpt>
      <trkpt lat="45.70015" lon="5.86009">
        <ele>355.83</ele>
        <time>2014-04-26T13:52:19Z</time>
      </trkpt>
      <trkpt lat="45.70026" lon="5.86009">
        <ele>357.27</ele>
        <time>2014-04-26T13:52:31Z</time>
      </trkpt>
      <trkpt lat="45.70043" lon="5.86016">
        <ele>358.23</ele>
        <time>2014-04-26T13:52:45Z</time>
      </trkpt>
      <trkpt lat="45.70053" lon="5.86015">
        <ele>361.59</ele>
        <time>2014-04-26T13:52:57Z</time>
      </trkpt>
      <trkpt lat="45.70054" lon="5.86014">
        <ele>361.59</ele>
        <time>2014-04-26T13:52:58Z</time>
      </trkpt>
      <trkpt lat="45.70058" lon="5.86009">
        <ele>364.96</ele>
        <time>2014-04-26T13:53:12Z</time>
      </trkpt>
      <trkpt lat="45.70062" lon="5.86006">
        <ele>367.84</ele>
        <time>2014-04-26T13:53:24Z</time>
      </trkpt>
      <trkpt lat="45.70069" lon="5.86003">
        <ele>370.73</ele>
        <time>2014-04-26T13:53:39Z</time>
      </trkpt>
      <trkpt lat="45.70072" lon="5.86002">
        <ele>372.17</ele>
        <time>2014-04-26T13:53:44Z</time>
      </trkpt>
      <trkpt lat="45.70077" lon="5.86002">
        <ele>374.57</ele>
        <time>2014-04-26T13:53:57Z</time>
      </trkpt>
      <trkpt lat="45.70081" lon="5.86003">
        <ele>376.49</ele>
        <time>2014-04-26T13:54:11Z</time>
      </trkpt>
      <trkpt lat="45.70083" lon="5.86006">
        <ele>376.49</ele>
        <time>2014-04-26T13:54:33Z</time>
      </trkpt>
      <trkpt lat="45.70085" lon="5.86005">
        <ele>376.49</ele>
        <time>2014-04-26T13:55:00Z</time>
      </trkpt>
      <trkpt lat="45.70084" lon="5.86006">
        <ele>379.38</ele>
        <time>2014-04-26T13:55:14Z</time>
      </trkpt>
      <trkpt lat="45.70084" lon="5.86006">
        <ele>376.01</ele>
        <time>2014-04-26T13:55:15Z</time>
      </trkpt>
      <trkpt lat="45.70084" lon="5.86006">
        <ele>376.97</ele>
        <time>2014-04-26T13:55:30Z</time>
      </trkpt>
      <trkpt lat="45.70085" lon="5.86006">
        <ele>379.86</ele>
        <time>2014-04-26T13:55:44Z</time>
      </trkpt>
      <trkpt lat="45.70085" lon="5.86005">
        <ele>376.97</ele>
        <time>2014-04-26T13:56:03Z</time>
      </trkpt>
      <trkpt lat="45.70085" lon="5.86005">
        <ele>374.09</ele>
        <time>2014-04-26T13:56:22Z</time>
      </trkpt>
      <trkpt lat="45.70085" lon="5.86005">
        <ele>378.42</ele>
        <time>2014-04-26T13:56:23Z</time>
      </trkpt>
      <trkpt lat="45.70085" lon="5.86004">
        <ele>377.45</ele>
        <time>2014-04-26T13:56:49Z</time>
      </trkpt>
      <trkpt lat="45.70085" lon="5.86005">
        <ele>377.94</ele>
        <time>2014-04-26T13:57:13Z</time>
      </trkpt>
      <trkpt lat="45.70085" lon="5.86004">
        <ele>377.45</ele>
        <time>2014-04-26T13:57:31Z</time>
      </trkpt>
      <trkpt lat="45.70085" lon="5.86003">
        <ele>378.42</ele>
        <time>2014-04-26T13:57:56Z</time>
      </trkpt>
      <trkpt lat="45.70085" lon="5.86002">
        <ele>377.94</ele>
        <time>2014-04-26T13:58:16Z</time>
      </trkpt>
      <trkpt lat="45.70089" lon="5.86003">
        <ele>378.9</ele>
        <time>2014-04-26T13:58:28Z</time>
      </trkpt>
      <trkpt lat="45.70095" lon="5.86003">
        <ele>379.86</ele>
        <time>2014-04-26T13:58:39Z</time>
      </trkpt>
      <trkpt lat="45.70107" lon="5.86004">
        <ele>380.34</ele>
        <time>2014-04-26T13:58:53Z</time>
      </trkpt>
      <trkpt lat="45.70121" lon="5.86002">
        <ele>378.42</ele>
        <time>2014-04-26T13:59:07Z</time>
      </trkpt>
      <trkpt lat="45.70137" lon="5.86002">
        <ele>378.9</ele>
        <time>2014-04-26T13:59:19Z</time>
      </trkpt>
      <trkpt lat="45.70151" lon="5.85996">
        <ele>379.86</ele>
        <time>2014-04-26T13:59:33Z</time>
      </trkpt>
      <trkpt lat="45.70163" lon="5.86">
        <ele>376.49</ele>
        <time>2014-04-26T13:59:43Z</time>
      </trkpt>
      <trkpt lat="45.70171" lon="5.86003">
        <ele>373.13</ele>
        <time>2014-04-26T13:59:52Z</time>
      </trkpt>
      <trkpt lat="45.70171" lon="5.86004">
        <ele>372.17</ele>
        <time>2014-04-26T13:59:53Z</time>
      </trkpt>
      <trkpt lat="45.70174" lon="5.86006">
        <ele>370.24</ele>
        <time>2014-04-26T13:59:56Z</time>
      </trkpt>
      <trkpt lat="45.70176" lon="5.86007">
        <ele>368.8</ele>
        <time>2014-04-26T13:59:59Z</time>
      </trkpt>
      <trkpt lat="45.70185" lon="5.86002">
        <ele>366.88</ele>
        <time>2014-04-26T14:00:14Z</time>
      </trkpt>
      <trkpt lat="45.7019" lon="5.85997">
        <ele>367.84</ele>
        <time>2014-04-26T14:00:27Z</time>
      </trkpt>
      <trkpt lat="45.70202" lon="5.85991">
        <ele>368.32</ele>
        <time>2014-04-26T14:00:37Z</time>
      </trkpt>
      <trkpt lat="45.70212" lon="5.85987">
        <ele>367.36</ele>
        <time>2014-04-26T14:00:47Z</time>
      </trkpt>
      <trkpt lat="45.70227" lon="5.85979">
        <ele>370.24</ele>
        <time>2014-04-26T14:00:53Z</time>
      </trkpt>
      <trkpt lat="45.70233" lon="5.85974">
        <ele>373.13</ele>
        <time>2014-04-26T14:01:00Z</time>
      </trkpt>
      <trkpt lat="45.70243" lon="5.85964">
        <ele>376.49</ele>
        <time>2014-04-26T14:01:09Z</time>
      </trkpt>
      <trkpt lat="45.70256" lon="5.85955">
        <ele>378.9</ele>
        <time>2014-04-26T14:01:23Z</time>
      </trkpt>
      <trkpt lat="45.70262" lon="5.8595">
        <ele>381.78</ele>
        <time>2014-04-26T14:01:35Z</time>
      </trkpt>
      <trkpt lat="45.70276" lon="5.85942">
        <ele>383.7</ele>
        <time>2014-04-26T14:01:51Z</time>
      </trkpt>
      <trkpt lat="45.70292" lon="5.85944">
        <ele>381.3</ele>
        <time>2014-04-26T14:02:06Z</time>
      </trkpt>
      <trkpt lat="45.7031" lon="5.85944">
        <ele>381.78</ele>
        <time>2014-04-26T14:02:24Z</time>
      </trkpt>
      <trkpt lat="45.70329" lon="5.85937">
        <ele>383.7</ele>
        <time>2014-04-26T14:02:41Z</time>
      </trkpt>
      <trkpt lat="45.70338" lon="5.8593">
        <ele>386.11</ele>
        <time>2014-04-26T14:02:59Z</time>
      </trkpt>
      <trkpt lat="45.70354" lon="5.8592">
        <ele>388.99</ele>
        <time>2014-04-26T14:03:15Z</time>
      </trkpt>
      <trkpt lat="45.70368" lon="5.85919">
        <ele>390.43</ele>
        <time>2014-04-26T14:03:29Z</time>
      </trkpt>
      <trkpt lat="45.70382" lon="5.85921">
        <ele>393.32</ele>
        <time>2014-04-26T14:03:41Z</time>
      </trkpt>
      <trkpt lat="45.7039" lon="5.85923">
        <ele>394.76</ele>
        <time>2014-04-26T14:03:53Z</time>
      </trkpt>
      <trkpt lat="45.70402" lon="5.85921">
        <ele>397.16</ele>
        <time>2014-04-26T14:04:08Z</time>
      </trkpt>
      <trkpt lat="45.70411" lon="5.85918">
        <ele>399.08</ele>
        <time>2014-04-26T14:04:22Z</time>
      </trkpt>
      <trkpt lat="45.70421" lon="5.85919">
        <ele>399.57</ele>
        <time>2014-04-26T14:04:37Z</time>
      </trkpt>
      <trkpt lat="45.70431" lon="5.8592">
        <ele>399.08</ele>
        <time>2014-04-26T14:04:50Z</time>
      </trkpt>
      <trkpt lat="45.70437" lon="5.85923">
        <ele>398.6</ele>
        <time>2014-04-26T14:05:01Z</time>
      </trkpt>
      <trkpt lat="45.70445" lon="5.85922">
        <ele>397.16</ele>
        <time>2014-04-26T14:05:15Z</time>
      </trkpt>
      <trkpt lat="45.70451" lon="5.85925">
        <ele>393.8</ele>
        <time>2014-04-26T14:05:25Z</time>
      </trkpt>
      <trkpt lat="45.70451" lon="5.85925">
        <ele>393.8</ele>
        <time>2014-04-26T14:05:26Z</time>
      </trkpt>
      <trkpt lat="45.70458" lon="5.85924">
        <ele>390.43</ele>
        <time>2014-04-26T14:05:36Z</time>
      </trkpt>
      <trkpt lat="45.7047" lon="5.85928">
        <ele>388.03</ele>
        <time>2014-04-26T14:05:45Z</time>
      </trkpt>
      <trkpt lat="45.70485" lon="5.85926">
        <ele>387.07</ele>
        <time>2014-04-26T14:05:58Z</time>
      </trkpt>
      <trkpt lat="45.70491" lon="5.85927">
        <ele>384.18</ele>
        <time>2014-04-26T14:06:09Z</time>
      </trkpt>
      <trkpt lat="45.70497" lon="5.85932">
        <ele>382.26</ele>
        <time>2014-04-26T14:06:18Z</time>
      </trkpt>
      <trkpt lat="45.705" lon="5.85935">
        <ele>381.78</ele>
        <time>2014-04-26T14:06:30Z</time>
      </trkpt>
      <trkpt lat="45.70503" lon="5.85937">
        <ele>380.34</ele>
        <time>2014-04-26T14:06:45Z</time>
      </trkpt>
      <trkpt lat="45.70503" lon="5.85938">
        <ele>379.86</ele>
        <time>2014-04-26T14:07:00Z</time>
      </trkpt>
      <trkpt lat="45.70504" lon="5.85937">
        <ele>379.86</ele>
        <time>2014-04-26T14:07:27Z</time>
      </trkpt>
      <trkpt lat="45.70504" lon="5.85936">
        <ele>380.34</ele>
        <time>2014-04-26T14:07:43Z</time>
      </trkpt>
      <trkpt lat="45.70504" lon="5.85936">
        <ele>379.86</ele>
        <time>2014-04-26T14:07:57Z</time>
      </trkpt>
      <trkpt lat="45.70503" lon="5.85936">
        <ele>379.86</ele>
        <time>2014-04-26T14:08:18Z</time>
      </trkpt>
      <trkpt lat="45.70503" lon="5.85937">
        <ele>379.86</ele>
        <time>2014-04-26T14:08:44Z</time>
      </trkpt>
      <trkpt lat="45.70502" lon="5.85937">
        <ele>380.34</ele>
        <time>2014-04-26T14:09:13Z</time>
      </trkpt>
      <trkpt lat="45.70502" lon="5.85937">
        <ele>380.34</ele>
        <time>2014-04-26T14:09:40Z</time>
      </trkpt>
      <trkpt lat="45.70502" lon="5.85936">
        <ele>380.34</ele>
        <time>2014-04-26T14:10:09Z</time>
      </trkpt>
      <trkpt lat="45.70502" lon="5.85937">
        <ele>379.86</ele>
        <time>2014-04-26T14:10:42Z</time>
      </trkpt>
      <trkpt lat="45.70501" lon="5.85936">
        <ele>381.3</ele>
        <time>2014-04-26T14:11:01Z</time>
      </trkpt>
      <trkpt lat="45.70498" lon="5.85935">
        <ele>385.15</ele>
        <time>2014-04-26T14:11:14Z</time>
      </trkpt>
      <trkpt lat="45.70492" lon="5.85932">
        <ele>387.55</ele>
        <time>2014-04-26T14:11:27Z</time>
      </trkpt>
      <trkpt lat="45.70489" lon="5.8593">
        <ele>391.87</ele>
        <time>2014-04-26T14:11:35Z</time>
      </trkpt>
      <trkpt lat="45.70488" lon="5.85929">
        <ele>386.59</ele>
        <time>2014-04-26T14:11:38Z</time>
      </trkpt>
      <trkpt lat="45.70485" lon="5.85924">
        <ele>389.47</ele>
        <time>2014-04-26T14:11:43Z</time>
      </trkpt>
      <trkpt lat="45.70482" lon="5.85922">
        <ele>390.91</ele>
        <time>2014-04-26T14:12:01Z</time>
      </trkpt>
      <trkpt lat="45.70474" lon="5.85921">
        <ele>394.28</ele>
        <time>2014-04-26T14:12:18Z</time>
      </trkpt>
      <trkpt lat="45.70467" lon="5.85919">
        <ele>394.76</ele>
        <time>2014-04-26T14:12:35Z</time>
      </trkpt>
      <trkpt lat="45.70467" lon="5.85917">
        <ele>394.28</ele>
        <time>2014-04-26T14:13:01Z</time>
      </trkpt>
      <trkpt lat="45.70467" lon="5.85916">
        <ele>394.76</ele>
        <time>2014-04-26T14:13:30Z</time>
      </trkpt>
      <trkpt lat="45.70473" lon="5.85909">
        <ele>395.72</ele>
        <time>2014-04-26T14:13:56Z</time>
      </trkpt>
      <trkpt lat="45.70471" lon="5.85904">
        <ele>398.6</ele>
        <time>2014-04-26T14:14:08Z</time>
      </trkpt>
      <trkpt lat="45.70469" lon="5.85901">
        <ele>398.6</ele>
        <time>2014-04-26T14:14:25Z</time>
      </trkpt>
      <trkpt lat="45.70471" lon="5.859">
        <ele>398.6</ele>
        <time>2014-04-26T14:14:50Z</time>
      </trkpt>
      <trkpt lat="45.70471" lon="5.85899">
        <ele>398.6</ele>
        <time>2014-04-26T14:15:16Z</time>
      </trkpt>
      <trkpt lat="45.70472" lon="5.85898">
        <ele>399.08</ele>
        <time>2014-04-26T14:15:39Z</time>
      </trkpt>
      <trkpt lat="45.70476" lon="5.85897">
        <ele>399.08</ele>
        <time>2014-04-26T14:16:08Z</time>
      </trkpt>
      <trkpt lat="45.70476" lon="5.85895">
        <ele>398.6</ele>
        <time>2014-04-26T14:16:33Z</time>
      </trkpt>
      <trkpt lat="45.70476" lon="5.85895">
        <ele>398.6</ele>
        <time>2014-04-26T14:17:04Z</time>
      </trkpt>
      <trkpt lat="45.70482" lon="5.85892">
        <ele>398.6</ele>
        <time>2014-04-26T14:17:36Z</time>
      </trkpt>
      <trkpt lat="45.70482" lon="5.85892">
        <ele>399.08</ele>
        <time>2014-04-26T14:17:56Z</time>
      </trkpt>
      <trkpt lat="45.7048" lon="5.85892">
        <ele>398.6</ele>
        <time>2014-04-26T14:18:37Z</time>
      </trkpt>
      <trkpt lat="45.70477" lon="5.85893">
        <ele>399.57</ele>
        <time>2014-04-26T14:19:02Z</time>
      </trkpt>
      <trkpt lat="45.70471" lon="5.85892">
        <ele>402.45</ele>
        <time>2014-04-26T14:19:19Z</time>
      </trkpt>
      <trkpt lat="45.70476" lon="5.85881">
        <ele>405.33</ele>
        <time>2014-04-26T14:19:36Z</time>
      </trkpt>
      <trkpt lat="45.70473" lon="5.85873">
        <ele>408.22</ele>
        <time>2014-04-26T14:19:52Z</time>
      </trkpt>
      <trkpt lat="45.70482" lon="5.85857">
        <ele>410.62</ele>
        <time>2014-04-26T14:20:09Z</time>
      </trkpt>
      <trkpt lat="45.70484" lon="5.85854">
        <ele>413.02</ele>
        <time>2014-04-26T14:20:25Z</time>
      </trkpt>
      <trkpt lat="45.70488" lon="5.85844">
        <ele>415.43</ele>
        <time>2014-04-26T14:20:41Z</time>
      </trkpt>
      <trkpt lat="45.70484" lon="5.85842">
        <ele>417.35</ele>
        <time>2014-04-26T14:20:59Z</time>
      </trkpt>
      <trkpt lat="45.70503" lon="5.85826">
        <ele>417.83</ele>
        <time>2014-04-26T14:21:22Z</time>
      </trkpt>
      <trkpt lat="45.70505" lon="5.85824">
        <ele>419.75</ele>
        <time>2014-04-26T14:21:47Z</time>
      </trkpt>
      <trkpt lat="45.70498" lon="5.85816">
        <ele>422.64</ele>
        <time>2014-04-26T14:22:05Z</time>
      </trkpt>
      <trkpt lat="45.70492" lon="5.85807">
        <ele>424.56</ele>
        <time>2014-04-26T14:22:28Z</time>
      </trkpt>
      <trkpt lat="45.70496" lon="5.85798">
        <ele>426</ele>
        <time>2014-04-26T14:22:39Z</time>
      </trkpt>
      <trkpt lat="45.70514" lon="5.85784">
        <ele>429.37</ele>
        <time>2014-04-26T14:22:53Z</time>
      </trkpt>
      <trkpt lat="45.70527" lon="5.8577">
        <ele>432.73</ele>
        <time>2014-04-26T14:23:12Z</time>
      </trkpt>
      <trkpt lat="45.70611" lon="5.85725">
        <ele>513.96</ele>
        <time>2014-04-26T14:35:58Z</time>
      </trkpt>
      <trkpt lat="45.70563" lon="5.85709">
        <ele>513.48</ele>
        <time>2014-04-26T14:36:27Z</time>
      </trkpt>
      <trkpt lat="45.70558" lon="5.85705">
        <ele>513.48</ele>
        <time>2014-04-26T14:36:51Z</time>
      </trkpt>
      <trkpt lat="45.70538" lon="5.85696">
        <ele>513.96</ele>
        <time>2014-04-26T14:37:12Z</time>
      </trkpt>
      <trkpt lat="45.70506" lon="5.85671">
        <ele>513.96</ele>
        <time>2014-04-26T14:37:41Z</time>
      </trkpt>
      <trkpt lat="45.70487" lon="5.85675">
        <ele>513.48</ele>
        <time>2014-04-26T14:38:12Z</time>
      </trkpt>
      <trkpt lat="45.70486" lon="5.85688">
        <ele>514.92</ele>
        <time>2014-04-26T14:38:30Z</time>
      </trkpt>
      <trkpt lat="45.70485" lon="5.857">
        <ele>514.92</ele>
        <time>2014-04-26T14:38:54Z</time>
      </trkpt>
      <trkpt lat="45.70488" lon="5.85716">
        <ele>515.88</ele>
        <time>2014-04-26T14:39:17Z</time>
      </trkpt>
      <trkpt lat="45.70489" lon="5.85726">
        <ele>516.37</ele>
        <time>2014-04-26T14:39:46Z</time>
      </trkpt>
      <trkpt lat="45.70484" lon="5.85701">
        <ele>516.85</ele>
        <time>2014-04-26T14:40:18Z</time>
      </trkpt>
      <trkpt lat="45.70495" lon="5.85709">
        <ele>519.73</ele>
        <time>2014-04-26T14:40:40Z</time>
      </trkpt>
      <trkpt lat="45.70498" lon="5.85711">
        <ele>523.09</ele>
        <time>2014-04-26T14:40:51Z</time>
      </trkpt>
      <trkpt lat="45.70495" lon="5.85711">
        <ele>525.02</ele>
        <time>2014-04-26T14:41:11Z</time>
      </trkpt>
      <trkpt lat="45.70493" lon="5.85712">
        <ele>527.9</ele>
        <time>2014-04-26T14:41:31Z</time>
      </trkpt>
      <trkpt lat="45.70492" lon="5.85715">
        <ele>529.34</ele>
        <time>2014-04-26T14:41:50Z</time>
      </trkpt>
      <trkpt lat="45.70491" lon="5.85715">
        <ele>529.82</ele>
        <time>2014-04-26T14:42:06Z</time>
      </trkpt>
      <trkpt lat="45.70492" lon="5.85717">
        <ele>531.27</ele>
        <time>2014-04-26T14:42:24Z</time>
      </trkpt>
      <trkpt lat="45.70494" lon="5.85715">
        <ele>532.23</ele>
        <time>2014-04-26T14:42:42Z</time>
      </trkpt>
      <trkpt lat="45.70495" lon="5.85711">
        <ele>535.59</ele>
        <time>2014-04-26T14:42:59Z</time>
      </trkpt>
      <trkpt lat="45.70498" lon="5.85706">
        <ele>537.51</ele>
        <time>2014-04-26T14:43:08Z</time>
      </trkpt>
      <trkpt lat="45.70504" lon="5.857">
        <ele>540.88</ele>
        <time>2014-04-26T14:43:22Z</time>
      </trkpt>
      <trkpt lat="45.70498" lon="5.85702">
        <ele>543.76</ele>
        <time>2014-04-26T14:43:37Z</time>
      </trkpt>
      <trkpt lat="45.70494" lon="5.85703">
        <ele>547.13</ele>
        <time>2014-04-26T14:43:47Z</time>
      </trkpt>
      <trkpt lat="45.70489" lon="5.85702">
        <ele>550.01</ele>
        <time>2014-04-26T14:44:00Z</time>
      </trkpt>
      <trkpt lat="45.7048" lon="5.85695">
        <ele>553.38</ele>
        <time>2014-04-26T14:44:15Z</time>
      </trkpt>
      <trkpt lat="45.70476" lon="5.8569">
        <ele>556.26</ele>
        <time>2014-04-26T14:44:31Z</time>
      </trkpt>
      <trkpt lat="45.70472" lon="5.85685">
        <ele>559.14</ele>
        <time>2014-04-26T14:44:47Z</time>
      </trkpt>
      <trkpt lat="45.70471" lon="5.85683">
        <ele>560.11</ele>
        <time>2014-04-26T14:45:04Z</time>
      </trkpt>
      <trkpt lat="45.70472" lon="5.85678">
        <ele>563.47</ele>
        <time>2014-04-26T14:45:20Z</time>
      </trkpt>
      <trkpt lat="45.70472" lon="5.85674">
        <ele>564.43</ele>
        <time>2014-04-26T14:45:33Z</time>
      </trkpt>
      <trkpt lat="45.70474" lon="5.8567">
        <ele>564.43</ele>
        <time>2014-04-26T14:45:50Z</time>
      </trkpt>
      <trkpt lat="45.70475" lon="5.8567">
        <ele>564.43</ele>
        <time>2014-04-26T14:46:06Z</time>
      </trkpt>
      <trkpt lat="45.70472" lon="5.85672">
        <ele>562.03</ele>
        <time>2014-04-26T14:46:15Z</time>
      </trkpt>
      <trkpt lat="45.70472" lon="5.85672">
        <ele>564.91</ele>
        <time>2014-04-26T14:46:16Z</time>
      </trkpt>
      <trkpt lat="45.70472" lon="5.8567">
        <ele>568.28</ele>
        <time>2014-04-26T14:46:27Z</time>
      </trkpt>
      <trkpt lat="45.70472" lon="5.85671">
        <ele>565.39</ele>
        <time>2014-04-26T14:46:28Z</time>
      </trkpt>
      <trkpt lat="45.70471" lon="5.85672">
        <ele>567.32</ele>
        <time>2014-04-26T14:46:47Z</time>
      </trkpt>
      <trkpt lat="45.70468" lon="5.85672">
        <ele>567.32</ele>
        <time>2014-04-26T14:47:06Z</time>
      </trkpt>
      <trkpt lat="45.70466" lon="5.85671">
        <ele>567.8</ele>
        <time>2014-04-26T14:47:23Z</time>
      </trkpt>
      <trkpt lat="45.70466" lon="5.85668">
        <ele>570.2</ele>
        <time>2014-04-26T14:47:40Z</time>
      </trkpt>
      <trkpt lat="45.70463" lon="5.85664">
        <ele>571.64</ele>
        <time>2014-04-26T14:47:57Z</time>
      </trkpt>
      <trkpt lat="45.70462" lon="5.85664">
        <ele>573.56</ele>
        <time>2014-04-26T14:48:11Z</time>
      </trkpt>
      <trkpt lat="45.7046" lon="5.8566">
        <ele>575.97</ele>
        <time>2014-04-26T14:48:30Z</time>
      </trkpt>
      <trkpt lat="45.70458" lon="5.85658">
        <ele>578.37</ele>
        <time>2014-04-26T14:48:47Z</time>
      </trkpt>
      <trkpt lat="45.70457" lon="5.85653">
        <ele>580.77</ele>
        <time>2014-04-26T14:49:03Z</time>
      </trkpt>
      <trkpt lat="45.70455" lon="5.85647">
        <ele>582.7</ele>
        <time>2014-04-26T14:49:21Z</time>
      </trkpt>
      <trkpt lat="45.70452" lon="5.85645">
        <ele>586.06</ele>
        <time>2014-04-26T14:49:40Z</time>
      </trkpt>
      <trkpt lat="45.70452" lon="5.85641">
        <ele>587.5</ele>
        <time>2014-04-26T14:49:58Z</time>
      </trkpt>
      <trkpt lat="45.70453" lon="5.85638">
        <ele>589.91</ele>
        <time>2014-04-26T14:50:21Z</time>
      </trkpt>
      <trkpt lat="45.70451" lon="5.85635">
        <ele>589.43</ele>
        <time>2014-04-26T14:50:44Z</time>
      </trkpt>
      <trkpt lat="45.70452" lon="5.85633">
        <ele>590.39</ele>
        <time>2014-04-26T14:51:03Z</time>
      </trkpt>
      <trkpt lat="45.70446" lon="5.85624">
        <ele>590.87</ele>
        <time>2014-04-26T14:51:17Z</time>
      </trkpt>
      <trkpt lat="45.70448" lon="5.85611">
        <ele>589.43</ele>
        <time>2014-04-26T14:51:32Z</time>
      </trkpt>
      <trkpt lat="45.70449" lon="5.856">
        <ele>588.95</ele>
        <time>2014-04-26T14:51:47Z</time>
      </trkpt>
      <trkpt lat="45.70455" lon="5.85597">
        <ele>588.95</ele>
        <time>2014-04-26T14:52:03Z</time>
      </trkpt>
      <trkpt lat="45.70454" lon="5.85605">
        <ele>590.87</ele>
        <time>2014-04-26T14:52:20Z</time>
      </trkpt>
      <trkpt lat="45.70457" lon="5.85609">
        <ele>590.87</ele>
        <time>2014-04-26T14:52:35Z</time>
      </trkpt>
      <trkpt lat="45.70458" lon="5.85605">
        <ele>590.39</ele>
        <time>2014-04-26T14:52:55Z</time>
      </trkpt>
      <trkpt lat="45.70456" lon="5.85608">
        <ele>589.91</ele>
        <time>2014-04-26T14:53:18Z</time>
      </trkpt>
      <trkpt lat="45.70456" lon="5.85608">
        <ele>593.27</ele>
        <time>2014-04-26T14:53:21Z</time>
      </trkpt>
      <trkpt lat="45.70456" lon="5.85608">
        <ele>589.43</ele>
        <time>2014-04-26T14:53:23Z</time>
      </trkpt>
      <trkpt lat="45.70456" lon="5.85608">
        <ele>590.87</ele>
        <time>2014-04-26T14:53:47Z</time>
      </trkpt>
      <trkpt lat="45.70457" lon="5.85609">
        <ele>590.39</ele>
        <time>2014-04-26T14:54:08Z</time>
      </trkpt>
      <trkpt lat="45.70457" lon="5.8561">
        <ele>590.39</ele>
        <time>2014-04-26T14:54:33Z</time>
      </trkpt>
      <trkpt lat="45.70458" lon="5.85613">
        <ele>590.87</ele>
        <time>2014-04-26T14:54:55Z</time>
      </trkpt>
      <trkpt lat="45.70458" lon="5.85611">
        <ele>590.87</ele>
        <time>2014-04-26T14:55:13Z</time>
      </trkpt>
      <trkpt lat="45.70457" lon="5.85612">
        <ele>590.39</ele>
        <time>2014-04-26T14:55:34Z</time>
      </trkpt>
      <trkpt lat="45.70456" lon="5.85616">
        <ele>590.39</ele>
        <time>2014-04-26T14:56:00Z</time>
      </trkpt>
      <trkpt lat="45.70454" lon="5.85617">
        <ele>590.87</ele>
        <time>2014-04-26T14:56:20Z</time>
      </trkpt>
      <trkpt lat="45.70454" lon="5.85618">
        <ele>590.39</ele>
        <time>2014-04-26T14:56:44Z</time>
      </trkpt>
      <trkpt lat="45.7045" lon="5.85612">
        <ele>591.83</ele>
        <time>2014-04-26T14:56:58Z</time>
      </trkpt>
      <trkpt lat="45.70438" lon="5.85601">
        <ele>593.75</ele>
        <time>2014-04-26T14:57:11Z</time>
      </trkpt>
      <trkpt lat="45.70438" lon="5.85597">
        <ele>594.23</ele>
        <time>2014-04-26T14:57:13Z</time>
      </trkpt>
      <trkpt lat="45.70434" lon="5.85583">
        <ele>594.71</ele>
        <time>2014-04-26T14:57:24Z</time>
      </trkpt>
      <trkpt lat="45.7043" lon="5.85569">
        <ele>596.15</ele>
        <time>2014-04-26T14:57:38Z</time>
      </trkpt>
      <trkpt lat="45.70429" lon="5.85568">
        <ele>595.67</ele>
        <time>2014-04-26T14:57:40Z</time>
      </trkpt>
      <trkpt lat="45.70428" lon="5.85555">
        <ele>596.15</ele>
        <time>2014-04-26T14:57:54Z</time>
      </trkpt>
      <trkpt lat="45.70423" lon="5.85542">
        <ele>597.6</ele>
        <time>2014-04-26T14:58:06Z</time>
      </trkpt>
      <trkpt lat="45.70415" lon="5.85537">
        <ele>598.08</ele>
        <time>2014-04-26T14:58:12Z</time>
      </trkpt>
      <trkpt lat="45.70409" lon="5.85524">
        <ele>599.52</ele>
        <time>2014-04-26T14:58:26Z</time>
      </trkpt>
      <trkpt lat="45.70407" lon="5.85513">
        <ele>600.96</ele>
        <time>2014-04-26T14:58:39Z</time>
      </trkpt>
      <trkpt lat="45.70403" lon="5.85508">
        <ele>601.44</ele>
        <time>2014-04-26T14:58:55Z</time>
      </trkpt>
      <trkpt lat="45.704" lon="5.85507">
        <ele>601.44</ele>
        <time>2014-04-26T14:59:23Z</time>
      </trkpt>
      <trkpt lat="45.70401" lon="5.85506">
        <ele>601.44</ele>
        <time>2014-04-26T14:59:47Z</time>
      </trkpt>
      <trkpt lat="45.704" lon="5.85505">
        <ele>600.96</ele>
        <time>2014-04-26T15:00:17Z</time>
      </trkpt>
      <trkpt lat="45.704" lon="5.85505">
        <ele>600.96</ele>
        <time>2014-04-26T15:00:44Z</time>
      </trkpt>
      <trkpt lat="45.70402" lon="5.85501">
        <ele>601.44</ele>
        <time>2014-04-26T15:01:09Z</time>
      </trkpt>
      <trkpt lat="45.70395" lon="5.85495">
        <ele>602.4</ele>
        <time>2014-04-26T15:01:26Z</time>
      </trkpt>
      <trkpt lat="45.70397" lon="5.85492">
        <ele>605.77</ele>
        <time>2014-04-26T15:01:41Z</time>
      </trkpt>
      <trkpt lat="45.704" lon="5.85481">
        <ele>608.65</ele>
        <time>2014-04-26T15:01:53Z</time>
      </trkpt>
      <trkpt lat="45.70434" lon="5.85466">
        <ele>610.09</ele>
        <time>2014-04-26T15:02:11Z</time>
      </trkpt>
      <trkpt lat="45.70444" lon="5.85464">
        <ele>611.54</ele>
        <time>2014-04-26T15:02:27Z</time>
      </trkpt>
      <trkpt lat="45.70456" lon="5.85465">
        <ele>612.5</ele>
        <time>2014-04-26T15:02:37Z</time>
      </trkpt>
      <trkpt lat="45.70471" lon="5.85456">
        <ele>614.42</ele>
        <time>2014-04-26T15:02:53Z</time>
      </trkpt>
      <trkpt lat="45.7048" lon="5.8545">
        <ele>615.38</ele>
        <time>2014-04-26T15:03:09Z</time>
      </trkpt>
      <trkpt lat="45.705" lon="5.85443">
        <ele>614.9</ele>
        <time>2014-04-26T15:03:17Z</time>
      </trkpt>
      <trkpt lat="45.70505" lon="5.85443">
        <ele>615.38</ele>
        <time>2014-04-26T15:03:35Z</time>
      </trkpt>
      <trkpt lat="45.70505" lon="5.85444">
        <ele>614.9</ele>
        <time>2014-04-26T15:04:01Z</time>
      </trkpt>
      <trkpt lat="45.70505" lon="5.85444">
        <ele>615.38</ele>
        <time>2014-04-26T15:04:28Z</time>
      </trkpt>
      <trkpt lat="45.70505" lon="5.85445">
        <ele>615.38</ele>
        <time>2014-04-26T15:04:56Z</time>
      </trkpt>
      <trkpt lat="45.70504" lon="5.85445">
        <ele>614.9</ele>
        <time>2014-04-26T15:05:22Z</time>
      </trkpt>
      <trkpt lat="45.70504" lon="5.85447">
        <ele>615.86</ele>
        <time>2014-04-26T15:05:40Z</time>
      </trkpt>
      <trkpt lat="45.70507" lon="5.85451">
        <ele>615.86</ele>
        <time>2014-04-26T15:05:56Z</time>
      </trkpt>
      <trkpt lat="45.70519" lon="5.85441">
        <ele>615.38</ele>
        <time>2014-04-26T15:06:23Z</time>
      </trkpt>
      <trkpt lat="45.7052" lon="5.8544">
        <ele>616.34</ele>
        <time>2014-04-26T15:06:50Z</time>
      </trkpt>
      <trkpt lat="45.70521" lon="5.85441">
        <ele>616.34</ele>
        <time>2014-04-26T15:07:23Z</time>
      </trkpt>
      <trkpt lat="45.70521" lon="5.8544">
        <ele>616.34</ele>
        <time>2014-04-26T15:07:45Z</time>
      </trkpt>
      <trkpt lat="45.70521" lon="5.8544">
        <ele>615.86</ele>
        <time>2014-04-26T15:08:09Z</time>
      </trkpt>
      <trkpt lat="45.70521" lon="5.8544">
        <ele>616.34</ele>
        <time>2014-04-26T15:08:38Z</time>
      </trkpt>
      <trkpt lat="45.70521" lon="5.85439">
        <ele>616.34</ele>
        <time>2014-04-26T15:09:03Z</time>
      </trkpt>
      <trkpt lat="45.70521" lon="5.85442">
        <ele>616.82</ele>
        <time>2014-04-26T15:09:19Z</time>
      </trkpt>
      <trkpt lat="45.70522" lon="5.85444">
        <ele>616.34</ele>
        <time>2014-04-26T15:09:44Z</time>
      </trkpt>
      <trkpt lat="45.70522" lon="5.85443">
        <ele>615.86</ele>
        <time>2014-04-26T15:09:58Z</time>
      </trkpt>
      <trkpt lat="45.70521" lon="5.85446">
        <ele>616.34</ele>
        <time>2014-04-26T15:10:33Z</time>
      </trkpt>
      <trkpt lat="45.7052" lon="5.85446">
        <ele>616.34</ele>
        <time>2014-04-26T15:11:00Z</time>
      </trkpt>
      <trkpt lat="45.7052" lon="5.85446">
        <ele>616.34</ele>
        <time>2014-04-26T15:11:22Z</time>
      </trkpt>
      <trkpt lat="45.70519" lon="5.85445">
        <ele>616.34</ele>
        <time>2014-04-26T15:11:48Z</time>
      </trkpt>
      <trkpt lat="45.70519" lon="5.85446">
        <ele>616.34</ele>
        <time>2014-04-26T15:12:12Z</time>
      </trkpt>
      <trkpt lat="45.70518" lon="5.85446">
        <ele>617.78</ele>
        <time>2014-04-26T15:12:28Z</time>
      </trkpt>
      <trkpt lat="45.70519" lon="5.85447">
        <ele>614.42</ele>
        <time>2014-04-26T15:12:29Z</time>
      </trkpt>
      <trkpt lat="45.70519" lon="5.85447">
        <ele>618.26</ele>
        <time>2014-04-26T15:12:31Z</time>
      </trkpt>
      <trkpt lat="45.70517" lon="5.8545">
        <ele>616.82</ele>
        <time>2014-04-26T15:12:59Z</time>
      </trkpt>
      <trkpt lat="45.70517" lon="5.8545">
        <ele>616.82</ele>
        <time>2014-04-26T15:13:02Z</time>
      </trkpt>
      <trkpt lat="45.70516" lon="5.85447">
        <ele>617.3</ele>
        <time>2014-04-26T15:13:09Z</time>
      </trkpt>
      <trkpt lat="45.70517" lon="5.85447">
        <ele>616.34</ele>
        <time>2014-04-26T15:13:29Z</time>
      </trkpt>
      <trkpt lat="45.70518" lon="5.85448">
        <ele>616.82</ele>
        <time>2014-04-26T15:13:59Z</time>
      </trkpt>
      <trkpt lat="45.70518" lon="5.85448">
        <ele>616.82</ele>
        <time>2014-04-26T15:14:22Z</time>
      </trkpt>
      <trkpt lat="45.70518" lon="5.85448">
        <ele>617.3</ele>
        <time>2014-04-26T15:14:47Z</time>
      </trkpt>
      <trkpt lat="45.70518" lon="5.85448">
        <ele>617.78</ele>
        <time>2014-04-26T15:15:10Z</time>
      </trkpt>
      <trkpt lat="45.70519" lon="5.85448">
        <ele>617.3</ele>
        <time>2014-04-26T15:15:41Z</time>
      </trkpt>
      <trkpt lat="45.70519" lon="5.85449">
        <ele>617.78</ele>
        <time>2014-04-26T15:16:02Z</time>
      </trkpt>
      <trkpt lat="45.7052" lon="5.8545">
        <ele>618.26</ele>
        <time>2014-04-26T15:16:37Z</time>
      </trkpt>
      <trkpt lat="45.7052" lon="5.85449">
        <ele>618.26</ele>
        <time>2014-04-26T15:17:03Z</time>
      </trkpt>
      <trkpt lat="45.7052" lon="5.85446">
        <ele>618.75</ele>
        <time>2014-04-26T15:17:09Z</time>
      </trkpt>
      <trkpt lat="45.70521" lon="5.85438">
        <ele>618.75</ele>
        <time>2014-04-26T15:17:16Z</time>
      </trkpt>
      <trkpt lat="45.70521" lon="5.85436">
        <ele>619.23</ele>
        <time>2014-04-26T15:17:18Z</time>
      </trkpt>
      <trkpt lat="45.70522" lon="5.85434">
        <ele>618.75</ele>
        <time>2014-04-26T15:17:20Z</time>
      </trkpt>
      <trkpt lat="45.70523" lon="5.85428">
        <ele>618.75</ele>
        <time>2014-04-26T15:17:27Z</time>
      </trkpt>
      <trkpt lat="45.70508" lon="5.85423">
        <ele>619.71</ele>
        <time>2014-04-26T15:17:36Z</time>
      </trkpt>
      <trkpt lat="45.70503" lon="5.85425">
        <ele>619.71</ele>
        <time>2014-04-26T15:17:41Z</time>
      </trkpt>
      <trkpt lat="45.70492" lon="5.85419">
        <ele>620.19</ele>
        <time>2014-04-26T15:17:55Z</time>
      </trkpt>
      <trkpt lat="45.70494" lon="5.85417">
        <ele>620.67</ele>
        <time>2014-04-26T15:18:12Z</time>
      </trkpt>
      <trkpt lat="45.70493" lon="5.85416">
        <ele>620.67</ele>
        <time>2014-04-26T15:18:31Z</time>
      </trkpt>
      <trkpt lat="45.70501" lon="5.85415">
        <ele>620.67</ele>
        <time>2014-04-26T15:18:48Z</time>
      </trkpt>
      <trkpt lat="45.70501" lon="5.85416">
        <ele>620.67</ele>
        <time>2014-04-26T15:19:11Z</time>
      </trkpt>
      <trkpt lat="45.70502" lon="5.85416">
        <ele>620.19</ele>
        <time>2014-04-26T15:19:32Z</time>
      </trkpt>
      <trkpt lat="45.70504" lon="5.85406">
        <ele>621.63</ele>
        <time>2014-04-26T15:19:49Z</time>
      </trkpt>
      <trkpt lat="45.70513" lon="5.85398">
        <ele>622.11</ele>
        <time>2014-04-26T15:20:03Z</time>
      </trkpt>
      <trkpt lat="45.7052" lon="5.85393">
        <ele>623.55</ele>
        <time>2014-04-26T15:20:15Z</time>
      </trkpt>
      <trkpt lat="45.70521" lon="5.85392">
        <ele>623.55</ele>
        <time>2014-04-26T15:20:16Z</time>
      </trkpt>
      <trkpt lat="45.70536" lon="5.85384">
        <ele>624.03</ele>
        <time>2014-04-26T15:20:32Z</time>
      </trkpt>
      <trkpt lat="45.7054" lon="5.85382">
        <ele>624.03</ele>
        <time>2014-04-26T15:20:37Z</time>
      </trkpt>
      <trkpt lat="45.70555" lon="5.85371">
        <ele>625.47</ele>
        <time>2014-04-26T15:20:50Z</time>
      </trkpt>
      <trkpt lat="45.70568" lon="5.85363">
        <ele>626.92</ele>
        <time>2014-04-26T15:21:06Z</time>
      </trkpt>
      <trkpt lat="45.70583" lon="5.85344">
        <ele>628.84</ele>
        <time>2014-04-26T15:21:22Z</time>
      </trkpt>
      <trkpt lat="45.70594" lon="5.8533">
        <ele>629.8</ele>
        <time>2014-04-26T15:21:36Z</time>
      </trkpt>
      <trkpt lat="45.70594" lon="5.8533">
        <ele>629.8</ele>
        <time>2014-04-26T15:22:01Z</time>
      </trkpt>
      <trkpt lat="45.70595" lon="5.8533">
        <ele>630.28</ele>
        <time>2014-04-26T15:22:31Z</time>
      </trkpt>
      <trkpt lat="45.706" lon="5.85326">
        <ele>630.76</ele>
        <time>2014-04-26T15:22:53Z</time>
      </trkpt>
      <trkpt lat="45.70614" lon="5.85321">
        <ele>631.24</ele>
        <time>2014-04-26T15:23:16Z</time>
      </trkpt>
      <trkpt lat="45.70616" lon="5.85316">
        <ele>631.72</ele>
        <time>2014-04-26T15:23:35Z</time>
      </trkpt>
      <trkpt lat="45.70616" lon="5.85308">
        <ele>631.24</ele>
        <time>2014-04-26T15:23:50Z</time>
      </trkpt>
      <trkpt lat="45.70628" lon="5.85305">
        <ele>629.8</ele>
        <time>2014-04-26T15:24:07Z</time>
      </trkpt>
      <trkpt lat="45.70642" lon="5.853">
        <ele>627.88</ele>
        <time>2014-04-26T15:24:21Z</time>
      </trkpt>
      <trkpt lat="45.7066" lon="5.85297">
        <ele>625.96</ele>
        <time>2014-04-26T15:24:36Z</time>
      </trkpt>
      <trkpt lat="45.7067" lon="5.85292">
        <ele>625.47</ele>
        <time>2014-04-26T15:24:51Z</time>
      </trkpt>
      <trkpt lat="45.70674" lon="5.85288">
        <ele>624.99</ele>
        <time>2014-04-26T15:25:10Z</time>
      </trkpt>
      <trkpt lat="45.70677" lon="5.85272">
        <ele>628.36</ele>
        <time>2014-04-26T15:25:29Z</time>
      </trkpt>
      <trkpt lat="45.7068" lon="5.85255">
        <ele>630.76</ele>
        <time>2014-04-26T15:25:46Z</time>
      </trkpt>
      <trkpt lat="45.70683" lon="5.85248">
        <ele>633.17</ele>
        <time>2014-04-26T15:25:59Z</time>
      </trkpt>
      <trkpt lat="45.70689" lon="5.85239">
        <ele>636.53</ele>
        <time>2014-04-26T15:26:16Z</time>
      </trkpt>
      <trkpt lat="45.70688" lon="5.85233">
        <ele>638.45</ele>
        <time>2014-04-26T15:26:33Z</time>
      </trkpt>
      <trkpt lat="45.70678" lon="5.85231">
        <ele>641.82</ele>
        <time>2014-04-26T15:26:49Z</time>
      </trkpt>
      <trkpt lat="45.70671" lon="5.85226">
        <ele>644.22</ele>
        <time>2014-04-26T15:27:03Z</time>
      </trkpt>
      <trkpt lat="45.70663" lon="5.85217">
        <ele>647.1</ele>
        <time>2014-04-26T15:27:20Z</time>
      </trkpt>
      <trkpt lat="45.70655" lon="5.85206">
        <ele>649.51</ele>
        <time>2014-04-26T15:27:36Z</time>
      </trkpt>
      <trkpt lat="45.70643" lon="5.85196">
        <ele>649.99</ele>
        <time>2014-04-26T15:27:53Z</time>
      </trkpt>
      <trkpt lat="45.70633" lon="5.85186">
        <ele>651.43</ele>
        <time>2014-04-26T15:28:13Z</time>
      </trkpt>
      <trkpt lat="45.70623" lon="5.85181">
        <ele>652.39</ele>
        <time>2014-04-26T15:28:30Z</time>
      </trkpt>
      <trkpt lat="45.7062" lon="5.85181">
        <ele>651.91</ele>
        <time>2014-04-26T15:28:55Z</time>
      </trkpt>
      <trkpt lat="45.70615" lon="5.85181">
        <ele>653.35</ele>
        <time>2014-04-26T15:29:11Z</time>
      </trkpt>
      <trkpt lat="45.70599" lon="5.85187">
        <ele>655.28</ele>
        <time>2014-04-26T15:29:23Z</time>
      </trkpt>
      <trkpt lat="45.70586" lon="5.85191">
        <ele>657.2</ele>
        <time>2014-04-26T15:29:37Z</time>
      </trkpt>
      <trkpt lat="45.70569" lon="5.85188">
        <ele>659.6</ele>
        <time>2014-04-26T15:29:52Z</time>
      </trkpt>
      <trkpt lat="45.70554" lon="5.85185">
        <ele>662.49</ele>
        <time>2014-04-26T15:30:07Z</time>
      </trkpt>
      <trkpt lat="45.7055" lon="5.85185">
        <ele>643.74</ele>
        <time>2014-04-26T15:30:12Z</time>
      </trkpt>
      <trkpt lat="45.70549" lon="5.85185">
        <ele>682.19</ele>
        <time>2014-04-26T15:30:13Z</time>
      </trkpt>
      <trkpt lat="45.70548" lon="5.85185">
        <ele>664.41</ele>
        <time>2014-04-26T15:30:14Z</time>
      </trkpt>
      <trkpt lat="45.70545" lon="5.85186">
        <ele>663.93</ele>
        <time>2014-04-26T15:30:16Z</time>
      </trkpt>
      <trkpt lat="45.70528" lon="5.85193">
        <ele>665.37</ele>
        <time>2014-04-26T15:30:28Z</time>
      </trkpt>
      <trkpt lat="45.70524" lon="5.85196">
        <ele>665.85</ele>
        <time>2014-04-26T15:30:32Z</time>
      </trkpt>
      <trkpt lat="45.70515" lon="5.852">
        <ele>668.25</ele>
        <time>2014-04-26T15:30:45Z</time>
      </trkpt>
      <trkpt lat="45.70504" lon="5.85203">
        <ele>670.18</ele>
        <time>2014-04-26T15:30:59Z</time>
      </trkpt>
      <trkpt lat="45.70495" lon="5.85203">
        <ele>672.1</ele>
        <time>2014-04-26T15:31:11Z</time>
      </trkpt>
      <trkpt lat="45.70491" lon="5.85204">
        <ele>672.58</ele>
        <time>2014-04-26T15:31:16Z</time>
      </trkpt>
      <trkpt lat="45.70479" lon="5.85205">
        <ele>674.5</ele>
        <time>2014-04-26T15:31:29Z</time>
      </trkpt>
      <trkpt lat="45.70466" lon="5.85208">
        <ele>674.98</ele>
        <time>2014-04-26T15:31:43Z</time>
      </trkpt>
      <trkpt lat="45.70455" lon="5.85209">
        <ele>674.02</ele>
        <time>2014-04-26T15:31:54Z</time>
      </trkpt>
      <trkpt lat="45.70441" lon="5.85208">
        <ele>673.54</ele>
        <time>2014-04-26T15:32:10Z</time>
      </trkpt>
      <trkpt lat="45.70433" lon="5.85205">
        <ele>673.54</ele>
        <time>2014-04-26T15:32:25Z</time>
      </trkpt>
      <trkpt lat="45.70422" lon="5.85204">
        <ele>674.98</ele>
        <time>2014-04-26T15:32:40Z</time>
      </trkpt>
      <trkpt lat="45.7041" lon="5.85201">
        <ele>674.98</ele>
        <time>2014-04-26T15:32:54Z</time>
      </trkpt>
      <trkpt lat="45.70389" lon="5.85192">
        <ele>676.42</ele>
        <time>2014-04-26T15:33:09Z</time>
      </trkpt>
      <trkpt lat="45.70377" lon="5.85189">
        <ele>676.42</ele>
        <time>2014-04-26T15:33:24Z</time>
      </trkpt>
      <trkpt lat="45.70371" lon="5.85188">
        <ele>676.91</ele>
        <time>2014-04-26T15:33:43Z</time>
      </trkpt>
      <trkpt lat="45.70358" lon="5.85184">
        <ele>676.42</ele>
        <time>2014-04-26T15:33:58Z</time>
      </trkpt>
      <trkpt lat="45.70335" lon="5.85175">
        <ele>678.35</ele>
        <time>2014-04-26T15:34:10Z</time>
      </trkpt>
      <trkpt lat="45.70306" lon="5.85168">
        <ele>679.31</ele>
        <time>2014-04-26T15:34:25Z</time>
      </trkpt>
      <trkpt lat="45.70285" lon="5.85165">
        <ele>681.23</ele>
        <time>2014-04-26T15:34:40Z</time>
      </trkpt>
      <trkpt lat="45.70264" lon="5.85163">
        <ele>681.71</ele>
        <time>2014-04-26T15:34:56Z</time>
      </trkpt>
      <trkpt lat="45.70244" lon="5.85162">
        <ele>681.23</ele>
        <time>2014-04-26T15:35:10Z</time>
      </trkpt>
      <trkpt lat="45.70234" lon="5.85159">
        <ele>681.23</ele>
        <time>2014-04-26T15:35:24Z</time>
      </trkpt>
      <trkpt lat="45.70226" lon="5.85153">
        <ele>681.23</ele>
        <time>2014-04-26T15:35:37Z</time>
      </trkpt>
      <trkpt lat="45.70208" lon="5.85145">
        <ele>680.75</ele>
        <time>2014-04-26T15:35:53Z</time>
      </trkpt>
      <trkpt lat="45.70187" lon="5.85143">
        <ele>682.19</ele>
        <time>2014-04-26T15:36:09Z</time>
      </trkpt>
      <trkpt lat="45.70173" lon="5.85146">
        <ele>682.67</ele>
        <time>2014-04-26T15:36:18Z</time>
      </trkpt>
      <trkpt lat="45.70169" lon="5.85148">
        <ele>682.19</ele>
        <time>2014-04-26T15:36:21Z</time>
      </trkpt>
      <trkpt lat="45.70153" lon="5.8515">
        <ele>683.15</ele>
        <time>2014-04-26T15:36:34Z</time>
      </trkpt>
      <trkpt lat="45.70141" lon="5.85149">
        <ele>684.12</ele>
        <time>2014-04-26T15:36:46Z</time>
      </trkpt>
      <trkpt lat="45.70139" lon="5.85148">
        <ele>684.12</ele>
        <time>2014-04-26T15:36:48Z</time>
      </trkpt>
      <trkpt lat="45.70129" lon="5.85147">
        <ele>685.08</ele>
        <time>2014-04-26T15:36:57Z</time>
      </trkpt>
      <trkpt lat="45.70115" lon="5.8515">
        <ele>685.08</ele>
        <time>2014-04-26T15:37:11Z</time>
      </trkpt>
      <trkpt lat="45.701" lon="5.85153">
        <ele>685.56</ele>
        <time>2014-04-26T15:37:25Z</time>
      </trkpt>
      <trkpt lat="45.70087" lon="5.85154">
        <ele>686.52</ele>
        <time>2014-04-26T15:37:40Z</time>
      </trkpt>
      <trkpt lat="45.70072" lon="5.85159">
        <ele>687.96</ele>
        <time>2014-04-26T15:37:55Z</time>
      </trkpt>
      <trkpt lat="45.70058" lon="5.85168">
        <ele>688.92</ele>
        <time>2014-04-26T15:38:10Z</time>
      </trkpt>
      <trkpt lat="45.70045" lon="5.85173">
        <ele>690.84</ele>
        <time>2014-04-26T15:38:26Z</time>
      </trkpt>
      <trkpt lat="45.70034" lon="5.85172">
        <ele>689.4</ele>
        <time>2014-04-26T15:38:37Z</time>
      </trkpt>
      <trkpt lat="45.70013" lon="5.85173">
        <ele>688.44</ele>
        <time>2014-04-26T15:38:51Z</time>
      </trkpt>
      <trkpt lat="45.69997" lon="5.8517">
        <ele>689.88</ele>
        <time>2014-04-26T15:39:05Z</time>
      </trkpt>
      <trkpt lat="45.69978" lon="5.85169">
        <ele>690.84</ele>
        <time>2014-04-26T15:39:23Z</time>
      </trkpt>
      <trkpt lat="45.69966" lon="5.85165">
        <ele>692.77</ele>
        <time>2014-04-26T15:39:39Z</time>
      </trkpt>
      <trkpt lat="45.69956" lon="5.85166">
        <ele>694.21</ele>
        <time>2014-04-26T15:39:54Z</time>
      </trkpt>
      <trkpt lat="45.69942" lon="5.85163">
        <ele>692.29</ele>
        <time>2014-04-26T15:40:09Z</time>
      </trkpt>
      <trkpt lat="45.69937" lon="5.85159">
        <ele>688.92</ele>
        <time>2014-04-26T15:40:21Z</time>
      </trkpt>
      <trkpt lat="45.69923" lon="5.85155">
        <ele>687</ele>
        <time>2014-04-26T15:40:37Z</time>
      </trkpt>
      <trkpt lat="45.69905" lon="5.85148">
        <ele>686.52</ele>
        <time>2014-04-26T15:40:50Z</time>
      </trkpt>
      <trkpt lat="45.69897" lon="5.85146">
        <ele>687</ele>
        <time>2014-04-26T15:41:05Z</time>
      </trkpt>
      <trkpt lat="45.69892" lon="5.85143">
        <ele>687.48</ele>
        <time>2014-04-26T15:41:09Z</time>
      </trkpt>
      <trkpt lat="45.69883" lon="5.85128">
        <ele>689.88</ele>
        <time>2014-04-26T15:41:22Z</time>
      </trkpt>
      <trkpt lat="45.6988" lon="5.85115">
        <ele>692.29</ele>
        <time>2014-04-26T15:41:37Z</time>
      </trkpt>
      <trkpt lat="45.69876" lon="5.8511">
        <ele>695.65</ele>
        <time>2014-04-26T15:41:48Z</time>
      </trkpt>
      <trkpt lat="45.69874" lon="5.85108">
        <ele>695.65</ele>
        <time>2014-04-26T15:41:51Z</time>
      </trkpt>
      <trkpt lat="45.69859" lon="5.85088">
        <ele>695.65</ele>
        <time>2014-04-26T15:42:06Z</time>
      </trkpt>
      <trkpt lat="45.69851" lon="5.85074">
        <ele>696.13</ele>
        <time>2014-04-26T15:42:20Z</time>
      </trkpt>
      <trkpt lat="45.69837" lon="5.8505">
        <ele>697.57</ele>
        <time>2014-04-26T15:42:36Z</time>
      </trkpt>
      <trkpt lat="45.69828" lon="5.85028">
        <ele>696.61</ele>
        <time>2014-04-26T15:42:52Z</time>
      </trkpt>
      <trkpt lat="45.69818" lon="5.85019">
        <ele>698.53</ele>
        <time>2014-04-26T15:43:00Z</time>
      </trkpt>
      <trkpt lat="45.69811" lon="5.85013">
        <ele>699.5</ele>
        <time>2014-04-26T15:43:06Z</time>
      </trkpt>
      <trkpt lat="45.69807" lon="5.85007">
        <ele>700.46</ele>
        <time>2014-04-26T15:43:12Z</time>
      </trkpt>
      <trkpt lat="45.69802" lon="5.84993">
        <ele>701.9</ele>
        <time>2014-04-26T15:43:25Z</time>
      </trkpt>
      <trkpt lat="45.69802" lon="5.84975">
        <ele>702.38</ele>
        <time>2014-04-26T15:43:36Z</time>
      </trkpt>
      <trkpt lat="45.69798" lon="5.84954">
        <ele>703.34</ele>
        <time>2014-04-26T15:43:50Z</time>
      </trkpt>
      <trkpt lat="45.69799" lon="5.84935">
        <ele>701.42</ele>
        <time>2014-04-26T15:44:04Z</time>
      </trkpt>
      <trkpt lat="45.69791" lon="5.84917">
        <ele>700.94</ele>
        <time>2014-04-26T15:44:19Z</time>
      </trkpt>
      <trkpt lat="45.69772" lon="5.84898">
        <ele>699.98</ele>
        <time>2014-04-26T15:44:36Z</time>
      </trkpt>
      <trkpt lat="45.69762" lon="5.84887">
        <ele>698.53</ele>
        <time>2014-04-26T15:44:55Z</time>
      </trkpt>
      <trkpt lat="45.69756" lon="5.84874">
        <ele>697.09</ele>
        <time>2014-04-26T15:45:09Z</time>
      </trkpt>
      <trkpt lat="45.69738" lon="5.84861">
        <ele>698.05</ele>
        <time>2014-04-26T15:45:26Z</time>
      </trkpt>
      <trkpt lat="45.69722" lon="5.84854">
        <ele>699.02</ele>
        <time>2014-04-26T15:45:43Z</time>
      </trkpt>
      <trkpt lat="45.69708" lon="5.84845">
        <ele>700.46</ele>
        <time>2014-04-26T15:45:58Z</time>
      </trkpt>
      <trkpt lat="45.69703" lon="5.84838">
        <ele>699.02</ele>
        <time>2014-04-26T15:46:12Z</time>
      </trkpt>
      <trkpt lat="45.69695" lon="5.8483">
        <ele>699.02</ele>
        <time>2014-04-26T15:46:23Z</time>
      </trkpt>
      <trkpt lat="45.69682" lon="5.84817">
        <ele>697.09</ele>
        <time>2014-04-26T15:46:38Z</time>
      </trkpt>
      <trkpt lat="45.69663" lon="5.84809">
        <ele>694.21</ele>
        <time>2014-04-26T15:46:52Z</time>
      </trkpt>
      <trkpt lat="45.69653" lon="5.84812">
        <ele>693.25</ele>
        <time>2014-04-26T15:47:02Z</time>
      </trkpt>
      <trkpt lat="45.69648" lon="5.84814">
        <ele>692.77</ele>
        <time>2014-04-26T15:47:05Z</time>
      </trkpt>
      <trkpt lat="45.69642" lon="5.84816">
        <ele>692.29</ele>
        <time>2014-04-26T15:47:10Z</time>
      </trkpt>
      <trkpt lat="45.69632" lon="5.84818">
        <ele>691.81</ele>
        <time>2014-04-26T15:47:24Z</time>
      </trkpt>
      <trkpt lat="45.6962" lon="5.84817">
        <ele>690.36</ele>
        <time>2014-04-26T15:47:36Z</time>
      </trkpt>
      <trkpt lat="45.69614" lon="5.84816">
        <ele>691.81</ele>
        <time>2014-04-26T15:47:49Z</time>
      </trkpt>
      <trkpt lat="45.69599" lon="5.8481">
        <ele>693.25</ele>
        <time>2014-04-26T15:48:03Z</time>
      </trkpt>
      <trkpt lat="45.69585" lon="5.84801">
        <ele>694.21</ele>
        <time>2014-04-26T15:48:17Z</time>
      </trkpt>
      <trkpt lat="45.69569" lon="5.84787">
        <ele>695.65</ele>
        <time>2014-04-26T15:48:30Z</time>
      </trkpt>
      <trkpt lat="45.69557" lon="5.84778">
        <ele>697.09</ele>
        <time>2014-04-26T15:48:44Z</time>
      </trkpt>
      <trkpt lat="45.69545" lon="5.84763">
        <ele>699.02</ele>
        <time>2014-04-26T15:48:58Z</time>
      </trkpt>
      <trkpt lat="45.69531" lon="5.84738">
        <ele>699.02</ele>
        <time>2014-04-26T15:49:12Z</time>
      </trkpt>
      <trkpt lat="45.6953" lon="5.8473">
        <ele>698.05</ele>
        <time>2014-04-26T15:49:16Z</time>
      </trkpt>
      <trkpt lat="45.69532" lon="5.84715">
        <ele>694.69</ele>
        <time>2014-04-26T15:49:25Z</time>
      </trkpt>
      <trkpt lat="45.69531" lon="5.84708">
        <ele>693.73</ele>
        <time>2014-04-26T15:49:32Z</time>
      </trkpt>
      <trkpt lat="45.69523" lon="5.84681">
        <ele>690.36</ele>
        <time>2014-04-26T15:49:50Z</time>
      </trkpt>
      <trkpt lat="45.69519" lon="5.84666">
        <ele>688.44</ele>
        <time>2014-04-26T15:50:03Z</time>
      </trkpt>
      <trkpt lat="45.69515" lon="5.84666">
        <ele>689.88</ele>
        <time>2014-04-26T15:50:12Z</time>
      </trkpt>
      <trkpt lat="45.69505" lon="5.84669">
        <ele>689.88</ele>
        <time>2014-04-26T15:50:31Z</time>
      </trkpt>
      <trkpt lat="45.69503" lon="5.84671">
        <ele>689.88</ele>
        <time>2014-04-26T15:50:54Z</time>
      </trkpt>
      <trkpt lat="45.69503" lon="5.84672">
        <ele>690.84</ele>
        <time>2014-04-26T15:51:11Z</time>
      </trkpt>
      <trkpt lat="45.69503" lon="5.84672">
        <ele>691.33</ele>
        <time>2014-04-26T15:51:13Z</time>
      </trkpt>
      <trkpt lat="45.69511" lon="5.84687">
        <ele>694.69</ele>
        <time>2014-04-26T15:51:27Z</time>
      </trkpt>
      <trkpt lat="45.69512" lon="5.84688">
        <ele>694.69</ele>
        <time>2014-04-26T15:51:28Z</time>
      </trkpt>
      <trkpt lat="45.6951" lon="5.8468">
        <ele>697.57</ele>
        <time>2014-04-26T15:51:45Z</time>
      </trkpt>
      <trkpt lat="45.69495" lon="5.8464">
        <ele>698.05</ele>
        <time>2014-04-26T15:51:54Z</time>
      </trkpt>
      <trkpt lat="45.69492" lon="5.84631">
        <ele>696.61</ele>
        <time>2014-04-26T15:51:57Z</time>
      </trkpt>
      <trkpt lat="45.69491" lon="5.84625">
        <ele>696.13</ele>
        <time>2014-04-26T15:51:59Z</time>
      </trkpt>
      <trkpt lat="45.69497" lon="5.84609">
        <ele>696.61</ele>
        <time>2014-04-26T15:52:16Z</time>
      </trkpt>
      <trkpt lat="45.69499" lon="5.84605">
        <ele>693.73</ele>
        <time>2014-04-26T15:52:32Z</time>
      </trkpt>
      <trkpt lat="45.69502" lon="5.84606">
        <ele>697.09</ele>
        <time>2014-04-26T15:52:33Z</time>
      </trkpt>
      <trkpt lat="45.69504" lon="5.84606">
        <ele>697.09</ele>
        <time>2014-04-26T15:52:49Z</time>
      </trkpt>
      <trkpt lat="45.69503" lon="5.84604">
        <ele>696.61</ele>
        <time>2014-04-26T15:53:10Z</time>
      </trkpt>
      <trkpt lat="45.69504" lon="5.84605">
        <ele>696.13</ele>
        <time>2014-04-26T15:53:35Z</time>
      </trkpt>
      <trkpt lat="45.69504" lon="5.84605">
        <ele>696.61</ele>
        <time>2014-04-26T15:53:58Z</time>
      </trkpt>
      <trkpt lat="45.69503" lon="5.84605">
        <ele>696.61</ele>
        <time>2014-04-26T15:54:15Z</time>
      </trkpt>
      <trkpt lat="45.69503" lon="5.84605">
        <ele>696.13</ele>
        <time>2014-04-26T15:54:38Z</time>
      </trkpt>
      <trkpt lat="45.69504" lon="5.84608">
        <ele>696.61</ele>
        <time>2014-04-26T15:55:06Z</time>
      </trkpt>
      <trkpt lat="45.69495" lon="5.84607">
        <ele>696.61</ele>
        <time>2014-04-26T15:55:44Z</time>
      </trkpt>
      <trkpt lat="45.69495" lon="5.84605">
        <ele>696.61</ele>
        <time>2014-04-26T15:56:12Z</time>
      </trkpt>
      <trkpt lat="45.69492" lon="5.84606">
        <ele>696.61</ele>
        <time>2014-04-26T15:56:45Z</time>
      </trkpt>
      <trkpt lat="45.69493" lon="5.84606">
        <ele>696.61</ele>
        <time>2014-04-26T15:57:10Z</time>
      </trkpt>
      <trkpt lat="45.69491" lon="5.84604">
        <ele>696.13</ele>
        <time>2014-04-26T15:57:22Z</time>
      </trkpt>
      <trkpt lat="45.69495" lon="5.84604">
        <ele>697.09</ele>
        <time>2014-04-26T15:57:43Z</time>
      </trkpt>
      <trkpt lat="45.69491" lon="5.84602">
        <ele>697.09</ele>
        <time>2014-04-26T15:58:02Z</time>
      </trkpt>
      <trkpt lat="45.69492" lon="5.84604">
        <ele>697.09</ele>
        <time>2014-04-26T15:58:19Z</time>
      </trkpt>
      <trkpt lat="45.69489" lon="5.84606">
        <ele>697.09</ele>
        <time>2014-04-26T15:58:39Z</time>
      </trkpt>
      <trkpt lat="45.6948" lon="5.84617">
        <ele>697.09</ele>
        <time>2014-04-26T15:58:53Z</time>
      </trkpt>
      <trkpt lat="45.69478" lon="5.84634">
        <ele>696.61</ele>
        <time>2014-04-26T15:59:11Z</time>
      </trkpt>
      <trkpt lat="45.69479" lon="5.84637">
        <ele>693.25</ele>
        <time>2014-04-26T15:59:22Z</time>
      </trkpt>
      <trkpt lat="45.69479" lon="5.84637">
        <ele>693.25</ele>
        <time>2014-04-26T15:59:23Z</time>
      </trkpt>
      <trkpt lat="45.69482" lon="5.84643">
        <ele>689.88</ele>
        <time>2014-04-26T15:59:37Z</time>
      </trkpt>
      <trkpt lat="45.69481" lon="5.84645">
        <ele>688.92</ele>
        <time>2014-04-26T15:59:39Z</time>
      </trkpt>
      <trkpt lat="45.69472" lon="5.84657">
        <ele>686.52</ele>
        <time>2014-04-26T15:59:52Z</time>
      </trkpt>
      <trkpt lat="45.69466" lon="5.84667">
        <ele>683.15</ele>
        <time>2014-04-26T16:00:04Z</time>
      </trkpt>
      <trkpt lat="45.69459" lon="5.84674">
        <ele>679.79</ele>
        <time>2014-04-26T16:00:15Z</time>
      </trkpt>
      <trkpt lat="45.69453" lon="5.84682">
        <ele>676.42</ele>
        <time>2014-04-26T16:00:30Z</time>
      </trkpt>
      <trkpt lat="45.6945" lon="5.84682">
        <ele>675.94</ele>
        <time>2014-04-26T16:00:32Z</time>
      </trkpt>
      <trkpt lat="45.69435" lon="5.84687">
        <ele>673.06</ele>
        <time>2014-04-26T16:00:44Z</time>
      </trkpt>
      <trkpt lat="45.69432" lon="5.84688">
        <ele>673.06</ele>
        <time>2014-04-26T16:00:47Z</time>
      </trkpt>
      <trkpt lat="45.69407" lon="5.84698">
        <ele>671.14</ele>
        <time>2014-04-26T16:01:04Z</time>
      </trkpt>
      <trkpt lat="45.69399" lon="5.84708">
        <ele>668.73</ele>
        <time>2014-04-26T16:01:18Z</time>
      </trkpt>
      <trkpt lat="45.69386" lon="5.84714">
        <ele>667.29</ele>
        <time>2014-04-26T16:01:34Z</time>
      </trkpt>
      <trkpt lat="45.69379" lon="5.84716">
        <ele>664.41</ele>
        <time>2014-04-26T16:01:48Z</time>
      </trkpt>
      <trkpt lat="45.69366" lon="5.8472">
        <ele>661.04</ele>
        <time>2014-04-26T16:02:01Z</time>
      </trkpt>
      <trkpt lat="45.69346" lon="5.84732">
        <ele>658.16</ele>
        <time>2014-04-26T16:02:20Z</time>
      </trkpt>
      <trkpt lat="45.69333" lon="5.84734">
        <ele>659.12</ele>
        <time>2014-04-26T16:02:26Z</time>
      </trkpt>
      <trkpt lat="45.69331" lon="5.84735">
        <ele>658.64</ele>
        <time>2014-04-26T16:02:27Z</time>
      </trkpt>
      <trkpt lat="45.69315" lon="5.84742">
        <ele>655.76</ele>
        <time>2014-04-26T16:02:40Z</time>
      </trkpt>
      <trkpt lat="45.69303" lon="5.84749">
        <ele>655.28</ele>
        <time>2014-04-26T16:02:52Z</time>
      </trkpt>
      <trkpt lat="45.693" lon="5.84751">
        <ele>654.8</ele>
        <time>2014-04-26T16:02:55Z</time>
      </trkpt>
      <trkpt lat="45.69287" lon="5.84761">
        <ele>651.91</ele>
        <time>2014-04-26T16:03:10Z</time>
      </trkpt>
      <trkpt lat="45.69279" lon="5.84768">
        <ele>648.55</ele>
        <time>2014-04-26T16:03:24Z</time>
      </trkpt>
      <trkpt lat="45.69267" lon="5.8478">
        <ele>645.66</ele>
        <time>2014-04-26T16:03:41Z</time>
      </trkpt>
      <trkpt lat="45.69255" lon="5.84758">
        <ele>642.78</ele>
        <time>2014-04-26T16:03:55Z</time>
      </trkpt>
      <trkpt lat="45.69249" lon="5.84761">
        <ele>638.45</ele>
        <time>2014-04-26T16:04:09Z</time>
      </trkpt>
      <trkpt lat="45.69247" lon="5.8477">
        <ele>634.13</ele>
        <time>2014-04-26T16:04:19Z</time>
      </trkpt>
      <trkpt lat="45.69247" lon="5.84771">
        <ele>636.53</ele>
        <time>2014-04-26T16:04:20Z</time>
      </trkpt>
      <trkpt lat="45.69248" lon="5.84772">
        <ele>641.82</ele>
        <time>2014-04-26T16:04:21Z</time>
      </trkpt>
      <trkpt lat="45.69248" lon="5.84774">
        <ele>641.82</ele>
        <time>2014-04-26T16:04:22Z</time>
      </trkpt>
      <trkpt lat="45.69249" lon="5.84778">
        <ele>637.01</ele>
        <time>2014-04-26T16:04:25Z</time>
      </trkpt>
      <trkpt lat="45.69249" lon="5.84781">
        <ele>637.01</ele>
        <time>2014-04-26T16:04:27Z</time>
      </trkpt>
      <trkpt lat="45.69246" lon="5.84785">
        <ele>636.05</ele>
        <time>2014-04-26T16:04:31Z</time>
      </trkpt>
      <trkpt lat="45.69244" lon="5.84788">
        <ele>636.05</ele>
        <time>2014-04-26T16:04:33Z</time>
      </trkpt>
      <trkpt lat="45.69232" lon="5.84802">
        <ele>635.09</ele>
        <time>2014-04-26T16:04:46Z</time>
      </trkpt>
      <trkpt lat="45.6923" lon="5.84804">
        <ele>634.13</ele>
        <time>2014-04-26T16:04:48Z</time>
      </trkpt>
      <trkpt lat="45.69225" lon="5.84808">
        <ele>633.65</ele>
        <time>2014-04-26T16:04:57Z</time>
      </trkpt>
      <trkpt lat="45.69222" lon="5.84812">
        <ele>634.61</ele>
        <time>2014-04-26T16:05:17Z</time>
      </trkpt>
      <trkpt lat="45.6922" lon="5.84821">
        <ele>634.13</ele>
        <time>2014-04-26T16:05:37Z</time>
      </trkpt>
      <trkpt lat="45.69221" lon="5.84821">
        <ele>632.68</ele>
        <time>2014-04-26T16:05:45Z</time>
      </trkpt>
      <trkpt lat="45.6922" lon="5.84821">
        <ele>634.13</ele>
        <time>2014-04-26T16:05:47Z</time>
      </trkpt>
      <trkpt lat="45.69213" lon="5.84824">
        <ele>633.17</ele>
        <time>2014-04-26T16:06:05Z</time>
      </trkpt>
      <trkpt lat="45.69213" lon="5.84832">
        <ele>633.65</ele>
        <time>2014-04-26T16:06:23Z</time>
      </trkpt>
      <trkpt lat="45.69213" lon="5.84831">
        <ele>627.88</ele>
        <time>2014-04-26T16:06:24Z</time>
      </trkpt>
      <trkpt lat="45.69212" lon="5.8483">
        <ele>634.13</ele>
        <time>2014-04-26T16:06:25Z</time>
      </trkpt>
      <trkpt lat="45.69206" lon="5.84829">
        <ele>633.65</ele>
        <time>2014-04-26T16:06:49Z</time>
      </trkpt>
      <trkpt lat="45.69207" lon="5.84829">
        <ele>633.65</ele>
        <time>2014-04-26T16:07:05Z</time>
      </trkpt>
      <trkpt lat="45.69208" lon="5.84829">
        <ele>634.13</ele>
        <time>2014-04-26T16:07:32Z</time>
      </trkpt>
      <trkpt lat="45.69208" lon="5.84832">
        <ele>635.57</ele>
        <time>2014-04-26T16:08:00Z</time>
      </trkpt>
      <trkpt lat="45.69208" lon="5.84832">
        <ele>629.32</ele>
        <time>2014-04-26T16:08:29Z</time>
      </trkpt>
      <trkpt lat="45.69208" lon="5.84832">
        <ele>632.68</ele>
        <time>2014-04-26T16:08:30Z</time>
      </trkpt>
    </trkseg>
  </trk>
</gpx>